LiveATC.Net - Listen to live air traffic control over the Internet!
Airport/ARTCC Code
Frequency Search
(e.g., 124.400, 128.75)
Site-wide search
 


Browse Feeds
Top 50 Feeds
HF Oceanic Feeds
Coverage Map
Bad Weather Areas

LiveATC FAQ
Offer LiveATC feed
Contact LiveATC.net
Press Inquiries

LiveATC on iPhone
LiveATC on Android

LiveATC Mobile
(Mobile browser)

ATC Audio Archives
Interesting Recordings

LiveATC Forums

Home Page
About LiveATC.net


Terms of Use
Privacy Policy

AIRMETs/SIGMETs

FAA Airport Status
NAS Status
Arrival Demand


Server Software By:
Icecast.org
Liquidsoap

Select an area of interest:
U.S. Feeds: Class B Airports | Class C Airports | Class D/Other Airports | ARTCC (Centers)
International Feeds: Canada | Europe | Oceania | Asia | South America | North/Central America | Africa
Misc Feeds: HF Feeds
Search by ICAO/IATA airport code:   (e.g., kbos, kjfk, lax, eham, etc.)


Currently Available Live Feeds: 3041
Status Updated: Fri Jul 01 2022 07:12:38 UTC


NOTICE

Unauthorized use prohibited. See LiveATC.net Terms of Service

U.S. Class D Airport and ARTCCC Feeds

 

KUES Del/Gnd/Twr/02C (Archives)
Brookfield, Wisconsin, United States

Feed Status: UP
Listen in your browser - HTML5 player(in browser, HTML5)
Click here to listen with your own player(launches your MP3 player)

KUES 010655Z AUTO 22008G15KT 10SM OVC075 23/13 A2991 RMK AO2

KUES Airport Info (Airnav.com)

KUES Flight Activity (Flightaware)

Listeners: 0 out of 1390 total

Capitol CTAF: 122.700
Waukesha Clearance Delivery: 128.700
Waukesha Ground: 121.600
Waukesha Tower: 123.700

0V4 CTAF (Archives)
Brookneal, Virginia, United States

Feed Status: UP
Listen in your browser - HTML5 player(in browser, HTML5)
Click here to listen with your own player(launches your MP3 player)

K0V4 Airport Info (Airnav.com)

K0V4 Flight Activity (Flightaware)

Listeners: 0 out of 1390 total

Brookneal CTAF: 122.700

SNJ Area CTAF 122.8 (Archives)
Cross Keys, New Jersey, United States

Feed Status: UP
Listen in your browser - HTML5 player(in browser, HTML5)
Click here to listen with your own player(launches your MP3 player)

KPNE 010654Z AUTO 00000KT 10SM CLR 23/20 A3013 RMK AO2 SLP200 T02330200

KPNE Airport Info (Airnav.com)

KPNE Flight Activity (Flightaware)

Listeners: 0 out of 1390 total

CTAF: 122.800

MA/NH/RI/CT Area CTAF (Archives)
Hopedale, Massachusetts, United States

Feed Status: UP
Listen in your browser - HTML5 player(in browser, HTML5)
Click here to listen with your own player(launches your MP3 player)

KBOS 010654Z 20004KT 10SM FEW100 BKN180 BKN250 20/15 A3009 RMK AO2 SLP188 T02000150

KBOS Airport Info (Airnav.com)

KBOS Flight Activity (Flightaware)

Listeners: 0 out of 1390 total

Air-to-Air: 122.750
Bridgeport Flight Service: 122.200
CTAF: 122.700
CTAF: 122.800
CTAF: 122.900
CTAF: 123.000
Emergency/Guard: 121.500

MA/NH/RI/CT Area CTAF (Archives)
Hopedale, Massachusetts, United States

Feed Status: UP
Listen in your browser - HTML5 player(in browser, HTML5)
Click here to listen with your own player(launches your MP3 player)

KBOS 010654Z 20004KT 10SM FEW100 BKN180 BKN250 20/15 A3009 RMK AO2 SLP188 T02000150

KBOS Airport Info (Airnav.com)

KBOS Flight Activity (Flightaware)

Listeners: 0 out of 1390 total

Air-to-Air: 122.750
Bridgeport Flight Service: 122.200
CTAF: 122.700
CTAF: 122.800
CTAF: 122.900
CTAF: 123.000
Emergency/Guard: 121.500

MA/NH/RI/CT Area CTAF (Archives)
Hopedale, Massachusetts, United States

Feed Status: UP
Listen in your browser - HTML5 player(in browser, HTML5)
Click here to listen with your own player(launches your MP3 player)

KBOS 010654Z 20004KT 10SM FEW100 BKN180 BKN250 20/15 A3009 RMK AO2 SLP188 T02000150

KBOS Airport Info (Airnav.com)

KBOS Flight Activity (Flightaware)

Listeners: 0 out of 1390 total

Air-to-Air: 122.750
Bridgeport Flight Service: 122.200
CTAF: 122.700
CTAF: 122.800
CTAF: 122.900
CTAF: 123.000
Emergency/Guard: 121.500

1B9 Area Guard (Archives)
Mansfield, Massachusetts, United States

Feed Status: UP
Listen in your browser - HTML5 player(in browser, HTML5)
Click here to listen with your own player(launches your MP3 player)


Listeners: 0 out of 1390 total

Emergency/Guard: 121.500

1B9 CTAF #1 (Archives)
Mansfield, Massachusetts, United States

Feed Status: UP
Listen in your browser - HTML5 player(in browser, HTML5)
Click here to listen with your own player(launches your MP3 player)


Listeners: 0 out of 1390 total

Mansfield CTAF/UNICOM: 123.000

1B9 CTAF #2 (Archives)
Mansfield, Massachusetts, United States

Feed Status: UP
Listen in your browser - HTML5 player(in browser, HTML5)
Click here to listen with your own player(launches your MP3 player)


Listeners: 0 out of 1390 total

Mansfield CTAF/UNICOM: 123.000

1B9 CTAF/RCO (Archives)
Mansfield, Massachusetts, United States

Feed Status: UP
Listen in your browser - HTML5 player(in browser, HTML5)
Click here to listen with your own player(launches your MP3 player)


Listeners: 0 out of 1390 total

Bridgeport FSS (RCO): 122.500
Mansfield CTAF/UNICOM: 123.000

1B9 Del/RCO #1 (Archives)
Mansfield, Massachusetts, United States

Feed Status: UP
Listen in your browser - HTML5 player(in browser, HTML5)
Click here to listen with your own player(launches your MP3 player)


Listeners: 0 out of 1390 total

Mansfield Clearance Delivery (RCO): 122.500

1B9 Del/RCO #2 (Archives)
Mansfield, Massachusetts, United States

Feed Status: UP
Listen in your browser - HTML5 player(in browser, HTML5)
Click here to listen with your own player(launches your MP3 player)


Listeners: 0 out of 1390 total

Mansfield Clearance Delivery (RCO): 122.500

1C9 CTAF (Archives)
Hollister, California, United States

Feed Status: UP
Listen in your browser - HTML5 player(in browser, HTML5)
Click here to listen with your own player(launches your MP3 player)

K1C9 Airport Info (Airnav.com)

K1C9 Flight Activity (Flightaware)

Listeners: 0 out of 1390 total

Frazier CTAF: 123.050

KGBR/20N CTAF
Kingston, New York, United States

Feed Status: DOWN
Offline since: 2020-11-21 13:08:39 UTC

KGBR Airport Info (Airnav.com)

Great Barrington CTAF: 122.800

26MA CTAF (Archives)
Pepperell, Massachusetts, United States

Feed Status: UP
Listen in your browser - HTML5 player(in browser, HTML5)
Click here to listen with your own player(launches your MP3 player)

KMHT 010653Z 35003KT 10SM FEW150 BKN250 18/12 A3007 RMK AO2 SLP191 T01830122 $

KMHT Airport Info (Airnav.com)

KMHT Flight Activity (Flightaware)

Listeners: 0 out of 1390 total

CTAF: 123.050

2B1 CTAF
Marstons Mills, Massachusetts, United States

Feed Status: DOWN
Offline since: 2021-11-19 19:34:05 UTC

KHYA 010656Z AUTO 22007KT 10SM CLR 21/17 A3010 RMK AO2 SLP194 T02060167

KHYA Airport Info (Airnav.com)

Marstons Mills CTAF: 122.900

MA/NH/RI/CT Area CTAF (Archives)
Newburyport, Massachusetts, United States

Feed Status: UP
Listen in your browser - HTML5 player(in browser, HTML5)
Click here to listen with your own player(launches your MP3 player)

KBOS 010654Z 20004KT 10SM FEW100 BKN180 BKN250 20/15 A3009 RMK AO2 SLP188 T02000150

KBOS Airport Info (Airnav.com)

KBOS Flight Activity (Flightaware)

Listeners: 0 out of 1390 total

Air-to-Air: 122.750
Bridgeport Flight Service: 122.200
CTAF: 122.700
CTAF: 122.800
CTAF: 122.900
CTAF: 123.000
Emergency/Guard: 121.500

MA/NH/RI/CT Area CTAF (Archives)
Newburyport, Massachusetts, United States

Feed Status: UP
Listen in your browser - HTML5 player(in browser, HTML5)
Click here to listen with your own player(launches your MP3 player)

KBOS 010654Z 20004KT 10SM FEW100 BKN180 BKN250 20/15 A3009 RMK AO2 SLP188 T02000150

KBOS Airport Info (Airnav.com)

KBOS Flight Activity (Flightaware)

Listeners: 0 out of 1390 total

Air-to-Air: 122.750
Bridgeport Flight Service: 122.200
CTAF: 122.700
CTAF: 122.800
CTAF: 122.900
CTAF: 123.000
Emergency/Guard: 121.500

MA/NH/RI/CT Area CTAF (Archives)
Newburyport, Massachusetts, United States

Feed Status: UP
Listen in your browser - HTML5 player(in browser, HTML5)
Click here to listen with your own player(launches your MP3 player)

KBOS 010654Z 20004KT 10SM FEW100 BKN180 BKN250 20/15 A3009 RMK AO2 SLP188 T02000150

KBOS Airport Info (Airnav.com)

KBOS Flight Activity (Flightaware)

Listeners: 0 out of 1390 total

Air-to-Air: 122.750
Bridgeport Flight Service: 122.200
CTAF: 122.700
CTAF: 122.800
CTAF: 122.900
CTAF: 123.000
Emergency/Guard: 121.500

2GC CTAF (Archives)
Fayetteville, North Carolina, United States

Feed Status: UP
Listen in your browser - HTML5 player(in browser, HTML5)
Click here to listen with your own player(launches your MP3 player)

KFAY 010653Z AUTO 00000KT 10SM CLR 23/22 A3015 RMK AO2 SLP204 T02330222

KFAY Airport Info (Airnav.com)

KFAY Flight Activity (Flightaware)

Listeners: 0 out of 1390 total

Grays Creek CTAF: 122.900

2NC0 CTAF (Archives)
Burnsville, North Carolina, United States

Feed Status: UP
Listen in your browser - HTML5 player(in browser, HTML5)
Click here to listen with your own player(launches your MP3 player)


Listeners: 0 out of 1390 total

Mountain Air CTAF: 122.725

2O3 CTAF (Archives)
Angwin, California, United States

Feed Status: UP
Listen in your browser - HTML5 player(in browser, HTML5)
Click here to listen with your own player(launches your MP3 player)


Listeners: 0 out of 1390 total

Angwin CTAF: 123.000

39N CTAF (Archives)
Princeton/Rocky Hill, New Jersey, United States

Feed Status: UP
Listen in your browser - HTML5 player(in browser, HTML5)
Click here to listen with your own player(launches your MP3 player)


Listeners: 0 out of 1390 total

Princeton CTAF: 122.725

3CK/KBUU CTAF
Chicago/Lake In The Hills, Illinois, United States

Feed Status: DOWN
Offline since: 2022-06-29 09:43:39 UTC

K3CK Airport Info (Airnav.com)

Lake in the Hills CTAF: 123.050

3M5 CTAF (Archives)
Huntsville, Alabama, United States

Feed Status: UP
Listen in your browser - HTML5 player(in browser, HTML5)
Click here to listen with your own player(launches your MP3 player)


Listeners: 0 out of 1390 total

Moontown CTAF: 122.700

3N6 CTAF (Archives)
Old Bridge, New Jersey, United States

Feed Status: UP
Listen in your browser - HTML5 player(in browser, HTML5)
Click here to listen with your own player(launches your MP3 player)


Listeners: 0 out of 1390 total

Old Bridge CTAF: 123.075

KBLM/N12/3N6/KMJX (Archives)
Old Bridge, New Jersey, United States

Feed Status: UP
Listen in your browser - HTML5 player(in browser, HTML5)
Click here to listen with your own player(launches your MP3 player)

KBLM 010656Z AUTO 22004KT 10SM CLR 21/21 A3013 RMK AO2 SLP203 T02060206

KBLM Airport Info (Airnav.com)

KBLM Flight Activity (Flightaware)

Listeners: 0 out of 1390 total

3N6 Old Bridge CTAF: 123.075
Emergency/Guard: 121.500
Monmouth Clearance: 120.950
Monmouth Clearance: 126.150
Monmouth CTAF: 123.000
N12 Lakewood CTAF: 122.800
Ocean County KMJX CTAF: 122.700

3R9 CTAF (Archives)
Lakeway, Texas, United States

Feed Status: UP
Listen in your browser - HTML5 player(in browser, HTML5)
Click here to listen with your own player(launches your MP3 player)


Listeners: 0 out of 1390 total

Lakeway CTAF: 123.000

3S8 CTAF (Archives)
Grants Pass, Oregon, United States

Feed Status: UP
Listen in your browser - HTML5 player(in browser, HTML5)
Click here to listen with your own player(launches your MP3 player)


Listeners: 0 out of 1390 total

Grants Pass CTAF: 122.800

44N/KMGJ CTAF (Archives)
Millbrook, New York, United States

Feed Status: UP
Listen in your browser - HTML5 player(in browser, HTML5)
Click here to listen with your own player(launches your MP3 player)


Listeners: 0 out of 1390 total

44N Sky Acres CTAF: 122.800
CTAF 122.700: 122.700
CTAF 122.9: 122.900
KMGJ Orange County Clearance: 123.850
KMGJ Orange County CTAF: 122.725

46U AWOS (Archives)
Alpine, Wyoming, United States

Feed Status: UP
Listen in your browser - HTML5 player(in browser, HTML5)
Click here to listen with your own player(launches your MP3 player)


Listeners: 0 out of 1390 total

Alpine AWOS: 119.925

46U CTAF (Archives)
Alpine, Wyoming, United States

Feed Status: UP
Listen in your browser - HTML5 player(in browser, HTML5)
Click here to listen with your own player(launches your MP3 player)


Listeners: 0 out of 1390 total

Alpine CTAF: 122.900

47N CTAF (Archives)
Manville, New Jersey, United States

Feed Status: UP
Listen in your browser - HTML5 player(in browser, HTML5)
Click here to listen with your own player(launches your MP3 player)


Listeners: 0 out of 1390 total

Central Jersey CTAF: 122.700

NY1/4B0 CTAF
South Bethlehem, New York, United States

Feed Status: DOWN
Offline since: 2020-11-21 13:08:40 UTC

Kline Kill CTAF: 122.900

4NY8 CTAF (Archives)
Elmira, New York, United States

Feed Status: UP
Listen in your browser - HTML5 player(in browser, HTML5)
Click here to listen with your own player(launches your MP3 player)

KELM 010653Z AUTO 05003KT 10SM CLR 16/13 A3006 RMK AO2 SLP174 T01560128

KELM Airport Info (Airnav.com)

KELM Flight Activity (Flightaware)

Listeners: 0 out of 1390 total

Harris Gliderport CTAF: 123.300

4S1 CTAF (Archives)
Gold Beach, Oregon, United States

Feed Status: UP
Listen in your browser - HTML5 player(in browser, HTML5)
Click here to listen with your own player(launches your MP3 player)

K4S1 Airport Info (Airnav.com)

K4S1 Flight Activity (Flightaware)

Listeners: 0 out of 1390 total

Gold Beach CTAF: 122.800

54AZ CTAF
Somerton, Arizona, United States

Feed Status: DOWN
Offline since: 2022-07-01 07:12:04 UTC

Somerton CTAF: 123.000

KMTC Area CTAF
Ray, Michigan, United States

Feed Status: DOWN
Offline since: 2021-08-25 06:45:39 UTC

KMTC 010556Z AUTO 20007KT 10SM FEW200 FEW220 20/16 A2993 RMK AO2 SLP136 T02040158 10300 20204 55005

KMTC Airport Info (Airnav.com)

Air to Air: 123.450
Marine City CTAF (76G): 123.000
Port Huron CTAF: 123.050
Ray CTAF: 122.700
Romeo CTAF: 122.800
St Clair CTAF: 122.800
Troy CTAF: 123.050

5A2/5GE1 CTAF (Archives)
Warner Robins, Georgia, United States

Feed Status: UP
Listen in your browser - HTML5 player(in browser, HTML5)
Click here to listen with your own player(launches your MP3 player)


Listeners: 0 out of 1390 total

Warner Robins/Peachtree Landings CTAF: 122.900

5B6/KCQX/KPVC CTAF
Falmouth, Massachusetts, United States

Feed Status: DOWN
Offline since: 2021-11-19 19:34:05 UTC

KHYA 010656Z AUTO 22007KT 10SM CLR 21/17 A3010 RMK AO2 SLP194 T02060167

KHYA Airport Info (Airnav.com)

Falmouth/Chatham/Provincetown CTAF: 122.800

5C1 CTAF (Archives)
San Antonio, Texas, United States

Feed Status: UP
Listen in your browser - HTML5 player(in browser, HTML5)
Click here to listen with your own player(launches your MP3 player)

K5C1 010635Z AUTO 00000KT 10SM CLR 25/20 A3001 RMK AO1

K5C1 Airport Info (Airnav.com)

K5C1 Flight Activity (Flightaware)

Listeners: 0 out of 1390 total

Boerne Stage CTAF: 123.000

5A2/5GE1 CTAF (Archives)
Fort Valley, Georgia, United States

Feed Status: UP
Listen in your browser - HTML5 player(in browser, HTML5)
Click here to listen with your own player(launches your MP3 player)


Listeners: 0 out of 1390 total

Warner Robins/Peachtree Landings CTAF: 122.900

KMTC Area CTAF
St Clair, Michigan, United States

Feed Status: DOWN
Offline since: 2021-08-25 06:45:39 UTC

KMTC 010556Z AUTO 20007KT 10SM FEW200 FEW220 20/16 A2993 RMK AO2 SLP136 T02040158 10300 20204 55005

KMTC Airport Info (Airnav.com)

Air to Air: 123.450
Marine City CTAF (76G): 123.000
Port Huron CTAF: 123.050
Ray CTAF: 122.700
Romeo CTAF: 122.800
St Clair CTAF: 122.800
Troy CTAF: 123.050

MA/NH CTAF 122.8 (Archives)
Stow, Massachusetts, United States

Feed Status: UP
Listen in your browser - HTML5 player(in browser, HTML5)
Click here to listen with your own player(launches your MP3 player)

KMHT 010653Z 35003KT 10SM FEW150 BKN250 18/12 A3007 RMK AO2 SLP191 T01830122 $

KMHT Airport Info (Airnav.com)

KMHT Flight Activity (Flightaware)

Listeners: 0 out of 1390 total

MA/NH Area CTAF: 122.800

MA/NH/RI/CT Area CTAF (Archives)
Stow, Massachusetts, United States

Feed Status: UP
Listen in your browser - HTML5 player(in browser, HTML5)
Click here to listen with your own player(launches your MP3 player)

KBOS 010654Z 20004KT 10SM FEW100 BKN180 BKN250 20/15 A3009 RMK AO2 SLP188 T02000150

KBOS Airport Info (Airnav.com)

KBOS Flight Activity (Flightaware)

Listeners: 0 out of 1390 total

Air-to-Air: 122.750
Bridgeport Flight Service: 122.200
CTAF: 122.700
CTAF: 122.800
CTAF: 122.900
CTAF: 123.000
Emergency/Guard: 121.500

MA/NH/RI/CT Area CTAF (Archives)
Stow, Massachusetts, United States

Feed Status: UP
Listen in your browser - HTML5 player(in browser, HTML5)
Click here to listen with your own player(launches your MP3 player)

KBOS 010654Z 20004KT 10SM FEW100 BKN180 BKN250 20/15 A3009 RMK AO2 SLP188 T02000150

KBOS Airport Info (Airnav.com)

KBOS Flight Activity (Flightaware)

Listeners: 0 out of 1390 total

Air-to-Air: 122.750
Bridgeport Flight Service: 122.200
CTAF: 122.700
CTAF: 122.800
CTAF: 122.900
CTAF: 123.000
Emergency/Guard: 121.500

MA/NH/RI/CT Area CTAF (Archives)
Stow, Massachusetts, United States

Feed Status: UP
Listen in your browser - HTML5 player(in browser, HTML5)
Click here to listen with your own player(launches your MP3 player)

KBOS 010654Z 20004KT 10SM FEW100 BKN180 BKN250 20/15 A3009 RMK AO2 SLP188 T02000150

KBOS Airport Info (Airnav.com)

KBOS Flight Activity (Flightaware)

Listeners: 0 out of 1390 total

Air-to-Air: 122.750
Bridgeport Flight Service: 122.200
CTAF: 122.700
CTAF: 122.800
CTAF: 122.900
CTAF: 123.000
Emergency/Guard: 121.500

KMTC Area CTAF
Marine City, Michigan, United States

Feed Status: DOWN
Offline since: 2021-08-25 06:45:39 UTC

KMTC 010556Z AUTO 20007KT 10SM FEW200 FEW220 20/16 A2993 RMK AO2 SLP136 T02040158 10300 20204 55005

KMTC Airport Info (Airnav.com)

Air to Air: 123.450
Marine City CTAF (76G): 123.000
Port Huron CTAF: 123.050
Ray CTAF: 122.700
Romeo CTAF: 122.800
St Clair CTAF: 122.800
Troy CTAF: 123.050

77S CTAF (Archives)
Creswell, Oregon, United States

Feed Status: UP
Listen in your browser - HTML5 player(in browser, HTML5)
Click here to listen with your own player(launches your MP3 player)


Listeners: 0 out of 1390 total

Creswell CTAF: 122.700

7B2 CTAF (Archives)
Northampton, Massachusetts, United States

Feed Status: UP
Listen in your browser - HTML5 player(in browser, HTML5)
Click here to listen with your own player(launches your MP3 player)


Listeners: 0 out of 1390 total

Northampton CTAF: 122.700

MA/NH CTAF 122.8 (Archives)
Hampton, New Hampshire, United States

Feed Status: UP
Listen in your browser - HTML5 player(in browser, HTML5)
Click here to listen with your own player(launches your MP3 player)

KMHT 010653Z 35003KT 10SM FEW150 BKN250 18/12 A3007 RMK AO2 SLP191 T01830122 $

KMHT Airport Info (Airnav.com)

KMHT Flight Activity (Flightaware)

Listeners: 0 out of 1390 total

MA/NH Area CTAF: 122.800

7FL6 CTAF
Daytona Beach, Florida, United States

Feed Status: DOWN
Offline since: 2022-04-11 02:23:39 UTC

Spruce Creek CTAF/UNICOM: 122.725

7S5 CTAF (Archives)
Independence, Oregon, United States

Feed Status: UP
Listen in your browser - HTML5 player(in browser, HTML5)
Click here to listen with your own player(launches your MP3 player)


Listeners: 0 out of 1390 total

Independence CTAF/UNICOM: 122.975

A20 CTAF
Bullhead City, Arizona, United States

Feed Status: DOWN
Offline since: 2022-06-18 16:17:04 UTC

Sun Valley CTAF: 122.975

B18/Lake Area CTAF (Archives)
Alton Bay, New Hampshire, United States

Feed Status: UP
Listen in your browser - HTML5 player(in browser, HTML5)
Click here to listen with your own player(launches your MP3 player)

KLCI 010656Z AUTO 00000KT 9SM CLR 14/13 A3010 RMK AO2 SLP191 T01390133

KLCI Airport Info (Airnav.com)

KLCI Flight Activity (Flightaware)

Listeners: 0 out of 1390 total

NH Area CTAF (Lakes Region): 122.800

C29 CTAF (Archives)
Middleton, Wisconsin, United States

Feed Status: UP
Listen in your browser - HTML5 player(in browser, HTML5)
Click here to listen with your own player(launches your MP3 player)

KC29 010655Z AUTO 24006KT 10SM SCT060 OVC070 24/16 A2991 RMK AO1 T02430159

KC29 Airport Info (Airnav.com)

KC29 Flight Activity (Flightaware)

Listeners: 0 out of 1390 total

Morey CTAF: 123.000

KMTC Area CTAF
Romeo, Michigan, United States

Feed Status: DOWN
Offline since: 2021-08-25 06:45:39 UTC

KMTC 010556Z AUTO 20007KT 10SM FEW200 FEW220 20/16 A2993 RMK AO2 SLP136 T02040158 10300 20204 55005

KMTC Airport Info (Airnav.com)

Air to Air: 123.450
Marine City CTAF (76G): 123.000
Port Huron CTAF: 123.050
Ray CTAF: 122.700
Romeo CTAF: 122.800
St Clair CTAF: 122.800
Troy CTAF: 123.050

KGIF/F57 CTAF (Archives)
Winter Haven, Florida, United States

Feed Status: UP
Listen in your browser - HTML5 player(in browser, HTML5)
Click here to listen with your own player(launches your MP3 player)

KGIF 010653Z AUTO 15004KT 10SM CLR 26/22 A3010 RMK AO2 SLP189 T02560217

KGIF Airport Info (Airnav.com)

KGIF Flight Activity (Flightaware)

Listeners: 0 out of 1390 total

Winter Haven CTAF: 123.050

F70 CTAF (Archives)
Murrieta/Temecula, California, United States

Feed Status: UP
Listen in your browser - HTML5 player(in browser, HTML5)
Click here to listen with your own player(launches your MP3 player)

KF70 010655Z AUTO 00000KT 10SM CLR 20/14 A3001 RMK AO2

KF70 Airport Info (Airnav.com)

KF70 Flight Activity (Flightaware)

Listeners: 0 out of 1390 total

French Valley CTAF: 122.800

FA40 CTAF (Archives)
New Port Richey, Florida, United States

Feed Status: UP
Listen in your browser - HTML5 player(in browser, HTML5)
Click here to listen with your own player(launches your MP3 player)


Listeners: 0 out of 1390 total

Hidden Lake CTAF: 123.000

I35 CTAF/ZID
Harlan, Kentucky, United States

Feed Status: DOWN
Offline since: 2022-06-15 23:46:05 UTC

KI35 010635Z AUTO 00000KT 10SM CLR 20/20 A3017 RMK AO2 T02010201

KI35 Airport Info (Airnav.com)

Harlan CTAF: 122.800
Indy Center (Sector 21 London Low): 121.325
Indy Center (Sector 21 London Low): 124.625
Indy Center (Sector 25 AZQ Low): 126.575

I40 AWOS (Archives)
Coshocton, Ohio, United States

Feed Status: UP
Listen in your browser - HTML5 player(in browser, HTML5)
Click here to listen with your own player(launches your MP3 player)


Listeners: 0 out of 1390 total

Coshocton AWOS: 118.875

I40 CTAF (Archives)
Coshocton, Ohio, United States

Feed Status: UP
Listen in your browser - HTML5 player(in browser, HTML5)
Click here to listen with your own player(launches your MP3 player)


Listeners: 0 out of 1390 total

Coshocton CTAF: 123.000

K1H0 CTAF/Unicom (Archives)
St. Louis, Missouri, United States

Feed Status: UP
Listen in your browser - HTML5 player(in browser, HTML5)
Click here to listen with your own player(launches your MP3 player)

K1H0 Airport Info (Airnav.com)

K1H0 Flight Activity (Flightaware)

Listeners: 0 out of 1390 total

Creve Coeur CTAF: 122.800

KIXD Ground/Tower/K34 (Archives)
Gardner, Kansas, United States

Feed Status: UP
Listen in your browser - HTML5 player(in browser, HTML5)
Click here to listen with your own player(launches your MP3 player)

KIXD 010653Z AUTO 16003KT 10SM CLR 23/16 A2998 RMK AO2 SLP140 T02280156

KIXD Airport Info (Airnav.com)

KIXD Flight Activity (Flightaware)

Listeners: 0 out of 1390 total

K34 CTAF: 122.800
New Century Ground: 124.300
New Century Tower: 133.000

KAAO CTAF/KBEC Twr (Archives)
Wichita, Kansas, United States

Feed Status: UP
Listen in your browser - HTML5 player(in browser, HTML5)
Click here to listen with your own player(launches your MP3 player)

KAAO 010654Z AUTO 17006KT 10SM CLR 23/17 A2997 RMK AO2 SLP133 T02280172

KAAO Airport Info (Airnav.com)

KAAO Flight Activity (Flightaware)

Listeners: 0 out of 1390 total

Beech Tower: 126.800
Jabara CTAF: 122.700

KACK App/Dep (Archives)
Nantucket, Massachusetts, United States

Feed Status: UP
Listen in your browser - HTML5 player(in browser, HTML5)
Click here to listen with your own player(launches your MP3 player)

KACK 010653Z AUTO 21006KT 10SM CLR 19/18 A3013 RMK AO2 SLP201 T01890178

KACK Airport Info (Airnav.com)

KACK Flight Activity (Flightaware)

Listeners: 1 out of 1390 total

Cape Approach (Nantucket Sector): 126.100

KACK ATIS (Archives)
Nantucket, Massachusetts, United States

Feed Status: UP
Listen in your browser - HTML5 player(in browser, HTML5)
Click here to listen with your own player(launches your MP3 player)

KACK 010653Z AUTO 21006KT 10SM CLR 19/18 A3013 RMK AO2 SLP201 T01890178

KACK Airport Info (Airnav.com)

KACK Flight Activity (Flightaware)

Listeners: 0 out of 1390 total

Nantucket ATIS: 127.500

KACK Ground (Archives)
Nantucket, Massachusetts, United States

Feed Status: UP
Listen in your browser - HTML5 player(in browser, HTML5)
Click here to listen with your own player(launches your MP3 player)

KACK 010653Z AUTO 21006KT 10SM CLR 19/18 A3013 RMK AO2 SLP201 T01890178

KACK Airport Info (Airnav.com)

KACK Flight Activity (Flightaware)

Listeners: 0 out of 1390 total

Nantucket Clearance Delivery: 119.375
Nantucket Ground: 132.500

KACK Tower (Archives)
Nantucket, Massachusetts, United States

Feed Status: UP
Listen in your browser - HTML5 player(in browser, HTML5)
Click here to listen with your own player(launches your MP3 player)

KACK 010653Z AUTO 21006KT 10SM CLR 19/18 A3013 RMK AO2 SLP201 T01890178

KACK Airport Info (Airnav.com)

KACK Flight Activity (Flightaware)

Listeners: 0 out of 1390 total

Nantucket Tower: 118.300

KADS ATIS (Archives)
Dallas, Texas, United States

Feed Status: UP
Listen in your browser - HTML5 player(in browser, HTML5)
Click here to listen with your own player(launches your MP3 player)

KADS 010635Z AUTO 16010KT 10SM CLR 27/20 A3000 RMK AO2 T02730196

KADS Airport Info (Airnav.com)

KADS Flight Activity (Flightaware)

Listeners: 0 out of 1390 total

Addison ATIS: 133.400
Addison ATIS/AWOS: 133.400

KADS Ground (Archives)
Dallas, Texas, United States

Feed Status: UP
Listen in your browser - HTML5 player(in browser, HTML5)
Click here to listen with your own player(launches your MP3 player)

KADS 010635Z AUTO 16010KT 10SM CLR 27/20 A3000 RMK AO2 T02730196

KADS Airport Info (Airnav.com)

KADS Flight Activity (Flightaware)

Listeners: 0 out of 1390 total

Addison Ground: 121.600

KADS Tower (Archives)
Dallas, Texas, United States

Feed Status: UP
Listen in your browser - HTML5 player(in browser, HTML5)
Click here to listen with your own player(launches your MP3 player)

KADS 010635Z AUTO 16010KT 10SM CLR 27/20 A3000 RMK AO2 T02730196

KADS Airport Info (Airnav.com)

KADS Flight Activity (Flightaware)

Listeners: 0 out of 1390 total

Addison Tower: 126.000

KDAA/KADW Tower (Archives)
Camp Springs, Maryland, United States

Feed Status: UP
Listen in your browser - HTML5 player(in browser, HTML5)
Click here to listen with your own player(launches your MP3 player)

KDAA 010556Z AUTO 00000KT 10SM CLR 21/21 A3011 RMK AO2 SLP198 T02100210 10273 20210 57006 $

KDAA Airport Info (Airnav.com)

KDAA Flight Activity (Flightaware)

Listeners: 0 out of 1390 total

Andrews Tower: 118.400
Andrews Tower: 349.000
Davison Tower: 241.000
Davison Tower: 126.300
Davison Tower: 229.400

KAEG Twr/App (Archives)
Albuquerque, New Mexico, United States

Feed Status: UP
Listen in your browser - HTML5 player(in browser, HTML5)
Click here to listen with your own player(launches your MP3 player)

KABQ 010652Z 29006KT 10SM SCT130 BKN220 23/11 A3017 RMK AO2 SLP124 T02280106 403390200

KABQ Airport Info (Airnav.com)

KABQ Flight Activity (Flightaware)

Listeners: 0 out of 1390 total

Double Eagle II Ground: 121.625
Double Eagle II Tower: 120.150
Double Eagle II Tower Clearance: 124.800

MA/NH CTAF 122.8 (Archives)
Jaffrey, New Hampshire, United States

Feed Status: UP
Listen in your browser - HTML5 player(in browser, HTML5)
Click here to listen with your own player(launches your MP3 player)

KMHT 010653Z 35003KT 10SM FEW150 BKN250 18/12 A3007 RMK AO2 SLP191 T01830122 $

KMHT Airport Info (Airnav.com)

KMHT Flight Activity (Flightaware)

Listeners: 0 out of 1390 total

MA/NH Area CTAF: 122.800

KAFW ATIS (Archives)
Fort Worth, Texas, United States

Feed Status: UP
Listen in your browser - HTML5 player(in browser, HTML5)
Click here to listen with your own player(launches your MP3 player)

KAFW 010653Z 16011KT 10SM CLR 28/20 A2996 RMK AO2 SLP126 T02830200

KAFW Airport Info (Airnav.com)

KAFW Flight Activity (Flightaware)

Listeners: 0 out of 1390 total

Alliance ATIS: 126.925

KAFW Regional App (North) (Archives)
Fort Worth, Texas, United States

Feed Status: UP
Listen in your browser - HTML5 player(in browser, HTML5)
Click here to listen with your own player(launches your MP3 player)

KAFW 010653Z 16011KT 10SM CLR 28/20 A2996 RMK AO2 SLP126 T02830200

KAFW Airport Info (Airnav.com)

KAFW Flight Activity (Flightaware)

Listeners: 0 out of 1390 total

Regional Approach (North): 118.100

KAFW Tower/Heli (Archives)
Fort Worth, Texas, United States

Feed Status: UP
Listen in your browser - HTML5 player(in browser, HTML5)
Click here to listen with your own player(launches your MP3 player)

KAFW 010653Z 16011KT 10SM CLR 28/20 A2996 RMK AO2 SLP126 T02830200

KAFW Airport Info (Airnav.com)

KAFW Flight Activity (Flightaware)

Listeners: 0 out of 1390 total

Alliance Tower: 135.150
Alliance Tower (Helicopters): 120.850

KAFW Tower/Heli/App (Archives)
Fort Worth, Texas, United States

Feed Status: UP
Listen in your browser - HTML5 player(in browser, HTML5)
Click here to listen with your own player(launches your MP3 player)

KAFW 010653Z 16011KT 10SM CLR 28/20 A2996 RMK AO2 SLP126 T02830200

KAFW Airport Info (Airnav.com)

KAFW Flight Activity (Flightaware)

Listeners: 0 out of 1390 total

Alliance Tower: 135.150
Alliance Tower (Helicopters): 120.850
Regional Approach (North): 118.100

KAHN Tower (Archives)
Athens, Georgia, United States

Feed Status: UP
Listen in your browser - HTML5 player(in browser, HTML5)
Click here to listen with your own player(launches your MP3 player)

KAHN 010651Z AUTO 08003KT 10SM CLR 23/21 A3015 RMK AO2 SLP200 T02280206

KAHN Airport Info (Airnav.com)

KAHN Flight Activity (Flightaware)

Listeners: 0 out of 1390 total

Athens Tower: 126.300

KAMW CTAF (Archives)
Ames, Iowa, United States

Feed Status: UP
Listen in your browser - HTML5 player(in browser, HTML5)
Click here to listen with your own player(launches your MP3 player)

KAMW 010653Z AUTO 35007KT 10SM CLR 24/19 A2995 RMK AO2 SLP130 T02440194

KAMW Airport Info (Airnav.com)

KAMW Flight Activity (Flightaware)

Listeners: 0 out of 1390 total

Ames CTAF: 122.700

KANE Twr/CTAF (Archives)
Minneapolis, Minnesota, United States

Feed Status: UP
Listen in your browser - HTML5 player(in browser, HTML5)
Click here to listen with your own player(launches your MP3 player)

KANE 010655Z AUTO 00000KT 10SM CLR 19/12 A2997 RMK AO2

KANE Airport Info (Airnav.com)

KANE Flight Activity (Flightaware)

Listeners: 0 out of 1390 total

Anoka Tower/CTAF: 132.400

KANK CTAF (Archives)
Salida, Colorado, United States

Feed Status: UP
Listen in your browser - HTML5 player(in browser, HTML5)
Click here to listen with your own player(launches your MP3 player)

KANK 010655Z AUTO 25004KT 10SM OVC085 14/12 A3045 RMK AO1 T01350122

KANK Airport Info (Airnav.com)

KANK Flight Activity (Flightaware)

Listeners: 0 out of 1390 total

Salida CTAF: 122.700

KAPA App/Dep (Archives)
Denver, Colorado, United States

Feed Status: UP
Listen in your browser - HTML5 player(in browser, HTML5)
Click here to listen with your own player(launches your MP3 player)

KAPA 010653Z 00000KT 10SM SCT100 14/09 A3028 RMK AO2 SLP202 T01440094 402720133

KAPA Airport Info (Airnav.com)

KAPA Flight Activity (Flightaware)

Listeners: 0 out of 1390 total

Denver Approach/Departure: 132.750

KAPA Del/Gnd (Archives)
Denver, Colorado, United States

Feed Status: UP
Listen in your browser - HTML5 player(in browser, HTML5)
Click here to listen with your own player(launches your MP3 player)

KAPA 010653Z 00000KT 10SM SCT100 14/09 A3028 RMK AO2 SLP202 T01440094 402720133

KAPA Airport Info (Airnav.com)

KAPA Flight Activity (Flightaware)

Listeners: 0 out of 1390 total

Centennial Clearance Delivery: 128.600
Centennial Ground: 121.800

KAPA Tower (Primary) (Archives)
Denver, Colorado, United States

Feed Status: UP
Listen in your browser - HTML5 player(in browser, HTML5)
Click here to listen with your own player(launches your MP3 player)

KAPA 010653Z 00000KT 10SM SCT100 14/09 A3028 RMK AO2 SLP202 T01440094 402720133

KAPA Airport Info (Airnav.com)

KAPA Flight Activity (Flightaware)

Listeners: 0 out of 1390 total

Centennial Tower: 118.900

KAPA Tower (Secondary #1) (Archives)
Denver, Colorado, United States

Feed Status: UP
Listen in your browser - HTML5 player(in browser, HTML5)
Click here to listen with your own player(launches your MP3 player)

KAPA 010653Z 00000KT 10SM SCT100 14/09 A3028 RMK AO2 SLP202 T01440094 402720133

KAPA Airport Info (Airnav.com)

KAPA Flight Activity (Flightaware)

Listeners: 0 out of 1390 total

Centennial Tower (Rwy 17R/35L or Rwy 28): 123.700

KAPA Tower (Secondary #2) (Archives)
Denver, Colorado, United States

Feed Status: UP
Listen in your browser - HTML5 player(in browser, HTML5)
Click here to listen with your own player(launches your MP3 player)

KAPA 010653Z 00000KT 10SM SCT100 14/09 A3028 RMK AO2 SLP202 T01440094 402720133

KAPA Airport Info (Airnav.com)

KAPA Flight Activity (Flightaware)

Listeners: 0 out of 1390 total

Centennial Tower (Rwy 17R/35L or Rwy 28): 124.600

KAPC Del/Gnd (Archives)
Napa, California, United States

Feed Status: UP
Listen in your browser - HTML5 player(in browser, HTML5)
Click here to listen with your own player(launches your MP3 player)

KAPC 010654Z AUTO 26007KT 10SM OVC010 13/10 A3000 RMK AO2 SLP149 T01280100

KAPC Airport Info (Airnav.com)

KAPC Flight Activity (Flightaware)

Listeners: 0 out of 1390 total

Napa Clearance Delivery: 127.850
Napa Ground: 121.700

KAPC Tower (Archives)
Napa, California, United States

Feed Status: UP
Listen in your browser - HTML5 player(in browser, HTML5)
Click here to listen with your own player(launches your MP3 player)

KAPC 010654Z AUTO 26007KT 10SM OVC010 13/10 A3000 RMK AO2 SLP149 T01280100

KAPC Airport Info (Airnav.com)

KAPC Flight Activity (Flightaware)

Listeners: 0 out of 1390 total

Napa Tower: 118.700

KAPF ATIS (Archives)
Naples, Florida, United States

Feed Status: UP
Listen in your browser - HTML5 player(in browser, HTML5)
Click here to listen with your own player(launches your MP3 player)

KAPF 010653Z AUTO 07005KT 10SM CLR 24/22 A3007 RMK AO2 SLP180 T02440222

KAPF Airport Info (Airnav.com)

KAPF Flight Activity (Flightaware)

Listeners: 0 out of 1390 total

Naples ATIS: 134.225

KAPF Del/Gnd (Archives)
Naples, Florida, United States

Feed Status: UP
Listen in your browser - HTML5 player(in browser, HTML5)
Click here to listen with your own player(launches your MP3 player)

KAPF 010653Z AUTO 07005KT 10SM CLR 24/22 A3007 RMK AO2 SLP180 T02440222

KAPF Airport Info (Airnav.com)

KAPF Flight Activity (Flightaware)

Listeners: 0 out of 1390 total

Naples Clearance Delivery: 118.000
Naples Ground: 121.600

KAPF Del/Gnd/Twr (Archives)
Naples, Florida, United States

Feed Status: UP
Listen in your browser - HTML5 player(in browser, HTML5)
Click here to listen with your own player(launches your MP3 player)

KAPF 010653Z AUTO 07005KT 10SM CLR 24/22 A3007 RMK AO2 SLP180 T02440222

KAPF Airport Info (Airnav.com)

KAPF Flight Activity (Flightaware)

Listeners: 1 out of 1390 total

Naples Clearance Delivery: 118.000
Naples Ground: 121.600
Naples Tower: 128.500

KAPF Ft Myers App/Dep (Archives)
Naples, Florida, United States

Feed Status: UP
Listen in your browser - HTML5 player(in browser, HTML5)
Click here to listen with your own player(launches your MP3 player)

KAPF 010653Z AUTO 07005KT 10SM CLR 24/22 A3007 RMK AO2 SLP180 T02440222

KAPF Airport Info (Airnav.com)

KAPF Flight Activity (Flightaware)

Listeners: 0 out of 1390 total

Fort Myers Approach/Departure: 124.125
Fort Myers Approach/Departure: 126.800

KAPF Tower (Archives)
Naples, Florida, United States

Feed Status: UP
Listen in your browser - HTML5 player(in browser, HTML5)
Click here to listen with your own player(launches your MP3 player)

KAPF 010653Z AUTO 07005KT 10SM CLR 24/22 A3007 RMK AO2 SLP180 T02440222

KAPF Airport Info (Airnav.com)

KAPF Flight Activity (Flightaware)

Listeners: 0 out of 1390 total

Naples Tower: 128.500

KARB ATIS (Archives)
Ann Arbor, Michigan, United States

Feed Status: UP
Listen in your browser - HTML5 player(in browser, HTML5)
Click here to listen with your own player(launches your MP3 player)

KARB 010653Z AUTO 29004KT 10SM CLR 17/13 A2996 RMK AO2 SLP140 T01670128

KARB Airport Info (Airnav.com)

KARB Flight Activity (Flightaware)

Listeners: 0 out of 1390 total

Ann Arbor ATIS: 134.550

KARB Gnd/Twr (Archives)
Ann Arbor, Michigan, United States

Feed Status: UP
Listen in your browser - HTML5 player(in browser, HTML5)
Click here to listen with your own player(launches your MP3 player)

KARB 010653Z AUTO 29004KT 10SM CLR 17/13 A2996 RMK AO2 SLP140 T01670128

KARB Airport Info (Airnav.com)

KARB Flight Activity (Flightaware)

Listeners: 0 out of 1390 total

Ann Arbor Ground: 121.600
Ann Arbor Tower: 120.300

KARB Ground (Archives)
Ann Arbor, Michigan, United States

Feed Status: UP
Listen in your browser - HTML5 player(in browser, HTML5)
Click here to listen with your own player(launches your MP3 player)

KARB 010653Z AUTO 29004KT 10SM CLR 17/13 A2996 RMK AO2 SLP140 T01670128

KARB Airport Info (Airnav.com)

KARB Flight Activity (Flightaware)

Listeners: 0 out of 1390 total

Ann Arbor Ground: 121.600

KARB Tower
Ann Arbor, Michigan, United States

Feed Status: DOWN
Offline since: 2022-07-01 07:12:05 UTC

KARB 010653Z AUTO 29004KT 10SM CLR 17/13 A2996 RMK AO2 SLP140 T01670128

KARB Airport Info (Airnav.com)

Ann Arbor Tower: 120.300

KARG CTAF/Memphis Center (Archives)
Walnut Ridge, Arkansas, United States

Feed Status: UP
Listen in your browser - HTML5 player(in browser, HTML5)
Click here to listen with your own player(launches your MP3 player)

KARG 010656Z AUTO 19006KT 10SM CLR 25/22 A3002 RMK AO2 SLP165 T02500222

KARG Airport Info (Airnav.com)

KARG Flight Activity (Flightaware)

Listeners: 2 out of 1390 total

Memphis Center (Sector 04 Jonesboro Low): 120.075
Memphis Center (Sector 04 Jonesboro Low): 289.400
Memphis Center (Sector 27 Jonesboro High): 132.375
Memphis Center (Sector 27 Jonesboro High): 257.600
Memphis Center (Sector 35 Walnut Ridge Ultra-High): 135.225
Memphis Center (Sector 35 Walnut Ridge Ultra-High): 322.300
Walnut Ridge CTAF: 122.800

KARR Tower (Archives)
Chicago/Aurora, Illinois, United States

Feed Status: UP
Listen in your browser - HTML5 player(in browser, HTML5)
Click here to listen with your own player(launches your MP3 player)

KARR 010652Z AUTO 20006KT 10SM CLR 22/16 A2993 RMK AO2 SLP130 T02170156

KARR Airport Info (Airnav.com)

KARR Flight Activity (Flightaware)

Listeners: 0 out of 1390 total

Aurora Tower: 120.600

KASE ATIS (Archives)
Aspen, Colorado, United States

Feed Status: UP
Listen in your browser - HTML5 player(in browser, HTML5)
Click here to listen with your own player(launches your MP3 player)

KASE 010653Z AUTO 11003KT 10SM BKN016 BKN045 OVC100 11/09 A3043 RMK AO2 RAE44 SLP208 P0019 T01110089 401780100

KASE Airport Info (Airnav.com)

KASE Flight Activity (Flightaware)

Listeners: 0 out of 1390 total

Aspen ATIS: 120.400

KASE Gnd/Twr/App/Center (Archives)
Aspen, Colorado, United States

Feed Status: UP
Listen in your browser - HTML5 player(in browser, HTML5)
Click here to listen with your own player(launches your MP3 player)

KASE 010653Z AUTO 11003KT 10SM BKN016 BKN045 OVC100 11/09 A3043 RMK AO2 RAE44 SLP208 P0019 T01110089 401780100

KASE Airport Info (Airnav.com)

KASE Flight Activity (Flightaware)

Listeners: 0 out of 1390 total

Aspen Approach/Departure: 123.800
Aspen Ground: 121.900
Aspen Tower/CTAF: 118.850
Denver Center (Sector 26 POWDR Low): 119.850

KASE Ground/Tower (Archives)
Aspen, Colorado, United States

Feed Status: UP
Listen in your browser - HTML5 player(in browser, HTML5)
Click here to listen with your own player(launches your MP3 player)

KASE 010653Z AUTO 11003KT 10SM BKN016 BKN045 OVC100 11/09 A3043 RMK AO2 RAE44 SLP208 P0019 T01110089 401780100

KASE Airport Info (Airnav.com)

KASE Flight Activity (Flightaware)

Listeners: 0 out of 1390 total

Aspen Ground: 121.900
Aspen Tower/CTAF: 118.850

KASE Tower (Archives)
Aspen, Colorado, United States

Feed Status: UP
Listen in your browser - HTML5 player(in browser, HTML5)
Click here to listen with your own player(launches your MP3 player)

KASE 010653Z AUTO 11003KT 10SM BKN016 BKN045 OVC100 11/09 A3043 RMK AO2 RAE44 SLP208 P0019 T01110089 401780100

KASE Airport Info (Airnav.com)

KASE Flight Activity (Flightaware)

Listeners: 0 out of 1390 total

Aspen Tower/CTAF: 118.850

KASG App/Dep (Archives)
Springdale, Arkansas, United States

Feed Status: UP
Listen in your browser - HTML5 player(in browser, HTML5)
Click here to listen with your own player(launches your MP3 player)



KASG Airport Info (Airnav.com)

KASG Flight Activity (Flightaware)

Listeners: 0 out of 1390 total

Razorback Approach/Departure: 126.600

KASG Gnd/Twr (Archives)
Springdale, Arkansas, United States

Feed Status: UP
Listen in your browser - HTML5 player(in browser, HTML5)
Click here to listen with your own player(launches your MP3 player)



KASG Airport Info (Airnav.com)

KASG Flight Activity (Flightaware)

Listeners: 0 out of 1390 total

Springdale Ground: 121.600
Springdale Tower: 118.200

KASG Gnd/Twr/App (Archives)
Springdale, Arkansas, United States

Feed Status: UP
Listen in your browser - HTML5 player(in browser, HTML5)
Click here to listen with your own player(launches your MP3 player)



KASG Airport Info (Airnav.com)

KASG Flight Activity (Flightaware)

Listeners: 0 out of 1390 total

Razorback Approach/Departure: 126.600
Springdale Ground: 121.600
Springdale Tower: 118.200

KASH ATIS #1 (Archives)
Nashua, New Hampshire, United States

Feed Status: UP
Listen in your browser - HTML5 player(in browser, HTML5)
Click here to listen with your own player(launches your MP3 player)

KASH 010656Z AUTO 00000KT 10SM CLR 16/15 A3009 RMK AO2 SLP191 T01560150 $

KASH Airport Info (Airnav.com)

KASH Flight Activity (Flightaware)

Listeners: 0 out of 1390 total

Nashua ATIS: 125.100

KASH ATIS #2 (Archives)
Nashua, New Hampshire, United States

Feed Status: UP
Listen in your browser - HTML5 player(in browser, HTML5)
Click here to listen with your own player(launches your MP3 player)

KASH 010656Z AUTO 00000KT 10SM CLR 16/15 A3009 RMK AO2 SLP191 T01560150 $

KASH Airport Info (Airnav.com)

KASH Flight Activity (Flightaware)

Listeners: 0 out of 1390 total

Nashua ATIS: 125.100

KASH Gnd/Twr/FBO #1 (Archives)
Nashua, New Hampshire, United States

Feed Status: UP
Listen in your browser - HTML5 player(in browser, HTML5)
Click here to listen with your own player(launches your MP3 player)

KASH 010656Z AUTO 00000KT 10SM CLR 16/15 A3009 RMK AO2 SLP191 T01560150 $

KASH Airport Info (Airnav.com)

KASH Flight Activity (Flightaware)

Listeners: 0 out of 1390 total

Infinity Aviation: 129.750
Nashua Ground: 121.800
Nashua Tower: 133.200

KASH Gnd/Twr/FBO #2 (Archives)
Nashua, New Hampshire, United States

Feed Status: UP
Listen in your browser - HTML5 player(in browser, HTML5)
Click here to listen with your own player(launches your MP3 player)

KASH 010656Z AUTO 00000KT 10SM CLR 16/15 A3009 RMK AO2 SLP191 T01560150 $

KASH Airport Info (Airnav.com)

KASH Flight Activity (Flightaware)

Listeners: 0 out of 1390 total

Nashua Ground: 121.800
Nashua Tower: 133.200

KASH Ground/FBO (Archives)
Nashua, New Hampshire, United States

Feed Status: UP
Listen in your browser - HTML5 player(in browser, HTML5)
Click here to listen with your own player(launches your MP3 player)

KASH 010656Z AUTO 00000KT 10SM CLR 16/15 A3009 RMK AO2 SLP191 T01560150 $

KASH Airport Info (Airnav.com)

KASH Flight Activity (Flightaware)

Listeners: 0 out of 1390 total

Infinity Aviation: 129.750
Nashua Ground: 121.800

KASH Tower (Archives)
Nashua, New Hampshire, United States

Feed Status: UP
Listen in your browser - HTML5 player(in browser, HTML5)
Click here to listen with your own player(launches your MP3 player)

KASH 010656Z AUTO 00000KT 10SM CLR 16/15 A3009 RMK AO2 SLP191 T01560150 $

KASH Airport Info (Airnav.com)

KASH Flight Activity (Flightaware)

Listeners: 0 out of 1390 total

Nashua Tower: 133.200

Atlanta Approach (NW Satellite) (Archives)
Atlanta, Georgia, United States

Feed Status: UP
Listen in your browser - HTML5 player(in browser, HTML5)
Click here to listen with your own player(launches your MP3 player)

KRYY 010650Z AUTO 00000KT 10SM BKN033 OVC050 24/21 A3015 RMK AO2 SLP198 T02390206 $

KRYY Airport Info (Airnav.com)

KRYY Flight Activity (Flightaware)

Listeners: 0 out of 1390 total

Atlanta Approach (North Satellite): 121.000

KATW Tower (Archives)
Appleton, Wisconsin, United States

Feed Status: UP
Listen in your browser - HTML5 player(in browser, HTML5)
Click here to listen with your own player(launches your MP3 player)

KATW 010655Z AUTO 26007KT 10SM CLR 21/16 A2985 RMK AO2

KATW Airport Info (Airnav.com)

KATW Flight Activity (Flightaware)

Listeners: 0 out of 1390 total

Appleton Tower: 119.600

KAUG CTAF/FSS (Archives)
Augusta, Maine, United States

Feed Status: UP
Listen in your browser - HTML5 player(in browser, HTML5)
Click here to listen with your own player(launches your MP3 player)

KAUG 010653Z AUTO 00000KT 10SM FEW090 BKN110 16/11 A3009 RMK AO2 SLP189 T01610111

KAUG Airport Info (Airnav.com)

KAUG Flight Activity (Flightaware)

Listeners: 0 out of 1390 total

Augusta CTAF/UNICOM: 123.000
Flight Service: 122.200

NORCAL Approach (Elk Horn)
Auburn, California, United States

Feed Status: DOWN
Offline since: 2022-04-02 04:57:39 UTC

KAUN 010655Z AUTO 10006KT 10SM CLR 19/09 A2998 RMK A01

KAUN Airport Info (Airnav.com)

NORCAL Approach (Elk Horn Sector): 125.100

NORCAL Approach (Expo)
Auburn, California, United States

Feed Status: DOWN
Offline since: 2020-08-14 20:00:39 UTC

KAUN 010655Z AUTO 10006KT 10SM CLR 19/09 A2998 RMK A01

KAUN Airport Info (Airnav.com)

NORCAL Approach (EXPO Sector): 127.400

KAUW CTAF (Air Race Classic)
Wausau, Wisconsin, United States

Feed Status: DOWN
Offline since: 2019-06-24 16:01:03 UTC

Wausau CTAF: 122.700

KAVO CTAF (Archives)
Avon Park, Florida, United States

Feed Status: UP
Listen in your browser - HTML5 player(in browser, HTML5)
Click here to listen with your own player(launches your MP3 player)

KAVO Airport Info (Airnav.com)

KAVO Flight Activity (Flightaware)

Listeners: 0 out of 1390 total

Avon Park CTAF: 122.800

KAVP Gnd/Twr/App (Archives)
Wilkes-Barre/Scranton, Pennsylvania, United States

Feed Status: UP
Listen in your browser - HTML5 player(in browser, HTML5)
Click here to listen with your own player(launches your MP3 player)

KAVP 010654Z 16003KT 10SM CLR 20/13 A3011 RMK AO2 SLP188 T02000133

KAVP Airport Info (Airnav.com)

KAVP Flight Activity (Flightaware)

Listeners: 0 out of 1390 total

Wilkes-Barre Approach: 120.950
Wilkes-Barre Approach: 126.300
Wilkes-Barre Ground: 121.900
Wilkes-Barre Tower: 120.100

Arlington Fly-In Radio
Arlington, Washington, United States

Feed Status: DOWN
Offline since: 2019-08-18 20:46:39 UTC

KAWO 010656Z AUTO 01004KT 10SM CLR 13/09 A3009 RMK AO2 SLP192 T01280094

KAWO Airport Info (Airnav.com)

Arlington Fly-In Radio: 89.9

KAWO Arlington Fly-In ATC
Arlington, Washington, United States

Feed Status: DOWN
Offline since: 2019-08-18 20:46:39 UTC

KAWO 010656Z AUTO 01004KT 10SM CLR 13/09 A3009 RMK AO2 SLP192 T01280094

KAWO Airport Info (Airnav.com)

Arlington CTAF: 122.725
Arlington Tower (Air Show): 127.200

KAWO CTAF/Clearance (Archives)
Arlington, Washington, United States

Feed Status: UP
Listen in your browser - HTML5 player(in browser, HTML5)
Click here to listen with your own player(launches your MP3 player)

KAWO 010656Z AUTO 01004KT 10SM CLR 13/09 A3009 RMK AO2 SLP192 T01280094

KAWO Airport Info (Airnav.com)

KAWO Flight Activity (Flightaware)

Listeners: 0 out of 1390 total

Arlington Clearance Delivery (Seattle): 121.725
Arlington CTAF: 122.725

KBTL/KAZO Gnd/Twr/App (Archives)
Kalamazoo, Michigan, United States

Feed Status: UP
Listen in your browser - HTML5 player(in browser, HTML5)
Click here to listen with your own player(launches your MP3 player)

KBTL Airport Info (Airnav.com)

KBTL Flight Activity (Flightaware)

Listeners: 1 out of 1390 total

Battle Creek Ground: 121.700
Battle Creek Tower: 126.825
Kalamazoo Approach/Departure: 119.200
Kalamazoo Ground: 121.900
Kalamazoo Tower: 118.300

KBAF ATIS (Archives)
Westfield/Springfield, Massachusetts, United States

Feed Status: UP
Listen in your browser - HTML5 player(in browser, HTML5)
Click here to listen with your own player(launches your MP3 player)



KBAF Airport Info (Airnav.com)

KBAF Flight Activity (Flightaware)

Listeners: 0 out of 1390 total

Westfield ATIS: 127.100

KBAF Ground (Archives)
Westfield/Springfield, Massachusetts, United States

Feed Status: UP
Listen in your browser - HTML5 player(in browser, HTML5)
Click here to listen with your own player(launches your MP3 player)



KBAF Airport Info (Airnav.com)

KBAF Flight Activity (Flightaware)

Listeners: 0 out of 1390 total

Emergency/Guard: 121.500
Emergency/Guard: 243.000
NG Ops: 123.050
NG Ops: 309.000
Westfield Ground: 121.700
Westfield Ground: 289.400

KBAF Ground/Tower (Archives)
Westfield/Springfield, Massachusetts, United States

Feed Status: UP
Listen in your browser - HTML5 player(in browser, HTML5)
Click here to listen with your own player(launches your MP3 player)



KBAF Airport Info (Airnav.com)

KBAF Flight Activity (Flightaware)

Listeners: 0 out of 1390 total

Emergency/Guard: 121.500
Emergency/Guard: 243.000
NG Ops: 123.050
NG Ops: 309.000
Westfield Ground: 121.700
Westfield Ground: 289.400
Westfield Tower: 118.900
Westfield Tower: 251.100

KBAF Tower (Archives)
Westfield/Springfield, Massachusetts, United States

Feed Status: UP
Listen in your browser - HTML5 player(in browser, HTML5)
Click here to listen with your own player(launches your MP3 player)



KBAF Airport Info (Airnav.com)

KBAF Flight Activity (Flightaware)

Listeners: 0 out of 1390 total

Westfield Tower: 118.900
Westfield Tower: 251.100

KBAK Gnd/Twr
Columbus, Indiana, United States

Feed Status: DOWN
Offline since: 2022-06-29 09:43:39 UTC



KBAK Airport Info (Airnav.com)

Columbus Ground: 121.600
Columbus Tower: 118.600

KBAK Gnd/Twr/App/Dep
Columbus, Indiana, United States

Feed Status: DOWN
Offline since: 2022-06-29 09:43:39 UTC



KBAK Airport Info (Airnav.com)

Columbus Ground: 121.600
Columbus Tower: 118.600
Emergency/Guard: 121.500
Emergency/Guard: 243.000
Indianapolis Approach/Departure: 134.850

KBAK Indy App/Dep/Guard
Columbus, Indiana, United States

Feed Status: DOWN
Offline since: 2022-06-29 09:43:39 UTC



KBAK Airport Info (Airnav.com)

Emergency/Guard: 121.500
Emergency/Guard: 243.000
Indianapolis Approach/Departure: 134.850

KBAZ Tower (Archives)
New Braunfels, Texas, United States

Feed Status: UP
Listen in your browser - HTML5 player(in browser, HTML5)
Click here to listen with your own player(launches your MP3 player)

KBAZ 010651Z AUTO 10005KT 10SM OVC021 26/21 A2997 RMK AO2 SLP139 T02610211

KBAZ Airport Info (Airnav.com)

KBAZ Flight Activity (Flightaware)

Listeners: 0 out of 1390 total

New Braunfels Tower: 127.050

KBCT ATIS (Archives)
Boca Raton, Florida, United States

Feed Status: UP
Listen in your browser - HTML5 player(in browser, HTML5)
Click here to listen with your own player(launches your MP3 player)



KBCT Airport Info (Airnav.com)

KBCT Flight Activity (Flightaware)

Listeners: 0 out of 1390 total

Boca Raton ATIS/AWOS: 121.125

KBCT Emergency/Guard (Archives)
Boca Raton, Florida, United States

Feed Status: UP
Listen in your browser - HTML5 player(in browser, HTML5)
Click here to listen with your own player(launches your MP3 player)



KBCT Airport Info (Airnav.com)

KBCT Flight Activity (Flightaware)

Listeners: 0 out of 1390 total

Emergency/Guard: 121.500

KBCT Ground (Archives)
Boca Raton, Florida, United States

Feed Status: UP
Listen in your browser - HTML5 player(in browser, HTML5)
Click here to listen with your own player(launches your MP3 player)



KBCT Airport Info (Airnav.com)

KBCT Flight Activity (Flightaware)

Listeners: 0 out of 1390 total

Boca Raton Ground: 121.800

KBCT Ground/Tower (Archives)
Boca Raton, Florida, United States

Feed Status: UP
Listen in your browser - HTML5 player(in browser, HTML5)
Click here to listen with your own player(launches your MP3 player)



KBCT Airport Info (Airnav.com)

KBCT Flight Activity (Flightaware)

Listeners: 0 out of 1390 total

Boca Raton Ground: 121.800
Boca Raton Tower: 118.425

KBCT Tower (Archives)
Boca Raton, Florida, United States

Feed Status: UP
Listen in your browser - HTML5 player(in browser, HTML5)
Click here to listen with your own player(launches your MP3 player)



KBCT Airport Info (Airnav.com)

KBCT Flight Activity (Flightaware)

Listeners: 0 out of 1390 total

Boca Raton Tower: 118.425

KBDN CTAF (Archives)
Bend, Oregon, United States

Feed Status: UP
Listen in your browser - HTML5 player(in browser, HTML5)
Click here to listen with your own player(launches your MP3 player)

KBDN 010655Z AUTO 30004KT 10SM CLR 17/07 A3009 RMK AO2

KBDN Airport Info (Airnav.com)

KBDN Flight Activity (Flightaware)

Listeners: 0 out of 1390 total

Bend CTAF: 123.000

KBDR Del/Gnd/Twr (Archives)
Bridgeport, Connecticut, United States

Feed Status: UP
Listen in your browser - HTML5 player(in browser, HTML5)
Click here to listen with your own player(launches your MP3 player)

KBDR 010652Z AUTO 00000KT 10SM CLR 19/17 A3010 RMK AO2 SLP192 T01940172 $

KBDR Airport Info (Airnav.com)

KBDR Flight Activity (Flightaware)

Listeners: 1 out of 1390 total

Bridgeport Clearance/Ground: 121.750
Bridgeport Tower: 120.900
Sikorsky Heliport: 133.600

KBDR Del/Gnd/Twr/App (Archives)
Bridgeport, Connecticut, United States

Feed Status: UP
Listen in your browser - HTML5 player(in browser, HTML5)
Click here to listen with your own player(launches your MP3 player)

KBDR 010652Z AUTO 00000KT 10SM CLR 19/17 A3010 RMK AO2 SLP192 T01940172 $

KBDR Airport Info (Airnav.com)

KBDR Flight Activity (Flightaware)

Listeners: 0 out of 1390 total

Bridgeport Clearance/Ground: 121.750
Bridgeport Tower: 120.900
New York Approach (LOVES Sector): 124.075
Sikorsky Heliport: 133.600

New York Approach (LOVES Sector) (Archives)
Bridgeport, Connecticut, United States

Feed Status: UP
Listen in your browser - HTML5 player(in browser, HTML5)
Click here to listen with your own player(launches your MP3 player)

KBDR 010652Z AUTO 00000KT 10SM CLR 19/17 A3010 RMK AO2 SLP192 T01940172 $

KBDR Airport Info (Airnav.com)

KBDR Flight Activity (Flightaware)

Listeners: 0 out of 1390 total

New York Approach (LOVES Sector): 124.075

KFTG/KEIK/KBDU/KLMO/Misc (Archives)
Boulder, Colorado, United States

Feed Status: UP
Listen in your browser - HTML5 player(in browser, HTML5)
Click here to listen with your own player(launches your MP3 player)

KDEN 010653Z 25006KT 10SM SCT180 BKN220 15/10 A3026 RMK AO2 SLP178 T01500100 402780139

KDEN Airport Info (Airnav.com)

KDEN Flight Activity (Flightaware)

Listeners: 0 out of 1390 total

Air-to-Air Fixed Wing: 122.750
Air-to-Air Informal: 123.450
Boulder CTAF: 122.725
Erie CTAF: 123.000
Front Range Tower: 120.200
KBKF Tower: 121.000
Longmont CTAF: 122.975
MULTICOM: 122.900
UNICOM: 122.950

KAAO CTAF/KBEC Twr (Archives)
Wichita, Kansas, United States

Feed Status: UP
Listen in your browser - HTML5 player(in browser, HTML5)
Click here to listen with your own player(launches your MP3 player)

KAAO 010654Z AUTO 17006KT 10SM CLR 23/17 A2997 RMK AO2 SLP133 T02280172

KAAO Airport Info (Airnav.com)

KAAO Flight Activity (Flightaware)

Listeners: 0 out of 1390 total

Beech Tower: 126.800
Jabara CTAF: 122.700

Boston App/Dep (North Sat) #1 (Archives)
Bedford, Massachusetts, United States

Feed Status: UP
Listen in your browser - HTML5 player(in browser, HTML5)
Click here to listen with your own player(launches your MP3 player)

KBED 010651Z AUTO 00000KT 10SM CLR 17/14 A3007 RMK AO2 SLP194 T01670139

KBED Airport Info (Airnav.com)

KBED Flight Activity (Flightaware)

Listeners: 0 out of 1390 total

Boston Approach (North Satellites, SFC-3500'): 124.400

Boston App/Dep (North Sat) #3 (Archives)
Bedford, Massachusetts, United States

Feed Status: UP
Listen in your browser - HTML5 player(in browser, HTML5)
Click here to listen with your own player(launches your MP3 player)

KBED 010651Z AUTO 00000KT 10SM CLR 17/14 A3007 RMK AO2 SLP194 T01670139

KBED Airport Info (Airnav.com)

KBED Flight Activity (Flightaware)

Listeners: 0 out of 1390 total

Boston Approach (North Satellites, SFC-3500'): 124.400

KBED ATIS #1 (Archives)
Bedford, Massachusetts, United States

Feed Status: UP
Listen in your browser - HTML5 player(in browser, HTML5)
Click here to listen with your own player(launches your MP3 player)

KBED 010651Z AUTO 00000KT 10SM CLR 17/14 A3007 RMK AO2 SLP194 T01670139

KBED Airport Info (Airnav.com)

KBED Flight Activity (Flightaware)

Listeners: 0 out of 1390 total

Hanscom ATIS: 124.600

KBED ATIS #2 (Archives)
Bedford, Massachusetts, United States

Feed Status: UP
Listen in your browser - HTML5 player(in browser, HTML5)
Click here to listen with your own player(launches your MP3 player)

KBED 010651Z AUTO 00000KT 10SM CLR 17/14 A3007 RMK AO2 SLP194 T01670139

KBED Airport Info (Airnav.com)

KBED Flight Activity (Flightaware)

Listeners: 0 out of 1390 total

Hanscom ATIS: 124.600

KBED Clearance Delivery (Archives)
Bedford, Massachusetts, United States

Feed Status: UP
Listen in your browser - HTML5 player(in browser, HTML5)
Click here to listen with your own player(launches your MP3 player)

KBED 010651Z AUTO 00000KT 10SM CLR 17/14 A3007 RMK AO2 SLP194 T01670139

KBED Airport Info (Airnav.com)

KBED Flight Activity (Flightaware)

Listeners: 0 out of 1390 total

Hanscom Clearance Delivery: 121.850

KBED Del/Gnd (Archives)
Bedford, Massachusetts, United States

Feed Status: UP
Listen in your browser - HTML5 player(in browser, HTML5)
Click here to listen with your own player(launches your MP3 player)

KBED 010651Z AUTO 00000KT 10SM CLR 17/14 A3007 RMK AO2 SLP194 T01670139

KBED Airport Info (Airnav.com)

KBED Flight Activity (Flightaware)

Listeners: 0 out of 1390 total

Hanscom Clearance Delivery: 121.850
Hanscom Ground: 121.700

KBED Gnd/Twr (Archives)
Bedford, Massachusetts, United States

Feed Status: UP
Listen in your browser - HTML5 player(in browser, HTML5)
Click here to listen with your own player(launches your MP3 player)

KBED 010651Z AUTO 00000KT 10SM CLR 17/14 A3007 RMK AO2 SLP194 T01670139

KBED Airport Info (Airnav.com)

KBED Flight Activity (Flightaware)

Listeners: 0 out of 1390 total

Hanscom Ground: 121.700
Hanscom Tower: 118.500

KBED Ground (Archives)
Bedford, Massachusetts, United States

Feed Status: UP
Listen in your browser - HTML5 player(in browser, HTML5)
Click here to listen with your own player(launches your MP3 player)

KBED 010651Z AUTO 00000KT 10SM CLR 17/14 A3007 RMK AO2 SLP194 T01670139

KBED Airport Info (Airnav.com)

KBED Flight Activity (Flightaware)

Listeners: 0 out of 1390 total

Hanscom Ground: 121.700

KBED Tower (Archives)
Bedford, Massachusetts, United States

Feed Status: UP
Listen in your browser - HTML5 player(in browser, HTML5)
Click here to listen with your own player(launches your MP3 player)

KBED 010651Z AUTO 00000KT 10SM CLR 17/14 A3007 RMK AO2 SLP194 T01670139

KBED Airport Info (Airnav.com)

KBED Flight Activity (Flightaware)

Listeners: 0 out of 1390 total

Hanscom Tower: 118.500

KBFI Ground/Tower (Archives)
Seattle, Washington, United States

Feed Status: UP
Listen in your browser - HTML5 player(in browser, HTML5)
Click here to listen with your own player(launches your MP3 player)

KBFI 010653Z 00000KT 10SM CLR 17/11 A3007 RMK AO2 SLP182 T01720111

KBFI Airport Info (Airnav.com)

KBFI Flight Activity (Flightaware)

Listeners: 0 out of 1390 total

Boeing Ground: 121.900
Boeing Tower (Rwy 13L & 31R/VFR): 118.300
Boeing Tower (Rwy 13R/31L/IFR): 120.600
Emergency: 121.500

KBFM Ground/Tower (Archives)
Mobile, Alabama, United States

Feed Status: UP
Listen in your browser - HTML5 player(in browser, HTML5)
Click here to listen with your own player(launches your MP3 player)

KBFM 010653Z AUTO 08010KT 10SM CLR 26/23 A3006 RMK AO2 SLP180 T02610233

KBFM Airport Info (Airnav.com)

KBFM Flight Activity (Flightaware)

Listeners: 0 out of 1390 total

Downtown Ground: 121.700
Downtown Tower: 118.800

KBFM Tower
Mobile, Alabama, United States

Feed Status: DOWN
Offline since: 2022-07-01 00:41:39 UTC

KBFM 010653Z AUTO 08010KT 10SM CLR 26/23 A3006 RMK AO2 SLP180 T02610233

KBFM Airport Info (Airnav.com)

Downtown Tower: 118.800

KBGM Del/Gnd/Twr/App (Archives)
Binghamton, New York, United States

Feed Status: UP
Listen in your browser - HTML5 player(in browser, HTML5)
Click here to listen with your own player(launches your MP3 player)

KBGM 010653Z AUTO 21006KT 10SM CLR 20/12 A3010 RMK AO2 SLP183 T02000122

KBGM Airport Info (Airnav.com)

KBGM Flight Activity (Flightaware)

Listeners: 0 out of 1390 total

Binghamton Approach/Departure: 118.600
Binghamton Approach/Departure: 127.550
Binghamton Clearance Delivery: 125.050
Binghamton Ground: 121.900
Binghamton Tower: 119.300

KBID CTAF (Archives)
Block Island, Rhode Island, United States

Feed Status: UP
Listen in your browser - HTML5 player(in browser, HTML5)
Click here to listen with your own player(launches your MP3 player)

KBID 010656Z AUTO 21010KT 10SM CLR 19/18 A3012 RMK AO2 SLP201 T01940178

KBID Airport Info (Airnav.com)

KBID Flight Activity (Flightaware)

Listeners: 0 out of 1390 total

Block Island CTAF: 123.000

KBIS Twr/App (Archives)
Bismarck, North Dakota, United States

Feed Status: UP
Listen in your browser - HTML5 player(in browser, HTML5)
Click here to listen with your own player(launches your MP3 player)

KBIS 010652Z AUTO 24007KT 10SM CLR 16/09 A3007 RMK AO2 SLP176 T01560089

KBIS Airport Info (Airnav.com)

KBIS Flight Activity (Flightaware)

Listeners: 0 out of 1390 total

Bismarck Approach/Departure: 126.300
Bismarck Tower: 118.300

KBJC Ground/Tower
Denver, Colorado, United States

Feed Status: DOWN
Offline since: 2022-06-23 05:04:38 UTC

KBJC 010635Z AUTO 17008KT 10SM CLR 15/08 A3027 RMK AO2

KBJC Airport Info (Airnav.com)

Metro Ground: 121.700
Metro Tower: 118.600

KBJI CTAF/ZMP (Archives)
Bemidji, Minnesota, United States

Feed Status: UP
Listen in your browser - HTML5 player(in browser, HTML5)
Click here to listen with your own player(launches your MP3 player)

KBJI 010655Z AUTO 00000KT 10SM SCT085 10/10 A2998 RMK AO2 T01030097

KBJI Airport Info (Airnav.com)

KBJI Flight Activity (Flightaware)

Listeners: 3 out of 1390 total

Bemidji CTAF: 122.800
Minneapolis Center (Sector 25 Low/High): 134.750

KBKF Tower (UHF) (Archives)
Aurora, Colorado, United States

Feed Status: UP
Listen in your browser - HTML5 player(in browser, HTML5)
Click here to listen with your own player(launches your MP3 player)

KBKF 010558Z 15006KT 10SM FEW120 SCT200 13/10 A3028 RMK AO2A SLP188 T01310099 10196 20130 50029

KBKF Airport Info (Airnav.com)

KBKF Flight Activity (Flightaware)

Listeners: 0 out of 1390 total

Buckley Tower: 291.675

KBKF Tower (VHF) (Archives)
Aurora, Colorado, United States

Feed Status: UP
Listen in your browser - HTML5 player(in browser, HTML5)
Click here to listen with your own player(launches your MP3 player)

KBKF 010558Z 15006KT 10SM FEW120 SCT200 13/10 A3028 RMK AO2A SLP188 T01310099 10196 20130 50029

KBKF Airport Info (Airnav.com)

KBKF Flight Activity (Flightaware)

Listeners: 1 out of 1390 total

Buckley Tower: 121.000

KBKF Tower (VHF/UHF) (Archives)
Aurora, Colorado, United States

Feed Status: UP
Listen in your browser - HTML5 player(in browser, HTML5)
Click here to listen with your own player(launches your MP3 player)

KBKF 010558Z 15006KT 10SM FEW120 SCT200 13/10 A3028 RMK AO2A SLP188 T01310099 10196 20130 50029

KBKF Airport Info (Airnav.com)

KBKF Flight Activity (Flightaware)

Listeners: 0 out of 1390 total

Buckley Tower: 121.000
Buckley Tower: 291.675

KBLI Tower
Bellingham, Washington, United States

Feed Status: DOWN
Offline since: 2022-06-28 22:30:23 UTC

KBLI 010653Z AUTO 18006KT 10SM BKN080 16/14 A3006 RMK AO2 SLP185 T01610144

KBLI Airport Info (Airnav.com)

Bellingham Tower: 124.900

KBLM/N12/3N6/KMJX (Archives)
Belmar/Farmingdale, New Jersey, United States

Feed Status: UP
Listen in your browser - HTML5 player(in browser, HTML5)
Click here to listen with your own player(launches your MP3 player)

KBLM 010656Z AUTO 22004KT 10SM CLR 21/21 A3013 RMK AO2 SLP203 T02060206

KBLM Airport Info (Airnav.com)

KBLM Flight Activity (Flightaware)

Listeners: 0 out of 1390 total

3N6 Old Bridge CTAF: 123.075
Emergency/Guard: 121.500
Monmouth Clearance: 120.950
Monmouth Clearance: 126.150
Monmouth CTAF: 123.000
N12 Lakewood CTAF: 122.800
Ocean County KMJX CTAF: 122.700

KBMG Approach/Departure (Archives)
Bloomington, Indiana, United States

Feed Status: UP
Listen in your browser - HTML5 player(in browser, HTML5)
Click here to listen with your own player(launches your MP3 player)

KBMG 010653Z AUTO 00000KT 10SM FEW075 22/19 A3004 RMK AO2 SLP162 T02170189

KBMG Airport Info (Airnav.com)

KBMG Flight Activity (Flightaware)

Listeners: 0 out of 1390 total

Emergency/Guard: 121.500
Emergency/Guard: 243.000
Hulman Approach: 128.025

KBMG Tower (Archives)
Bloomington, Indiana, United States

Feed Status: UP
Listen in your browser - HTML5 player(in browser, HTML5)
Click here to listen with your own player(launches your MP3 player)

KBMG 010653Z AUTO 00000KT 10SM FEW075 22/19 A3004 RMK AO2 SLP162 T02170189

KBMG Airport Info (Airnav.com)

KBMG Flight Activity (Flightaware)

Listeners: 0 out of 1390 total

Bloomington Tower: 120.775

KBMG Twr/App (Archives)
Bloomington, Indiana, United States

Feed Status: UP
Listen in your browser - HTML5 player(in browser, HTML5)
Click here to listen with your own player(launches your MP3 player)

KBMG 010653Z AUTO 00000KT 10SM FEW075 22/19 A3004 RMK AO2 SLP162 T02170189

KBMG Airport Info (Airnav.com)

KBMG Flight Activity (Flightaware)

Listeners: 0 out of 1390 total

Bloomington Tower: 120.775
Emergency/Guard: 121.500
Emergency/Guard: 243.000
Hulman Approach: 128.025

KBMI App/Dep (Archives)
Bloomington/Normal, Illinois, United States

Feed Status: UP
Listen in your browser - HTML5 player(in browser, HTML5)
Click here to listen with your own player(launches your MP3 player)

KBMI 010656Z AUTO 21008KT 10SM CLR 22/18 A3000 RMK AO2 SLP147 T02170178

KBMI Airport Info (Airnav.com)

KBMI Flight Activity (Flightaware)

Listeners: 0 out of 1390 total

Peoria Approach/Departure: 128.725

KBMI ATIS (Archives)
Bloomington/Normal, Illinois, United States

Feed Status: UP
Listen in your browser - HTML5 player(in browser, HTML5)
Click here to listen with your own player(launches your MP3 player)

KBMI 010656Z AUTO 21008KT 10SM CLR 22/18 A3000 RMK AO2 SLP147 T02170178

KBMI Airport Info (Airnav.com)

KBMI Flight Activity (Flightaware)

Listeners: 0 out of 1390 total

Bloomington ATIS: 135.350

KBMI Gnd/Twr/App (Archives)
Bloomington/Normal, Illinois, United States

Feed Status: UP
Listen in your browser - HTML5 player(in browser, HTML5)
Click here to listen with your own player(launches your MP3 player)

KBMI 010656Z AUTO 21008KT 10SM CLR 22/18 A3000 RMK AO2 SLP147 T02170178

KBMI Airport Info (Airnav.com)

KBMI Flight Activity (Flightaware)

Listeners: 0 out of 1390 total

Bloomington Ground: 121.650
Bloomington Tower: 124.600
Peoria Approach/Departure: 128.725

KBMI Gnd/Twr/App/Dep (Archives)
Bloomington/Normal, Illinois, United States

Feed Status: UP
Listen in your browser - HTML5 player(in browser, HTML5)
Click here to listen with your own player(launches your MP3 player)

KBMI 010656Z AUTO 21008KT 10SM CLR 22/18 A3000 RMK AO2 SLP147 T02170178

KBMI Airport Info (Airnav.com)

KBMI Flight Activity (Flightaware)

Listeners: 0 out of 1390 total

Bloomington Ground: 121.650
Bloomington Tower: 124.600
Peoria Approach/Departure: 128.725

KBOK/KCEC CTAF (Archives)
Brookings, Oregon, United States

Feed Status: UP
Listen in your browser - HTML5 player(in browser, HTML5)
Click here to listen with your own player(launches your MP3 player)

KBOK 010656Z AUTO 17005KT 10SM OVC004 12/12 A3010 RMK AO2 SLP193 T01220117 401440111 $

KBOK Airport Info (Airnav.com)

KBOK Flight Activity (Flightaware)

Listeners: 0 out of 1390 total

Brookings/Crescent City CTAF: 122.800

KBOW AWOS (Archives)
Bartow, Florida, United States

Feed Status: UP
Listen in your browser - HTML5 player(in browser, HTML5)
Click here to listen with your own player(launches your MP3 player)

KBOW 010655Z AUTO 00000KT 10SM CLR 23/22 A3009 RMK AO2

KBOW Airport Info (Airnav.com)

KBOW Flight Activity (Flightaware)

Listeners: 0 out of 1390 total

Bartow AWOS: 123.775

KBOW Gnd/Twr/Misc (Archives)
Bartow, Florida, United States

Feed Status: UP
Listen in your browser - HTML5 player(in browser, HTML5)
Click here to listen with your own player(launches your MP3 player)

KBOW 010655Z AUTO 00000KT 10SM CLR 23/22 A3009 RMK AO2

KBOW Airport Info (Airnav.com)

KBOW Flight Activity (Flightaware)

Listeners: 0 out of 1390 total

Bartow Ground: 121.900
Bartow Tower: 121.200
Bartow UNICOM: 122.950
Emergency/Guard: 121.500

KBOW Gnd/UNICOM/Guard (Archives)
Bartow, Florida, United States

Feed Status: UP
Listen in your browser - HTML5 player(in browser, HTML5)
Click here to listen with your own player(launches your MP3 player)

KBOW 010655Z AUTO 00000KT 10SM CLR 23/22 A3009 RMK AO2

KBOW Airport Info (Airnav.com)

KBOW Flight Activity (Flightaware)

Listeners: 0 out of 1390 total

Bartow Ground: 121.900
Bartow UNICOM: 122.950
Emergency/Guard: 121.500

KBOW Tower/CTAF (Archives)
Bartow, Florida, United States

Feed Status: UP
Listen in your browser - HTML5 player(in browser, HTML5)
Click here to listen with your own player(launches your MP3 player)

KBOW 010655Z AUTO 00000KT 10SM CLR 23/22 A3009 RMK AO2

KBOW Airport Info (Airnav.com)

KBOW Flight Activity (Flightaware)

Listeners: 0 out of 1390 total

Bartow Tower: 121.200

KBPK CTAF (Archives)
Mountain Home, Arkansas, United States

Feed Status: UP
Listen in your browser - HTML5 player(in browser, HTML5)
Click here to listen with your own player(launches your MP3 player)

KBPK 010653Z AUTO 00000KT 10SM CLR 24/21 A3003 RMK AO2 SLP157 T02390206

KBPK Airport Info (Airnav.com)

KBPK Flight Activity (Flightaware)

Listeners: 0 out of 1390 total

Baxter County CTAF: 123.000

KBTL/KAZO Gnd/Twr/App (Archives)
Battle Creek, Michigan, United States

Feed Status: UP
Listen in your browser - HTML5 player(in browser, HTML5)
Click here to listen with your own player(launches your MP3 player)

KBTL Airport Info (Airnav.com)

KBTL Flight Activity (Flightaware)

Listeners: 1 out of 1390 total

Battle Creek Ground: 121.700
Battle Creek Tower: 126.825
Kalamazoo Approach/Departure: 119.200
Kalamazoo Ground: 121.900
Kalamazoo Tower: 118.300

KWHP/KVNY/KBUR App/Dep (Archives)
Burbank, California, United States

Feed Status: UP
Listen in your browser - HTML5 player(in browser, HTML5)
Click here to listen with your own player(launches your MP3 player)



KWHP Airport Info (Airnav.com)

KWHP Flight Activity (Flightaware)

Listeners: 1 out of 1390 total

SOCAL App (Glendale Sector): 135.050
SOCAL App (Valley Sector): 124.600
SOCAL Approach (Fillmore Sector): 120.400
SOCAL Approach (Moorpark Sector): 128.750
SOCAL Approach (Woodland Sector): 134.200

3CK/KBUU CTAF
Burlington, Wisconsin, United States

Feed Status: DOWN
Offline since: 2022-06-29 09:43:39 UTC

K3CK Airport Info (Airnav.com)

Lake in the Hills CTAF: 123.050

KBUY CTAF (Archives)
Burlington, North Carolina, United States

Feed Status: UP
Listen in your browser - HTML5 player(in browser, HTML5)
Click here to listen with your own player(launches your MP3 player)

KBUY 010654Z AUTO 00000KT 10SM CLR 22/20 A3017 RMK AO2 SLP208 T02170200

KBUY Airport Info (Airnav.com)

KBUY Flight Activity (Flightaware)

Listeners: 0 out of 1390 total

Burlington CTAF: 122.975

KBVI ATIS (Archives)
Beaver Falls, Pennsylvania, United States

Feed Status: UP
Listen in your browser - HTML5 player(in browser, HTML5)
Click here to listen with your own player(launches your MP3 player)

KBVI 010655Z AUTO 17005KT 10SM CLR 21/13 A3008 RMK AO2 T02100130

KBVI Airport Info (Airnav.com)

KBVI Flight Activity (Flightaware)

Listeners: 0 out of 1390 total

Beaver County ATIS: 118.350

KBVI Ground (Archives)
Beaver Falls, Pennsylvania, United States

Feed Status: UP
Listen in your browser - HTML5 player(in browser, HTML5)
Click here to listen with your own player(launches your MP3 player)

KBVI 010655Z AUTO 17005KT 10SM CLR 21/13 A3008 RMK AO2 T02100130

KBVI Airport Info (Airnav.com)

KBVI Flight Activity (Flightaware)

Listeners: 0 out of 1390 total

Beaver County Clearance (when Tower closed): 124.850
Beaver County Ground: 121.800

KBVI Ground/Tower (Archives)
Beaver Falls, Pennsylvania, United States

Feed Status: UP
Listen in your browser - HTML5 player(in browser, HTML5)
Click here to listen with your own player(launches your MP3 player)

KBVI 010655Z AUTO 17005KT 10SM CLR 21/13 A3008 RMK AO2 T02100130

KBVI Airport Info (Airnav.com)

KBVI Flight Activity (Flightaware)

Listeners: 0 out of 1390 total

Beaver County Clearance (when Tower closed): 124.850
Beaver County Ground: 121.800
Beaver County Tower: 120.300

KBVI Tower #1 (Archives)
Beaver Falls, Pennsylvania, United States

Feed Status: UP
Listen in your browser - HTML5 player(in browser, HTML5)
Click here to listen with your own player(launches your MP3 player)

KBVI 010655Z AUTO 17005KT 10SM CLR 21/13 A3008 RMK AO2 T02100130

KBVI Airport Info (Airnav.com)

KBVI Flight Activity (Flightaware)

Listeners: 0 out of 1390 total

Beaver County Tower: 120.300

KBVI Tower #1 (Archives)
Beaver Falls, Pennsylvania, United States

Feed Status: UP
Listen in your browser - HTML5 player(in browser, HTML5)
Click here to listen with your own player(launches your MP3 player)

KBVI 010655Z AUTO 17005KT 10SM CLR 21/13 A3008 RMK AO2 T02100130

KBVI Airport Info (Airnav.com)

KBVI Flight Activity (Flightaware)

Listeners: 0 out of 1390 total

Beaver County Tower: 120.300

KBVI Tower #2 (Archives)
Beaver Falls, Pennsylvania, United States

Feed Status: UP
Listen in your browser - HTML5 player(in browser, HTML5)
Click here to listen with your own player(launches your MP3 player)

KBVI 010655Z AUTO 17005KT 10SM CLR 21/13 A3008 RMK AO2 T02100130

KBVI Airport Info (Airnav.com)

KBVI Flight Activity (Flightaware)

Listeners: 0 out of 1390 total

Beaver County Tower: 120.300

KBVY ATIS (Archives)
Beverly, Massachusetts, United States

Feed Status: UP
Listen in your browser - HTML5 player(in browser, HTML5)
Click here to listen with your own player(launches your MP3 player)

KBVY 010653Z AUTO 00000KT 10SM CLR 17/15 A3008 RMK AO2 SLP179 T01720150

KBVY Airport Info (Airnav.com)

KBVY Flight Activity (Flightaware)

Listeners: 0 out of 1390 total

Beverly ATIS: 119.200

KBVY Ground (Archives)
Beverly, Massachusetts, United States

Feed Status: UP
Listen in your browser - HTML5 player(in browser, HTML5)
Click here to listen with your own player(launches your MP3 player)

KBVY 010653Z AUTO 00000KT 10SM CLR 17/15 A3008 RMK AO2 SLP179 T01720150

KBVY Airport Info (Airnav.com)

KBVY Flight Activity (Flightaware)

Listeners: 0 out of 1390 total

Beverly Ground: 121.600

KBVY Tower #1 (Archives)
Beverly, Massachusetts, United States

Feed Status: UP
Listen in your browser - HTML5 player(in browser, HTML5)
Click here to listen with your own player(launches your MP3 player)

KBVY 010653Z AUTO 00000KT 10SM CLR 17/15 A3008 RMK AO2 SLP179 T01720150

KBVY Airport Info (Airnav.com)

KBVY Flight Activity (Flightaware)

Listeners: 0 out of 1390 total

Beverly Tower: 125.200

KBVY Tower #2 (Archives)
Beverly, Massachusetts, United States

Feed Status: UP
Listen in your browser - HTML5 player(in browser, HTML5)
Click here to listen with your own player(launches your MP3 player)

KBVY 010653Z AUTO 00000KT 10SM CLR 17/15 A3008 RMK AO2 SLP179 T01720150

KBVY Airport Info (Airnav.com)

KBVY Flight Activity (Flightaware)

Listeners: 0 out of 1390 total

Beverly Tower: 125.200

KBXK CTAF (Archives)
Buckeye, Arizona, United States

Feed Status: UP
Listen in your browser - HTML5 player(in browser, HTML5)
Click here to listen with your own player(launches your MP3 player)

KBXK 010655Z AUTO 24008KT 10SM 32/15 A2986 RMK A01

KBXK Airport Info (Airnav.com)

KBXK Flight Activity (Flightaware)

Listeners: 0 out of 1390 total

Buckeye CTAF: 122.975

KBXM CTAF/AWOS (Archives)
Brunswick, Maine, United States

Feed Status: UP
Listen in your browser - HTML5 player(in browser, HTML5)
Click here to listen with your own player(launches your MP3 player)

KBXM Airport Info (Airnav.com)

KBXM Flight Activity (Flightaware)

Listeners: 0 out of 1390 total

Brunswick CTAF/UNICOM: 122.725
KBXM AWOS: 134.875

KBZN App/Dep (Archives)
Bozeman, Montana, United States

Feed Status: UP
Listen in your browser - HTML5 player(in browser, HTML5)
Click here to listen with your own player(launches your MP3 player)

KBZN 010556Z 27006KT 10SM CLR 16/04 A3012 RMK AO2 SLP164 T01610039 10267 20150 50005

KBZN Airport Info (Airnav.com)

KBZN Flight Activity (Flightaware)

Listeners: 0 out of 1390 total

Big Sky Approach/Departure: 118.975

KBZN Ground (Archives)
Bozeman, Montana, United States

Feed Status: UP
Listen in your browser - HTML5 player(in browser, HTML5)
Click here to listen with your own player(launches your MP3 player)

KBZN 010556Z 27006KT 10SM CLR 16/04 A3012 RMK AO2 SLP164 T01610039 10267 20150 50005

KBZN Airport Info (Airnav.com)

KBZN Flight Activity (Flightaware)

Listeners: 0 out of 1390 total

Bozeman Ground: 121.800

KBZN Tower #1
Bozeman, Montana, United States

Feed Status: DOWN
Offline since: 2019-12-19 20:24:05 UTC

KBZN 010556Z 27006KT 10SM CLR 16/04 A3012 RMK AO2 SLP164 T01610039 10267 20150 50005

KBZN Airport Info (Airnav.com)

Bozeman Tower/CTAF: 118.200

KBZN Tower #2 (Archives)
Bozeman, Montana, United States

Feed Status: UP
Listen in your browser - HTML5 player(in browser, HTML5)
Click here to listen with your own player(launches your MP3 player)

KBZN 010556Z 27006KT 10SM CLR 16/04 A3012 RMK AO2 SLP164 T01610039 10267 20150 50005

KBZN Airport Info (Airnav.com)

KBZN Flight Activity (Flightaware)

Listeners: 0 out of 1390 total

Bozeman Tower/CTAF: 118.200

KCCB CTAF
Upland, California, United States

Feed Status: DOWN
Offline since: 2022-07-01 07:12:05 UTC

KCCB 010655Z AUTO 29004KT 10SM CLR 21/15 A3000 RMK AO2

KCCB Airport Info (Airnav.com)

Upland CTAF: 123.000

KATL Approach (South Sat) (Archives)
Atlanta, Georgia, United States

Feed Status: UP
Listen in your browser - HTML5 player(in browser, HTML5)
Click here to listen with your own player(launches your MP3 player)

KCCO 010635Z AUTO 00000KT 10SM SCT045 23/22 A3014 RMK AO2 T02300215

KCCO Airport Info (Airnav.com)

KCCO Flight Activity (Flightaware)

Listeners: 0 out of 1390 total

Atlanta Approach (SW Satellite): 119.800

KCCO Area Air-to-Air (Archives)
Atlanta, Georgia, United States

Feed Status: UP
Listen in your browser - HTML5 player(in browser, HTML5)
Click here to listen with your own player(launches your MP3 player)

KCCO 010635Z AUTO 00000KT 10SM SCT045 23/22 A3014 RMK AO2 T02300215

KCCO Airport Info (Airnav.com)

KCCO Flight Activity (Flightaware)

Listeners: 0 out of 1390 total

Newnan Area Air to Air: 123.450

KCCO AWOS (Archives)
Atlanta, Georgia, United States

Feed Status: UP
Listen in your browser - HTML5 player(in browser, HTML5)
Click here to listen with your own player(launches your MP3 player)

KCCO 010635Z AUTO 00000KT 10SM SCT045 23/22 A3014 RMK AO2 T02300215

KCCO Airport Info (Airnav.com)

KCCO Flight Activity (Flightaware)

Listeners: 0 out of 1390 total

Newnan AWOS: 118.975

KCCO CTAF (Archives)
Atlanta, Georgia, United States

Feed Status: UP
Listen in your browser - HTML5 player(in browser, HTML5)
Click here to listen with your own player(launches your MP3 player)

KCCO 010635Z AUTO 00000KT 10SM SCT045 23/22 A3014 RMK AO2 T02300215

KCCO Airport Info (Airnav.com)

KCCO Flight Activity (Flightaware)

Listeners: 0 out of 1390 total

Emergency/Guard: 121.500
Flight School Company Channel: 123.300
Newnan CTAF: 122.700

KCCO Emergency/Guard (Archives)
Atlanta, Georgia, United States

Feed Status: UP
Listen in your browser - HTML5 player(in browser, HTML5)
Click here to listen with your own player(launches your MP3 player)

KCCO 010635Z AUTO 00000KT 10SM SCT045 23/22 A3014 RMK AO2 T02300215

KCCO Airport Info (Airnav.com)

KCCO Flight Activity (Flightaware)

Listeners: 0 out of 1390 total

Emergency/Guard: 121.500

KCCR Gnd/Twr (Archives)
Concord, California, United States

Feed Status: UP
Listen in your browser - HTML5 player(in browser, HTML5)
Click here to listen with your own player(launches your MP3 player)

KCCR 010653Z AUTO 18016KT 10SM CLR 13/10 A2999 RMK AO2 SLP140 T01330100

KCCR Airport Info (Airnav.com)

KCCR Flight Activity (Flightaware)

Listeners: 0 out of 1390 total

Concord Ground: 121.900
Concord Tower: 119.700

KCDC ASOS (Archives)
Cedar City, Utah, United States

Feed Status: UP
Listen in your browser - HTML5 player(in browser, HTML5)
Click here to listen with your own player(launches your MP3 player)

KCDC 010653Z AUTO 18006KT 10SM CLR 21/04 A3013 RMK AO2 SLP114 T02060039 403280172

KCDC Airport Info (Airnav.com)

KCDC Flight Activity (Flightaware)

Listeners: 0 out of 1390 total

Cedar City ASOS: 119.025

KCDC CTAF #1 (Archives)
Cedar City, Utah, United States

Feed Status: UP
Listen in your browser - HTML5 player(in browser, HTML5)
Click here to listen with your own player(launches your MP3 player)

KCDC 010653Z AUTO 18006KT 10SM CLR 21/04 A3013 RMK AO2 SLP114 T02060039 403280172

KCDC Airport Info (Airnav.com)

KCDC Flight Activity (Flightaware)

Listeners: 0 out of 1390 total

Cedar City CTAF: 123.000

KCDC Guard (Archives)
Cedar City, Utah, United States

Feed Status: UP
Listen in your browser - HTML5 player(in browser, HTML5)
Click here to listen with your own player(launches your MP3 player)

KCDC 010653Z AUTO 18006KT 10SM CLR 21/04 A3013 RMK AO2 SLP114 T02060039 403280172

KCDC Airport Info (Airnav.com)

KCDC Flight Activity (Flightaware)

Listeners: 0 out of 1390 total

Emergency/Guard: 121.500

KCDC T-Bird Dispatch (Archives)
Cedar City, Utah, United States

Feed Status: UP
Listen in your browser - HTML5 player(in browser, HTML5)
Click here to listen with your own player(launches your MP3 player)

KCDC 010653Z AUTO 18006KT 10SM CLR 21/04 A3013 RMK AO2 SLP114 T02060039 403280172

KCDC Airport Info (Airnav.com)

KCDC Flight Activity (Flightaware)

Listeners: 0 out of 1390 total

SUU Aviation T-Bird Traffic (Dispatch): 123.500

KCDW Del/Gnd/Twr (Archives)
Caldwell, New Jersey, United States

Feed Status: UP
Listen in your browser - HTML5 player(in browser, HTML5)
Click here to listen with your own player(launches your MP3 player)

KCDW 010653Z 00000KT 10SM CLR 20/16 A3012 RMK AO2 SLP202 T02000161

KCDW Airport Info (Airnav.com)

KCDW Flight Activity (Flightaware)

Listeners: 0 out of 1390 total

Caldwell Clearance: 121.100
Caldwell Ground: 121.900
Caldwell Tower: 119.800

KBOK/KCEC CTAF (Archives)
Crescent City, California, United States

Feed Status: UP
Listen in your browser - HTML5 player(in browser, HTML5)
Click here to listen with your own player(launches your MP3 player)

KBOK 010656Z AUTO 17005KT 10SM OVC004 12/12 A3010 RMK AO2 SLP193 T01220117 401440111 $

KBOK Airport Info (Airnav.com)

KBOK Flight Activity (Flightaware)

Listeners: 0 out of 1390 total

Brookings/Crescent City CTAF: 122.800

KCEU CTAF/App
Clemson, South Carolina, United States

Feed Status: DOWN
Offline since: 2019-10-13 21:53:39 UTC

KCEU Airport Info (Airnav.com)

CTAF: 122.700
Greer Approach/Departure: 118.800

KCEZ CTAF/ZDV (Archives)
Cortez, Colorado, United States

Feed Status: UP
Listen in your browser - HTML5 player(in browser, HTML5)
Click here to listen with your own player(launches your MP3 player)

KCEZ 010653Z AUTO 07005KT 10SM CLR 17/11 A3022 RMK AO2 SLP149 T01720106 403000156

KCEZ Airport Info (Airnav.com)

KCEZ Flight Activity (Flightaware)

Listeners: 2 out of 1390 total

Cortez CTAF: 122.800
Denver Center (Sector 36 Farmington Low): 118.575
Emergency/Guard: 121.500

KCFD CTAF/App
Bryan, Texas, United States

Feed Status: DOWN
Offline since: 2022-06-29 19:06:39 UTC

KCFD 010635Z AUTO 12005KT 10SM CLR 23/22 A3000 RMK AO2 T02300217

KCFD Airport Info (Airnav.com)

Bryan CTAF/UNICOM: 123.000
Houston Approach/Departure: 134.300

KCFJ CTAF (Archives)
Crawfordsville, Indiana, United States

Feed Status: UP
Listen in your browser - HTML5 player(in browser, HTML5)
Click here to listen with your own player(launches your MP3 player)

KCFJ 010655Z AUTO 00000KT 10SM CLR 18/11 A3002 RMK AO2 T01840106

KCFJ Airport Info (Airnav.com)

KCFJ Flight Activity (Flightaware)

Listeners: 0 out of 1390 total

Crawfordsville CTAF: 122.800

KCFJ Emergency/Guard (Archives)
Crawfordsville, Indiana, United States

Feed Status: UP
Listen in your browser - HTML5 player(in browser, HTML5)
Click here to listen with your own player(launches your MP3 player)

KCFJ 010655Z AUTO 00000KT 10SM CLR 18/11 A3002 RMK AO2 T01840106

KCFJ Airport Info (Airnav.com)

KCFJ Flight Activity (Flightaware)

Listeners: 0 out of 1390 total

Emergency/Guard: 121.500

KCFO/KEIK/KBDU/KLMO/Misc (Archives)
Denver, Colorado, United States

Feed Status: UP
Listen in your browser - HTML5 player(in browser, HTML5)
Click here to listen with your own player(launches your MP3 player)

KDEN 010653Z 25006KT 10SM SCT180 BKN220 15/10 A3026 RMK AO2 SLP178 T01500100 402780139

KDEN Airport Info (Airnav.com)

KDEN Flight Activity (Flightaware)

Listeners: 0 out of 1390 total

Air-to-Air Fixed Wing: 122.750
Air-to-Air Informal: 123.450
Boulder CTAF: 122.725
Erie CTAF: 123.000
Front Range Tower: 120.200
KBKF Tower: 121.000
Longmont CTAF: 122.975
MULTICOM: 122.900
UNICOM: 122.950

KCGZ AWOS (Archives)
Casa Grande, Arizona, United States

Feed Status: UP
Listen in your browser - HTML5 player(in browser, HTML5)
Click here to listen with your own player(launches your MP3 player)

KCGZ 010656Z AUTO 20004KT 10SM CLR 32/18 A2991 RMK AO2 SLP108 T03170178 403890261 $

KCGZ Airport Info (Airnav.com)

KCGZ Flight Activity (Flightaware)

Listeners: 0 out of 1390 total

Casa Grande AWOS: 132.175

KCGZ CTAF (Archives)
Casa Grande, Arizona, United States

Feed Status: UP
Listen in your browser - HTML5 player(in browser, HTML5)
Click here to listen with your own player(launches your MP3 player)

KCGZ 010656Z AUTO 20004KT 10SM CLR 32/18 A2991 RMK AO2 SLP108 T03170178 403890261 $

KCGZ Airport Info (Airnav.com)

KCGZ Flight Activity (Flightaware)

Listeners: 0 out of 1390 total

Casa Grande CTAF: 122.700

KCGZ SE/SW Practice Area (Archives)
Casa Grande, Arizona, United States

Feed Status: UP
Listen in your browser - HTML5 player(in browser, HTML5)
Click here to listen with your own player(launches your MP3 player)

KCGZ 010656Z AUTO 20004KT 10SM CLR 32/18 A2991 RMK AO2 SLP108 T03170178 403890261 $

KCGZ Airport Info (Airnav.com)

KCGZ Flight Activity (Flightaware)

Listeners: 0 out of 1390 total

Casa Grande SE Practice Area: 122.850

KCHD Tower (North) (Archives)
Chandler, Arizona, United States

Feed Status: UP
Listen in your browser - HTML5 player(in browser, HTML5)
Click here to listen with your own player(launches your MP3 player)



KCHD Airport Info (Airnav.com)

KCHD Flight Activity (Flightaware)

Listeners: 0 out of 1390 total

Chandler Tower (North): 126.100

KCHD Tower (South) (Archives)
Chandler, Arizona, United States

Feed Status: UP
Listen in your browser - HTML5 player(in browser, HTML5)
Click here to listen with your own player(launches your MP3 player)



KCHD Airport Info (Airnav.com)

KCHD Flight Activity (Flightaware)

Listeners: 0 out of 1390 total

Chandler Tower (South): 133.100

KCHK CTAF
Chickasha, Oklahoma, United States

Feed Status: DOWN
Offline since: 2022-06-08 19:17:05 UTC

KCHK 010635Z AUTO 13006KT 10SM CLR 24/17 A2994 RMK AO2 T02370173

KCHK Airport Info (Airnav.com)

Chickasha CTAF: 123.000

KCHO Tower (Archives)
Charlottesville, Virginia, United States

Feed Status: UP
Listen in your browser - HTML5 player(in browser, HTML5)
Click here to listen with your own player(launches your MP3 player)

KCHO 010653Z AUTO 20003KT 8SM CLR 22/20 A3013 RMK AO2 SLP196 T02170200

KCHO Airport Info (Airnav.com)

KCHO Flight Activity (Flightaware)

Listeners: 0 out of 1390 total

Charlottesville Tower: 124.500

KCHO Tower/App (Archives)
Charlottesville, Virginia, United States

Feed Status: UP
Listen in your browser - HTML5 player(in browser, HTML5)
Click here to listen with your own player(launches your MP3 player)

KCHO 010653Z AUTO 20003KT 8SM CLR 22/20 A3013 RMK AO2 SLP196 T02170200

KCHO Airport Info (Airnav.com)

KCHO Flight Activity (Flightaware)

Listeners: 0 out of 1390 total

Charlottesville Tower: 124.500
Potomac Approach/Departure: 132.850

KCIC Tower/ZOA42 (Archives)
Chico, California, United States

Feed Status: UP
Listen in your browser - HTML5 player(in browser, HTML5)
Click here to listen with your own player(launches your MP3 player)

KCIC 010635Z AUTO 12005KT 10SM CLR 25/08 A2991 RMK AO1

KCIC Airport Info (Airnav.com)

KCIC Flight Activity (Flightaware)

Listeners: 1 out of 1390 total

Chico CTAF/Tower: 121.000
Oakland Center (Sector 42 Low): 132.200

KCID Gnd/Twr/App/KIOW (Archives)
Cedar Rapids, Iowa, United States

Feed Status: UP
Listen in your browser - HTML5 player(in browser, HTML5)
Click here to listen with your own player(launches your MP3 player)

KCID 010652Z AUTO 22007KT 10SM SCT085 24/17 A2992 RMK AO2 SLP122 T02390167

KCID Airport Info (Airnav.com)

KCID Flight Activity (Flightaware)

Listeners: 0 out of 1390 total

Cedar Rapids Approach (091-269): 119.700
Cedar Rapids Approach (270-090): 134.050
Cedar Rapids Clearance Delivery: 125.450
Cedar Rapids Ground (0500-2330): 121.600
Cedar Rapids Tower (0500-2330): 118.700
UNICOM C17 (Marion) and surrounding area: 122.700
UNICOM IA24 Green Castle: 122.900
UNICOM KIOW (Iowa City) and surrounding area: 122.800

KCIU CTAF (Air Race Classic)
Sault Ste Marie, Michigan, United States

Feed Status: DOWN
Offline since: 2019-06-24 17:12:02 UTC

Chippewa CTAF: 123.000

KCKB App/Dep (Archives)
Clarksburg, West Virginia, United States

Feed Status: UP
Listen in your browser - HTML5 player(in browser, HTML5)
Click here to listen with your own player(launches your MP3 player)

KCKB 010653Z AUTO 00000KT 10SM CLR 19/16 A3012 RMK AO2 SLP183 T01890161

KCKB Airport Info (Airnav.com)

KCKB Flight Activity (Flightaware)

Listeners: 0 out of 1390 total

Clarksburg Approach (East): 121.150
Clarksburg Approach (West): 119.600

KCKB App/Dep (East) (Archives)
Clarksburg, West Virginia, United States

Feed Status: UP
Listen in your browser - HTML5 player(in browser, HTML5)
Click here to listen with your own player(launches your MP3 player)

KCKB 010653Z AUTO 00000KT 10SM CLR 19/16 A3012 RMK AO2 SLP183 T01890161

KCKB Airport Info (Airnav.com)

KCKB Flight Activity (Flightaware)

Listeners: 0 out of 1390 total

Clarksburg Approach (East): 121.150

KCKB App/Dep (West) (Archives)
Clarksburg, West Virginia, United States

Feed Status: UP
Listen in your browser - HTML5 player(in browser, HTML5)
Click here to listen with your own player(launches your MP3 player)

KCKB 010653Z AUTO 00000KT 10SM CLR 19/16 A3012 RMK AO2 SLP183 T01890161

KCKB Airport Info (Airnav.com)

KCKB Flight Activity (Flightaware)

Listeners: 0 out of 1390 total

Clarksburg Approach (West): 119.600

KCKB Emergency/Guard (Archives)
Clarksburg, West Virginia, United States

Feed Status: UP
Listen in your browser - HTML5 player(in browser, HTML5)
Click here to listen with your own player(launches your MP3 player)

KCKB 010653Z AUTO 00000KT 10SM CLR 19/16 A3012 RMK AO2 SLP183 T01890161

KCKB Airport Info (Airnav.com)

KCKB Flight Activity (Flightaware)

Listeners: 0 out of 1390 total

Emergency/Guard: 121.500

KCKB Ground (Archives)
Clarksburg, West Virginia, United States

Feed Status: UP
Listen in your browser - HTML5 player(in browser, HTML5)
Click here to listen with your own player(launches your MP3 player)

KCKB 010653Z AUTO 00000KT 10SM CLR 19/16 A3012 RMK AO2 SLP183 T01890161

KCKB Airport Info (Airnav.com)

KCKB Flight Activity (Flightaware)

Listeners: 0 out of 1390 total

Clarksburg Ground: 121.900

KCKB Ground/Tower (Archives)
Clarksburg, West Virginia, United States

Feed Status: UP
Listen in your browser - HTML5 player(in browser, HTML5)
Click here to listen with your own player(launches your MP3 player)

KCKB 010653Z AUTO 00000KT 10SM CLR 19/16 A3012 RMK AO2 SLP183 T01890161

KCKB Airport Info (Airnav.com)

KCKB Flight Activity (Flightaware)

Listeners: 0 out of 1390 total

Clarksburg Ground: 121.900
Clarksburg Tower: 126.700

KCKB Tower (Archives)
Clarksburg, West Virginia, United States

Feed Status: UP
Listen in your browser - HTML5 player(in browser, HTML5)
Click here to listen with your own player(launches your MP3 player)

KCKB 010653Z AUTO 00000KT 10SM CLR 19/16 A3012 RMK AO2 SLP183 T01890161

KCKB Airport Info (Airnav.com)

KCKB Flight Activity (Flightaware)

Listeners: 0 out of 1390 total

Clarksburg Tower: 126.700

KCLM Del/CTAF/App
Port Angeles, Washington, United States

Feed Status: DOWN
Offline since: 2022-07-01 06:45:05 UTC

KCLM 010653Z AUTO 28006KT 10SM CLR 13/11 A3010 RMK AO2 SLP192 T01280106

KCLM Airport Info (Airnav.com)

Clearance Delivery: 124.150
Fairchild CTAF: 122.975
Seattle Radio (Port Angeles RCO): 122.600
Whidbey Approach: 118.200

KCMA App/Dep (Mugu App) (Archives)
Camarillo, California, United States

Feed Status: UP
Listen in your browser - HTML5 player(in browser, HTML5)
Click here to listen with your own player(launches your MP3 player)

KCMA 010655Z AUTO 00000KT 8SM CLR 17/14 A2996 RMK AO2 SLP155 T01720144

KCMA Airport Info (Airnav.com)

KCMA Flight Activity (Flightaware)

Listeners: 0 out of 1390 total

Point Mugu Approach: 123.750
Point Mugu Approach: 124.700

KCMA ATIS (Archives)
Camarillo, California, United States

Feed Status: UP
Listen in your browser - HTML5 player(in browser, HTML5)
Click here to listen with your own player(launches your MP3 player)

KCMA 010655Z AUTO 00000KT 8SM CLR 17/14 A2996 RMK AO2 SLP155 T01720144

KCMA Airport Info (Airnav.com)

KCMA Flight Activity (Flightaware)

Listeners: 0 out of 1390 total

Camarillo ATIS: 126.025

KCMA Ground/Tower (Archives)
Camarillo, California, United States

Feed Status: UP
Listen in your browser - HTML5 player(in browser, HTML5)
Click here to listen with your own player(launches your MP3 player)

KCMA 010655Z AUTO 00000KT 8SM CLR 17/14 A2996 RMK AO2 SLP155 T01720144

KCMA Airport Info (Airnav.com)

KCMA Flight Activity (Flightaware)

Listeners: 0 out of 1390 total

Camarillo Ground: 121.800
Camarillo Tower: 128.200

KWDR/KCVC/KCNI CTAF (Archives)
Canton, Georgia, United States

Feed Status: UP
Listen in your browser - HTML5 player(in browser, HTML5)
Click here to listen with your own player(launches your MP3 player)

KWDR 010635Z AUTO 00000KT 10SM BKN055 22/20 A3018 RMK AO2 LTG DSNT SE

KWDR Airport Info (Airnav.com)

KWDR Flight Activity (Flightaware)

Listeners: 0 out of 1390 total

KWDR/KCVC/KCNI CTAF: 123.000

KCNO Ground (Archives)
Chino, California, United States

Feed Status: UP
Listen in your browser - HTML5 player(in browser, HTML5)
Click here to listen with your own player(launches your MP3 player)

KCNO 010653Z AUTO 27005KT 10SM CLR 20/14 A2999 RMK AO2 SLP149 T02000144

KCNO Airport Info (Airnav.com)

KCNO Flight Activity (Flightaware)

Listeners: 0 out of 1390 total

Chino Ground: 121.600

KCNO Ground/Tower (Archives)
Chino, California, United States

Feed Status: UP
Listen in your browser - HTML5 player(in browser, HTML5)
Click here to listen with your own player(launches your MP3 player)

KCNO 010653Z AUTO 27005KT 10SM CLR 20/14 A2999 RMK AO2 SLP149 T02000144

KCNO Airport Info (Airnav.com)

KCNO Flight Activity (Flightaware)

Listeners: 0 out of 1390 total

Chino Ground: 121.600
Chino Tower: 118.500

KCNO Tower (Archives)
Chino, California, United States

Feed Status: UP
Listen in your browser - HTML5 player(in browser, HTML5)
Click here to listen with your own player(launches your MP3 player)

KCNO 010653Z AUTO 27005KT 10SM CLR 20/14 A2999 RMK AO2 SLP149 T02000144

KCNO Airport Info (Airnav.com)

KCNO Flight Activity (Flightaware)

Listeners: 0 out of 1390 total

Chino Tower: 118.500

KCOE CTAF
Coeur d'Alene, Idaho, United States

Feed Status: DOWN
Offline since: 2022-07-01 06:20:22 UTC

KCOE 010656Z AUTO 03009KT 10SM CLR 17/09 A3001 RMK AO2 SLP167 T01670089 PNO $

KCOE Airport Info (Airnav.com)

Coeur d'Alene CTAF: 122.800

KCOE FSS
Coeur d'Alene, Idaho, United States

Feed Status: DOWN
Offline since: 2022-07-01 06:20:22 UTC

KCOE 010656Z AUTO 03009KT 10SM CLR 17/09 A3001 RMK AO2 SLP167 T01670089 PNO $

KCOE Airport Info (Airnav.com)

Flight Service: 122.550
Flight Service: 122.650
Flight Service: 122.000
Flight Service: 122.050

KCON/KDAW/KFIT CTAF (Archives)
Concord, New Hampshire, United States

Feed Status: UP
Listen in your browser - HTML5 player(in browser, HTML5)
Click here to listen with your own player(launches your MP3 player)

KMHT 010653Z 35003KT 10SM FEW150 BKN250 18/12 A3007 RMK AO2 SLP191 T01830122 $

KMHT Airport Info (Airnav.com)

KMHT Flight Activity (Flightaware)

Listeners: 0 out of 1390 total

NH/MA Area CTAF: 122.700

MA/NH/RI/CT Area CTAF (Archives)
Concord, New Hampshire, United States

Feed Status: UP
Listen in your browser - HTML5 player(in browser, HTML5)
Click here to listen with your own player(launches your MP3 player)

KBOS 010654Z 20004KT 10SM FEW100 BKN180 BKN250 20/15 A3009 RMK AO2 SLP188 T02000150

KBOS Airport Info (Airnav.com)

KBOS Flight Activity (Flightaware)

Listeners: 0 out of 1390 total

Air-to-Air: 122.750
Bridgeport Flight Service: 122.200
CTAF: 122.700
CTAF: 122.800
CTAF: 122.900
CTAF: 123.000
Emergency/Guard: 121.500

MA/NH/RI/CT Area CTAF (Archives)
Concord, New Hampshire, United States

Feed Status: UP
Listen in your browser - HTML5 player(in browser, HTML5)
Click here to listen with your own player(launches your MP3 player)

KBOS 010654Z 20004KT 10SM FEW100 BKN180 BKN250 20/15 A3009 RMK AO2 SLP188 T02000150

KBOS Airport Info (Airnav.com)

KBOS Flight Activity (Flightaware)

Listeners: 0 out of 1390 total

Air-to-Air: 122.750
Bridgeport Flight Service: 122.200
CTAF: 122.700
CTAF: 122.800
CTAF: 122.900
CTAF: 123.000
Emergency/Guard: 121.500

MA/NH/RI/CT Area CTAF (Archives)
Concord, New Hampshire, United States

Feed Status: UP
Listen in your browser - HTML5 player(in browser, HTML5)
Click here to listen with your own player(launches your MP3 player)

KBOS 010654Z 20004KT 10SM FEW100 BKN180 BKN250 20/15 A3009 RMK AO2 SLP188 T02000150

KBOS Airport Info (Airnav.com)

KBOS Flight Activity (Flightaware)

Listeners: 0 out of 1390 total

Air-to-Air: 122.750
Bridgeport Flight Service: 122.200
CTAF: 122.700
CTAF: 122.800
CTAF: 122.900
CTAF: 123.000
Emergency/Guard: 121.500

KCOU CTAF/Gnd/App
Columbia, Missouri, United States

Feed Status: DOWN
Offline since: 2022-03-26 09:48:22 UTC

KCOU 010654Z AUTO 19005KT 10SM CLR 22/14 A2999 RMK AO2 SLP147 T02220144

KCOU Airport Info (Airnav.com)

Columbia CTAF: 119.300
Columbia Ground: 121.600
Columbia UNICOM: 122.950
Mizzou Approach/Departure: 124.375

KCPM CTAF (Archives)
Compton, California, United States

Feed Status: UP
Listen in your browser - HTML5 player(in browser, HTML5)
Click here to listen with your own player(launches your MP3 player)

KCPM Airport Info (Airnav.com)

KCPM Flight Activity (Flightaware)

Listeners: 0 out of 1390 total

Compton CTAF: 123.050

KCPR Tower/App (Archives)
Casper, Wyoming, United States

Feed Status: UP
Listen in your browser - HTML5 player(in browser, HTML5)
Click here to listen with your own player(launches your MP3 player)

KCPR 010653Z AUTO 35007KT 10SM CLR 13/06 A3020 RMK AO2 SLP167 T01280061 402940089

KCPR Airport Info (Airnav.com)

KCPR Flight Activity (Flightaware)

Listeners: 0 out of 1390 total

Casper Approach: 120.650
Casper Tower: 118.300

KCPS Del/Gnd/Twr/App (Archives)
Cahokia/St Louis, Illinois, United States

Feed Status: UP
Listen in your browser - HTML5 player(in browser, HTML5)
Click here to listen with your own player(launches your MP3 player)

KCPS 010653Z AUTO 00000KT 10SM CLR 24/20 A2999 RMK AO2 SLP150 T02440200

KCPS Airport Info (Airnav.com)

KCPS Flight Activity (Flightaware)

Listeners: 0 out of 1390 total

Downtown Clearance Delivery: 118.275
Downtown Ground: 121.800
Downtown Tower: 119.925
St. Louis Approach/Departure: 123.700

KCQF CTAF/Misc (Archives)
Fairhope, Alabama, United States

Feed Status: UP
Listen in your browser - HTML5 player(in browser, HTML5)
Click here to listen with your own player(launches your MP3 player)

KCQF 010635Z AUTO 02003KT 10SM CLR 23/22 A3006 RMK AO2

KCQF Airport Info (Airnav.com)

KCQF Flight Activity (Flightaware)

Listeners: 0 out of 1390 total

Emergency/Guard: 121.500
Fairhope CTAF: 123.000

5B6/KCQX/KPVC CTAF
Chatham, Massachusetts, United States

Feed Status: DOWN
Offline since: 2021-11-19 19:34:05 UTC

KHYA 010656Z AUTO 22007KT 10SM CLR 21/17 A3010 RMK AO2 SLP194 T02060167

KHYA Airport Info (Airnav.com)

Falmouth/Chatham/Provincetown CTAF: 122.800

KCRE ATIS (Archives)
North Myrtle Beach, South Carolina, United States

Feed Status: UP
Listen in your browser - HTML5 player(in browser, HTML5)
Click here to listen with your own player(launches your MP3 player)

KCRE 010653Z AUTO 15004KT 10SM BKN019 BKN027 26/23 A3014 RMK AO1 SLP207 T02610228

KCRE Airport Info (Airnav.com)

KCRE Flight Activity (Flightaware)

Listeners: 0 out of 1390 total

Strand ATIS: 119.625

KCRE Ground/Tower (Archives)
North Myrtle Beach, South Carolina, United States

Feed Status: UP
Listen in your browser - HTML5 player(in browser, HTML5)
Click here to listen with your own player(launches your MP3 player)

KCRE 010653Z AUTO 15004KT 10SM BKN019 BKN027 26/23 A3014 RMK AO1 SLP207 T02610228

KCRE Airport Info (Airnav.com)

KCRE Flight Activity (Flightaware)

Listeners: 0 out of 1390 total

Strand Ground: 121.800
Strand Tower: 124.600

KCRE Guard (Archives)
North Myrtle Beach, South Carolina, United States

Feed Status: UP
Listen in your browser - HTML5 player(in browser, HTML5)
Click here to listen with your own player(launches your MP3 player)

KCRE 010653Z AUTO 15004KT 10SM BKN019 BKN027 26/23 A3014 RMK AO1 SLP207 T02610228

KCRE Airport Info (Airnav.com)

KCRE Flight Activity (Flightaware)

Listeners: 0 out of 1390 total

Emergency/Guard: 121.500

KCRG Gnd/Twr/App (Archives)
Jacksonville, Florida, United States

Feed Status: UP
Listen in your browser - HTML5 player(in browser, HTML5)
Click here to listen with your own player(launches your MP3 player)

KCRG 010653Z AUTO 00000KT 10SM FEW031 25/23 A3007 RMK AO2 SLP182 T02500233

KCRG Airport Info (Airnav.com)

KCRG Flight Activity (Flightaware)

Listeners: 0 out of 1390 total

Craig Clearance: 118.350
Craig Ground: 121.800
Craig Tower: 132.100
Jacksonville Approach: 118.000
Jacksonville Approach: 124.900

KCRQ Tower (Archives)
Carlsbad, California, United States

Feed Status: UP
Listen in your browser - HTML5 player(in browser, HTML5)
Click here to listen with your own player(launches your MP3 player)

KCRQ 010653Z AUTO 00000KT 10SM OVC010 19/17 A2998 RMK AO2 SLP150 T01940172

KCRQ Airport Info (Airnav.com)

KCRQ Flight Activity (Flightaware)

Listeners: 0 out of 1390 total

Palomar Tower: 118.600

KCTJ/KLGC CTAF (Archives)
Carrollton, Georgia, United States

Feed Status: UP
Listen in your browser - HTML5 player(in browser, HTML5)
Click here to listen with your own player(launches your MP3 player)

KCCO 010635Z AUTO 00000KT 10SM SCT045 23/22 A3014 RMK AO2 T02300215

KCCO Airport Info (Airnav.com)

KCCO Flight Activity (Flightaware)

Listeners: 0 out of 1390 total

KCTJ/KLGC CTAF: 122.975

51FL/KCDK/KCTY/X60 CTAF
Cross City, Florida, United States

Feed Status: DOWN
Offline since: 2022-01-17 21:16:04 UTC

Cedar Key CTAF: 122.900
Cross City CTAF: 122.800
Emergency/Guard: 121.500
Jacksonville Approach/Departure: 118.600
Jacksonville Center: 127.800
Williston CTAF: 122.975

KCUB CTAF (Archives)
Columbia, South Carolina, United States

Feed Status: UP
Listen in your browser - HTML5 player(in browser, HTML5)
Click here to listen with your own player(launches your MP3 player)

KCUB 010653Z AUTO 00000KT 9SM FEW120 24/23 A3014 RMK AO2 RAB17E42 SLP202 P0000 T02440233

KCUB Airport Info (Airnav.com)

KCUB Flight Activity (Flightaware)

Listeners: 0 out of 1390 total

Columbia CTAF: 123.075

KWDR/KCVC/KCNI CTAF (Archives)
Atlanta, Georgia, United States

Feed Status: UP
Listen in your browser - HTML5 player(in browser, HTML5)
Click here to listen with your own player(launches your MP3 player)

KWDR 010635Z AUTO 00000KT 10SM BKN055 22/20 A3018 RMK AO2 LTG DSNT SE

KWDR Airport Info (Airnav.com)

KWDR Flight Activity (Flightaware)

Listeners: 0 out of 1390 total

KWDR/KCVC/KCNI CTAF: 123.000

KCVO CTAF/Misc (Archives)
Corvallis, Oregon, United States

Feed Status: UP
Listen in your browser - HTML5 player(in browser, HTML5)
Click here to listen with your own player(launches your MP3 player)

KCVO 010656Z AUTO 30015G19KT 10SM CLR 14/12 A3008 RMK AO2 SLP186 T01390117

KCVO Airport Info (Airnav.com)

KCVO Flight Activity (Flightaware)

Listeners: 1 out of 1390 total

Cascade Approach: 127.500
Cascade Approach: 119.600
Corvallis CTAF: 123.075
Seattle Center (Sector 6 Low): 125.800

Houston App/Dep (119.7) (Archives)
Houston, Texas, United States

Feed Status: UP
Listen in your browser - HTML5 player(in browser, HTML5)
Click here to listen with your own player(launches your MP3 player)

KCXO 010653Z AUTO 09004KT 10SM CLR 23/22 A2999 RMK AO2 SLP150 T02280222

KCXO Airport Info (Airnav.com)

KCXO Flight Activity (Flightaware)

Listeners: 0 out of 1390 total

Houston Approach/Departure: 119.700

KCXO ATIS (Archives)
Houston, Texas, United States

Feed Status: UP
Listen in your browser - HTML5 player(in browser, HTML5)
Click here to listen with your own player(launches your MP3 player)

KCXO 010653Z AUTO 09004KT 10SM CLR 23/22 A2999 RMK AO2 SLP150 T02280222

KCXO Airport Info (Airnav.com)

KCXO Flight Activity (Flightaware)

Listeners: 0 out of 1390 total

Conroe ATIS: 118.325

KCXO Ground (Archives)
Houston, Texas, United States

Feed Status: UP
Listen in your browser - HTML5 player(in browser, HTML5)
Click here to listen with your own player(launches your MP3 player)

KCXO 010653Z AUTO 09004KT 10SM CLR 23/22 A2999 RMK AO2 SLP150 T02280222

KCXO Airport Info (Airnav.com)

KCXO Flight Activity (Flightaware)

Listeners: 0 out of 1390 total

Conroe Ground: 120.450

KCXO Ground/Tower (Archives)
Houston, Texas, United States

Feed Status: UP
Listen in your browser - HTML5 player(in browser, HTML5)
Click here to listen with your own player(launches your MP3 player)

KCXO 010653Z AUTO 09004KT 10SM CLR 23/22 A2999 RMK AO2 SLP150 T02280222

KCXO Airport Info (Airnav.com)

KCXO Flight Activity (Flightaware)

Listeners: 0 out of 1390 total

Conroe Ground: 120.450
Conroe Tower: 124.125

KCXO Tower (Archives)
Houston, Texas, United States

Feed Status: UP
Listen in your browser - HTML5 player(in browser, HTML5)
Click here to listen with your own player(launches your MP3 player)

KCXO 010653Z AUTO 09004KT 10SM CLR 23/22 A2999 RMK AO2 SLP150 T02280222

KCXO Airport Info (Airnav.com)

KCXO Flight Activity (Flightaware)

Listeners: 0 out of 1390 total

Conroe Tower: 124.125

KCXP CTAF (Archives)
Carson City, Nevada, United States

Feed Status: UP
Listen in your browser - HTML5 player(in browser, HTML5)
Click here to listen with your own player(launches your MP3 player)

KCXP 010655Z AUTO 31007G14KT 10SM CLR 21/M01 A3012 RMK AO2

KCXP Airport Info (Airnav.com)

KCXP Flight Activity (Flightaware)

Listeners: 0 out of 1390 total

Carson City CTAF: 123.000

KCXY Ground (Archives)
Harrisburg, Pennsylvania, United States

Feed Status: UP
Listen in your browser - HTML5 player(in browser, HTML5)
Click here to listen with your own player(launches your MP3 player)

KMDT 010656Z 16006KT 10SM FEW085 23/17 A3009 RMK AO2 SLP186 T02280172

KMDT Airport Info (Airnav.com)

KMDT Flight Activity (Flightaware)

Listeners: 0 out of 1390 total

Capital City Ground: 121.900

KCXY Ground/Tower (Archives)
Harrisburg, Pennsylvania, United States

Feed Status: UP
Listen in your browser - HTML5 player(in browser, HTML5)
Click here to listen with your own player(launches your MP3 player)

KMDT 010656Z 16006KT 10SM FEW085 23/17 A3009 RMK AO2 SLP186 T02280172

KMDT Airport Info (Airnav.com)

KMDT Flight Activity (Flightaware)

Listeners: 0 out of 1390 total

Capital City Ground: 121.900
Capital City Tower: 119.500

KCXY Tower (Archives)
Harrisburg, Pennsylvania, United States

Feed Status: UP
Listen in your browser - HTML5 player(in browser, HTML5)
Click here to listen with your own player(launches your MP3 player)

KMDT 010656Z 16006KT 10SM FEW085 23/17 A3009 RMK AO2 SLP186 T02280172

KMDT Airport Info (Airnav.com)

KMDT Flight Activity (Flightaware)

Listeners: 0 out of 1390 total

Capital City Tower: 119.500

KCYS Gnd/Twr/App/Center (Archives)
Cheyenne, Wyoming, United States

Feed Status: UP
Listen in your browser - HTML5 player(in browser, HTML5)
Click here to listen with your own player(launches your MP3 player)

KCYS 010653Z AUTO 00000KT 10SM CLR 13/11 A3027 RMK AO2 SLP167 T01280111 402890128 $

KCYS Airport Info (Airnav.com)

KCYS Flight Activity (Flightaware)

Listeners: 3 out of 1390 total

Cheyenne Approach: 124.550
Cheyenne Ground: 121.900
Cheyenne Tower: 118.700
Denver Center (Sector 21 Cheyenne Low): 125.900
Emergency/Guard: 121.500

KDAA/KADW Tower (Archives)
Fort Belvoir, Virginia, United States

Feed Status: UP
Listen in your browser - HTML5 player(in browser, HTML5)
Click here to listen with your own player(launches your MP3 player)

KDAA 010556Z AUTO 00000KT 10SM CLR 21/21 A3011 RMK AO2 SLP198 T02100210 10273 20210 57006 $

KDAA Airport Info (Airnav.com)

KDAA Flight Activity (Flightaware)

Listeners: 0 out of 1390 total

Andrews Tower: 118.400
Andrews Tower: 349.000
Davison Tower: 241.000
Davison Tower: 126.300
Davison Tower: 229.400

KCON/KDAW/KFIT CTAF (Archives)
Rochester, New Hampshire, United States

Feed Status: UP
Listen in your browser - HTML5 player(in browser, HTML5)
Click here to listen with your own player(launches your MP3 player)

KMHT 010653Z 35003KT 10SM FEW150 BKN250 18/12 A3007 RMK AO2 SLP191 T01830122 $

KMHT Airport Info (Airnav.com)

KMHT Flight Activity (Flightaware)

Listeners: 0 out of 1390 total

NH/MA Area CTAF: 122.700

KDBQ ATIS (Archives)
Dubuque, Iowa, United States

Feed Status: UP
Listen in your browser - HTML5 player(in browser, HTML5)
Click here to listen with your own player(launches your MP3 player)

KDBQ 010653Z AUTO 20005KT 10SM OVC080 23/18 A2992 RMK AO2 SLP124 T02280178

KDBQ Airport Info (Airnav.com)

KDBQ Flight Activity (Flightaware)

Listeners: 0 out of 1390 total

Dubuque ATIS: 127.250

KDBQ Ground (Archives)
Dubuque, Iowa, United States

Feed Status: UP
Listen in your browser - HTML5 player(in browser, HTML5)
Click here to listen with your own player(launches your MP3 player)

KDBQ 010653Z AUTO 20005KT 10SM OVC080 23/18 A2992 RMK AO2 SLP124 T02280178

KDBQ Airport Info (Airnav.com)

KDBQ Flight Activity (Flightaware)

Listeners: 0 out of 1390 total

Dubuque Ground: 121.800

KDBQ Ground/Tower (Archives)
Dubuque, Iowa, United States

Feed Status: UP
Listen in your browser - HTML5 player(in browser, HTML5)
Click here to listen with your own player(launches your MP3 player)

KDBQ 010653Z AUTO 20005KT 10SM OVC080 23/18 A2992 RMK AO2 SLP124 T02280178

KDBQ Airport Info (Airnav.com)

KDBQ Flight Activity (Flightaware)

Listeners: 0 out of 1390 total

Dubuque Ground: 121.800
Dubuque Tower: 119.500

KDBQ Guard (Archives)
Dubuque, Iowa, United States

Feed Status: UP
Listen in your browser - HTML5 player(in browser, HTML5)
Click here to listen with your own player(launches your MP3 player)

KDBQ 010653Z AUTO 20005KT 10SM OVC080 23/18 A2992 RMK AO2 SLP124 T02280178

KDBQ Airport Info (Airnav.com)

KDBQ Flight Activity (Flightaware)

Listeners: 0 out of 1390 total

Emergency/Guard: 121.500

KDBQ Tower (Archives)
Dubuque, Iowa, United States

Feed Status: UP
Listen in your browser - HTML5 player(in browser, HTML5)
Click here to listen with your own player(launches your MP3 player)

KDBQ 010653Z AUTO 20005KT 10SM OVC080 23/18 A2992 RMK AO2 SLP124 T02280178

KDBQ Airport Info (Airnav.com)

KDBQ Flight Activity (Flightaware)

Listeners: 0 out of 1390 total

Dubuque Tower: 119.500

KDED CTAF/Misc (Archives)
DeLand, Florida, United States

Feed Status: UP
Listen in your browser - HTML5 player(in browser, HTML5)
Click here to listen with your own player(launches your MP3 player)

KDED 010635Z AUTO 00000KT 10SM CLR 24/23 A3010 RMK AO2 LTG DSNT NE T02380226

KDED Airport Info (Airnav.com)

KDED Flight Activity (Flightaware)

Listeners: 0 out of 1390 total

DeLand CTAF/UNICOM: 123.075
Skydive DeLand: 122.850

KDED/1J6 CTAF/UNICOM (Archives)
DeLand, Florida, United States

Feed Status: UP
Listen in your browser - HTML5 player(in browser, HTML5)
Click here to listen with your own player(launches your MP3 player)

KDED 010635Z AUTO 00000KT 10SM CLR 24/23 A3010 RMK AO2 LTG DSNT NE T02380226

KDED Airport Info (Airnav.com)

KDED Flight Activity (Flightaware)

Listeners: 0 out of 1390 total

DeLand CTAF/UNICOM: 123.075

KDLH Gnd/Twr/App (Archives)
Duluth, Minnesota, United States

Feed Status: UP
Listen in your browser - HTML5 player(in browser, HTML5)
Click here to listen with your own player(launches your MP3 player)

KDLH 010655Z 30005KT 10SM CLR 13/10 A2996 RMK AO2 SLP142 T01330100

KDLH Airport Info (Airnav.com)

KDLH Flight Activity (Flightaware)

Listeners: 0 out of 1390 total

Duluth Approach/Departure: 125.450
Duluth Ground: 121.900
Duluth Tower: 118.300

KDOV App/Dep (Archives)
Dover, Delaware, United States

Feed Status: UP
Listen in your browser - HTML5 player(in browser, HTML5)
Click here to listen with your own player(launches your MP3 player)

KDOV 010556Z AUTO 18006KT 10SM CLR 22/22 A3012 RMK AO2 SLP203 T02210219 10278 20221 57007

KDOV Airport Info (Airnav.com)

KDOV Flight Activity (Flightaware)

Listeners: 0 out of 1390 total

Dover Approach/Departure: 132.425

KDOV ATIS (Archives)
Dover, Delaware, United States

Feed Status: UP
Listen in your browser - HTML5 player(in browser, HTML5)
Click here to listen with your own player(launches your MP3 player)

KDOV 010556Z AUTO 18006KT 10SM CLR 22/22 A3012 RMK AO2 SLP203 T02210219 10278 20221 57007

KDOV Airport Info (Airnav.com)

KDOV Flight Activity (Flightaware)

Listeners: 0 out of 1390 total

Dover ATIS: 127.825

KDOV Del/Gnd/Twr (Archives)
Dover, Delaware, United States

Feed Status: UP
Listen in your browser - HTML5 player(in browser, HTML5)
Click here to listen with your own player(launches your MP3 player)

KDOV 010556Z AUTO 18006KT 10SM CLR 22/22 A3012 RMK AO2 SLP203 T02210219 10278 20221 57007

KDOV Airport Info (Airnav.com)

KDOV Flight Activity (Flightaware)

Listeners: 0 out of 1390 total

Dover Clearance Delivery: 118.050
Dover Clearance Delivery: 125.550
Dover Ground: 118.875
Dover Tower: 126.350

KDOV Gnd/App (Archives)
Dover, Delaware, United States

Feed Status: UP
Listen in your browser - HTML5 player(in browser, HTML5)
Click here to listen with your own player(launches your MP3 player)

KDOV 010556Z AUTO 18006KT 10SM CLR 22/22 A3012 RMK AO2 SLP203 T02210219 10278 20221 57007

KDOV Airport Info (Airnav.com)

KDOV Flight Activity (Flightaware)

Listeners: 0 out of 1390 total

Dover Approach/Departure: 132.425
Dover Ground: 118.875

KDOV Tower (Archives)
Dover, Delaware, United States

Feed Status: UP
Listen in your browser - HTML5 player(in browser, HTML5)
Click here to listen with your own player(launches your MP3 player)

KDOV 010556Z AUTO 18006KT 10SM CLR 22/22 A3012 RMK AO2 SLP203 T02210219 10278 20221 57007

KDOV Airport Info (Airnav.com)

KDOV Flight Activity (Flightaware)

Listeners: 0 out of 1390 total

Dover Tower: 126.350

KDPA ATIS (Archives)
Chicago, Illinois, United States

Feed Status: UP
Listen in your browser - HTML5 player(in browser, HTML5)
Click here to listen with your own player(launches your MP3 player)

KDPA 010652Z AUTO 21009KT 10SM CLR 24/15 A2993 RMK AO2 SLP128 T02390150

KDPA Airport Info (Airnav.com)

KDPA Flight Activity (Flightaware)

Listeners: 0 out of 1390 total

DuPage ATIS: 132.075

KDPA Chicago Approach (Archives)
Chicago, Illinois, United States

Feed Status: UP
Listen in your browser - HTML5 player(in browser, HTML5)
Click here to listen with your own player(launches your MP3 player)

KORD 010651Z 21009KT 10SM SCT150 BKN250 26/14 A2992 RMK AO2 SLP126 T02560139

KORD Airport Info (Airnav.com)

KORD Flight Activity (Flightaware)

Listeners: 0 out of 1390 total

Chicago Approach/Departure: 133.500

KDPA Del/Gnd/Twr/Misc (Archives)
Chicago, Illinois, United States

Feed Status: UP
Listen in your browser - HTML5 player(in browser, HTML5)
Click here to listen with your own player(launches your MP3 player)

KDPA 010652Z AUTO 21009KT 10SM CLR 24/15 A2993 RMK AO2 SLP128 T02390150

KDPA Airport Info (Airnav.com)

KDPA Flight Activity (Flightaware)

Listeners: 0 out of 1390 total

DuPage Clearance Delivery: 119.750
DuPage Flight Center (FBO): 464.375
DuPage Ground: 121.800
DuPage Ground Operations: 469.5875
DuPage Ground Operations: 453.225
DuPage Ground Operations (Airport Authority): 453.500
DuPage Tower: 120.900
DuPage UNICOM ("Flight Center"): 122.950
Flight Service Station (FSS) RCO: 122.550

KDTO ASOS (Archives)
Denton, Texas, United States

Feed Status: UP
Listen in your browser - HTML5 player(in browser, HTML5)
Click here to listen with your own player(launches your MP3 player)

KDTO 010653Z AUTO 16012KT 10SM CLR 28/20 A2997 RMK AO2 SLP138 T02830200

KDTO Airport Info (Airnav.com)

KDTO Flight Activity (Flightaware)

Listeners: 0 out of 1390 total

Denton ASOS: 119.325

KDTO Gnd/Twr (Archives)
Denton, Texas, United States

Feed Status: UP
Listen in your browser - HTML5 player(in browser, HTML5)
Click here to listen with your own player(launches your MP3 player)

KDTO 010653Z AUTO 16012KT 10SM CLR 28/20 A2997 RMK AO2 SLP138 T02830200

KDTO Airport Info (Airnav.com)

KDTO Flight Activity (Flightaware)

Listeners: 0 out of 1390 total

Denton Ground: 123.950
Denton Tower: 119.950

KDTO Tower (Archives)
Denton, Texas, United States

Feed Status: UP
Listen in your browser - HTML5 player(in browser, HTML5)
Click here to listen with your own player(launches your MP3 player)

KDTO 010653Z AUTO 16012KT 10SM CLR 28/20 A2997 RMK AO2 SLP138 T02830200

KDTO Airport Info (Airnav.com)

KDTO Flight Activity (Flightaware)

Listeners: 1 out of 1390 total

Denton Tower: 119.950

KDVO CTAF (Archives)
Novato, California, United States

Feed Status: UP
Listen in your browser - HTML5 player(in browser, HTML5)
Click here to listen with your own player(launches your MP3 player)

KDVO 010635Z AUTO 00000KT 10SM CLR 12/10 A3001 RMK AO2

KDVO Airport Info (Airnav.com)

KDVO Flight Activity (Flightaware)

Listeners: 0 out of 1390 total

Novato CTAF: 123.075

KDVT ATIS (Archives)
Phoenix, Arizona, United States

Feed Status: UP
Listen in your browser - HTML5 player(in browser, HTML5)
Click here to listen with your own player(launches your MP3 player)

KDVT 010653Z AUTO 22006KT 10SM CLR 34/13 A2987 RMK AO2 SLP086 T03390133 403940289

KDVT Airport Info (Airnav.com)

KDVT Flight Activity (Flightaware)

Listeners: 0 out of 1390 total

Deer Valley ATIS: 126.500

KDVT Clearance Delivery (Archives)
Phoenix, Arizona, United States

Feed Status: UP
Listen in your browser - HTML5 player(in browser, HTML5)
Click here to listen with your own player(launches your MP3 player)

KDVT 010653Z AUTO 22006KT 10SM CLR 34/13 A2987 RMK AO2 SLP086 T03390133 403940289

KDVT Airport Info (Airnav.com)

KDVT Flight Activity (Flightaware)

Listeners: 0 out of 1390 total

Deer Valley Clearance Delivery: 123.900

KDVT Delivery/Ground (Archives)
Phoenix, Arizona, United States

Feed Status: UP
Listen in your browser - HTML5 player(in browser, HTML5)
Click here to listen with your own player(launches your MP3 player)

KDVT 010653Z AUTO 22006KT 10SM CLR 34/13 A2987 RMK AO2 SLP086 T03390133 403940289

KDVT Airport Info (Airnav.com)

KDVT Flight Activity (Flightaware)

Listeners: 0 out of 1390 total

Deer Valley Clearance Delivery: 123.900
Deer Valley Ground: 121.800

KDVT Ground (Archives)
Phoenix, Arizona, United States

Feed Status: UP
Listen in your browser - HTML5 player(in browser, HTML5)
Click here to listen with your own player(launches your MP3 player)

KDVT 010653Z AUTO 22006KT 10SM CLR 34/13 A2987 RMK AO2 SLP086 T03390133 403940289

KDVT Airport Info (Airnav.com)

KDVT Flight Activity (Flightaware)

Listeners: 0 out of 1390 total

Deer Valley Ground: 121.800

KDVT Tower (Both) (Archives)
Phoenix, Arizona, United States

Feed Status: UP
Listen in your browser - HTML5 player(in browser, HTML5)
Click here to listen with your own player(launches your MP3 player)

KDVT 010653Z AUTO 22006KT 10SM CLR 34/13 A2987 RMK AO2 SLP086 T03390133 403940289

KDVT Airport Info (Airnav.com)

KDVT Flight Activity (Flightaware)

Listeners: 0 out of 1390 total

Deer Valley Tower (North): 120.200
Deer Valley Tower (South): 118.400

KDVT Tower (North) (Archives)
Phoenix, Arizona, United States

Feed Status: UP
Listen in your browser - HTML5 player(in browser, HTML5)
Click here to listen with your own player(launches your MP3 player)

KDVT 010653Z AUTO 22006KT 10SM CLR 34/13 A2987 RMK AO2 SLP086 T03390133 403940289

KDVT Airport Info (Airnav.com)

KDVT Flight Activity (Flightaware)

Listeners: 0 out of 1390 total

Deer Valley Tower (North): 120.200

KDVT Tower (South) (Archives)
Phoenix, Arizona, United States

Feed Status: UP
Listen in your browser - HTML5 player(in browser, HTML5)
Click here to listen with your own player(launches your MP3 player)

KDVT 010653Z AUTO 22006KT 10SM CLR 34/13 A2987 RMK AO2 SLP086 T03390133 403940289

KDVT Airport Info (Airnav.com)

KDVT Flight Activity (Flightaware)

Listeners: 0 out of 1390 total

Deer Valley Tower (South): 118.400

KDWH Del/ Gnd/Twr
Houston, Texas, United States

Feed Status: DOWN
Offline since: 2022-06-29 10:10:39 UTC

KDWH 010653Z AUTO 00000KT 10SM CLR 24/23 A2997 RMK AO2 SLP146 T02440228

KDWH Airport Info (Airnav.com)

Hooks Clearance Delivery: 119.450
Hooks Ground: 121.800
Hooks Tower (E): 127.400
Hooks Tower (W): 118.400
Hooks UNICOM: 122.950

KDXR ATIS (Archives)
Danbury, Connecticut, United States

Feed Status: UP
Listen in your browser - HTML5 player(in browser, HTML5)
Click here to listen with your own player(launches your MP3 player)

KDXR 010653Z AUTO 00000KT 10SM CLR 18/16 A3012 RMK AO2 SLP195 T01780156

KDXR Airport Info (Airnav.com)

KDXR Flight Activity (Flightaware)

Listeners: 0 out of 1390 total

Danbury ATIS: 127.750

KDXR Ground/Tower (Archives)
Danbury, Connecticut, United States

Feed Status: UP
Listen in your browser - HTML5 player(in browser, HTML5)
Click here to listen with your own player(launches your MP3 player)

KDXR 010653Z AUTO 00000KT 10SM CLR 18/16 A3012 RMK AO2 SLP195 T01780156

KDXR Airport Info (Airnav.com)

KDXR Flight Activity (Flightaware)

Listeners: 0 out of 1390 total

Danbury Ground: 121.600
Danbury Tower: 119.400

KDYB CTAF (Archives)
Summerville, South Carolina, United States

Feed Status: UP
Listen in your browser - HTML5 player(in browser, HTML5)
Click here to listen with your own player(launches your MP3 player)

KDYB 010655Z AUTO 00000KT 9SM FEW016 BKN030 BKN037 23/23 A3012 RMK AO2

KDYB Airport Info (Airnav.com)

KDYB Flight Activity (Flightaware)

Listeners: 0 out of 1390 total

Summerville CTAF: 123.000

KDYL CTAF #1 (Archives)
Doylestown, Pennsylvania, United States

Feed Status: UP
Listen in your browser - HTML5 player(in browser, HTML5)
Click here to listen with your own player(launches your MP3 player)

KDYL 010654Z AUTO 17003KT 10SM CLR 19/17 A3012 RMK AO2 SLP193 T01940167

KDYL Airport Info (Airnav.com)

KDYL Flight Activity (Flightaware)

Listeners: 0 out of 1390 total

Doylestown CTAF/UNICOM: 122.975

KDYL CTAF #2 (Archives)
Doylestown, Pennsylvania, United States

Feed Status: UP
Listen in your browser - HTML5 player(in browser, HTML5)
Click here to listen with your own player(launches your MP3 player)

KDYL 010654Z AUTO 17003KT 10SM CLR 19/17 A3012 RMK AO2 SLP193 T01940167

KDYL Airport Info (Airnav.com)

KDYL Flight Activity (Flightaware)

Listeners: 0 out of 1390 total

Doylestown CTAF/UNICOM: 122.975

KEAR AWOS (Archives)
Kearney, Nebraska, United States

Feed Status: UP
Listen in your browser - HTML5 player(in browser, HTML5)
Click here to listen with your own player(launches your MP3 player)

KEAR 010656Z AUTO 03010KT 10SM BKN110 23/16 A3004 RMK AO2 LTG DSNT NE SLP150 T02280161

KEAR Airport Info (Airnav.com)

KEAR Flight Activity (Flightaware)

Listeners: 0 out of 1390 total

Kearney AWOS: 123.875

KEAR Columbus Radio (Archives)
Kearney, Nebraska, United States

Feed Status: UP
Listen in your browser - HTML5 player(in browser, HTML5)
Click here to listen with your own player(launches your MP3 player)

KEAR 010656Z AUTO 03010KT 10SM BKN110 23/16 A3004 RMK AO2 LTG DSNT NE SLP150 T02280161

KEAR Airport Info (Airnav.com)

KEAR Flight Activity (Flightaware)

Listeners: 1 out of 1390 total

Columbus Radio: 122.550

KEAR CTAF (Archives)
Kearney, Nebraska, United States

Feed Status: UP
Listen in your browser - HTML5 player(in browser, HTML5)
Click here to listen with your own player(launches your MP3 player)

KEAR 010656Z AUTO 03010KT 10SM BKN110 23/16 A3004 RMK AO2 LTG DSNT NE SLP150 T02280161

KEAR Airport Info (Airnav.com)

KEAR Flight Activity (Flightaware)

Listeners: 0 out of 1390 total

Kearney CTAF: 123.000

KEAU Tower (Archives)
Eau Claire, Wisconsin, United States

Feed Status: UP
Listen in your browser - HTML5 player(in browser, HTML5)
Click here to listen with your own player(launches your MP3 player)

KEAU 010656Z AUTO 34004KT 10SM CLR 19/13 A2994 RMK AO2 SLP135 T01890133

KEAU Airport Info (Airnav.com)

KEAU Flight Activity (Flightaware)

Listeners: 0 out of 1390 total

Eau Claire Tower: 118.575

KEDC ATIS (Archives)
Austin, Texas, United States

Feed Status: UP
Listen in your browser - HTML5 player(in browser, HTML5)
Click here to listen with your own player(launches your MP3 player)

KEDC 010635Z AUTO 14003KT 10SM BKN017 OVC049 24/22 A2998 RMK AO2

KEDC Airport Info (Airnav.com)

KEDC Flight Activity (Flightaware)

Listeners: 0 out of 1390 total

Executive ATIS/AWOS: 118.825

KEDC Austin App/Dep (Archives)
Austin, Texas, United States

Feed Status: UP
Listen in your browser - HTML5 player(in browser, HTML5)
Click here to listen with your own player(launches your MP3 player)

KEDC 010635Z AUTO 14003KT 10SM BKN017 OVC049 24/22 A2998 RMK AO2

KEDC Airport Info (Airnav.com)

KEDC Flight Activity (Flightaware)

Listeners: 0 out of 1390 total

Auston Approach/Departure: 127.225

KEDC Clearance Delivery (Archives)
Austin, Texas, United States

Feed Status: UP
Listen in your browser - HTML5 player(in browser, HTML5)
Click here to listen with your own player(launches your MP3 player)

KEDC 010635Z AUTO 14003KT 10SM BKN017 OVC049 24/22 A2998 RMK AO2

KEDC Airport Info (Airnav.com)

KEDC Flight Activity (Flightaware)

Listeners: 0 out of 1390 total

Executive Clearance Delivery (when Tower is closed): 126.025

KEDC Clearance/Ground (Archives)
Austin, Texas, United States

Feed Status: UP
Listen in your browser - HTML5 player(in browser, HTML5)
Click here to listen with your own player(launches your MP3 player)

KEDC 010635Z AUTO 14003KT 10SM BKN017 OVC049 24/22 A2998 RMK AO2

KEDC Airport Info (Airnav.com)

KEDC Flight Activity (Flightaware)

Listeners: 0 out of 1390 total

Executive Clearance Delivery (when Tower is closed): 126.025
Executive Ground: 119.450

KEDC Del/Gnd/Twr (Archives)
Austin, Texas, United States

Feed Status: UP
Listen in your browser - HTML5 player(in browser, HTML5)
Click here to listen with your own player(launches your MP3 player)

KEDC 010635Z AUTO 14003KT 10SM BKN017 OVC049 24/22 A2998 RMK AO2

KEDC Airport Info (Airnav.com)

KEDC Flight Activity (Flightaware)

Listeners: 0 out of 1390 total

Executive Ground: 119.450
Executive Tower: 120.300

KEDC Ground (Archives)
Austin, Texas, United States

Feed Status: UP
Listen in your browser - HTML5 player(in browser, HTML5)
Click here to listen with your own player(launches your MP3 player)

KEDC 010635Z AUTO 14003KT 10SM BKN017 OVC049 24/22 A2998 RMK AO2

KEDC Airport Info (Airnav.com)

KEDC Flight Activity (Flightaware)

Listeners: 0 out of 1390 total

Executive Ground: 119.450

KEDC Ground/Tower (Archives)
Austin, Texas, United States

Feed Status: UP
Listen in your browser - HTML5 player(in browser, HTML5)
Click here to listen with your own player(launches your MP3 player)

KEDC 010635Z AUTO 14003KT 10SM BKN017 OVC049 24/22 A2998 RMK AO2

KEDC Airport Info (Airnav.com)

KEDC Flight Activity (Flightaware)

Listeners: 0 out of 1390 total

Executive Ground: 119.450
Executive Tower: 120.300

KEDC Tower (Archives)
Austin, Texas, United States

Feed Status: UP
Listen in your browser - HTML5 player(in browser, HTML5)
Click here to listen with your own player(launches your MP3 player)

KEDC 010635Z AUTO 14003KT 10SM BKN017 OVC049 24/22 A2998 RMK AO2

KEDC Airport Info (Airnav.com)

KEDC Flight Activity (Flightaware)

Listeners: 0 out of 1390 total

Executive Tower: 120.300

KEDU CTAF
Davis, California, United States

Feed Status: DOWN
Offline since: 2022-06-29 10:41:57 UTC

KEDU 010655Z AUTO 10SM CLR 15/10 A2991 RMK AO1

KEDU Airport Info (Airnav.com)

University CTAF: 123.075

KEEN CTAF (Archives)
Keene, New Hampshire, United States

Feed Status: UP
Listen in your browser - HTML5 player(in browser, HTML5)
Click here to listen with your own player(launches your MP3 player)

KMHT 010653Z 35003KT 10SM FEW150 BKN250 18/12 A3007 RMK AO2 SLP191 T01830122 $

KMHT Airport Info (Airnav.com)

KMHT Flight Activity (Flightaware)

Listeners: 0 out of 1390 total

Keene CTAF: 123.000

MA/NH/RI/CT Area CTAF (Archives)
Keene, New Hampshire, United States

Feed Status: UP
Listen in your browser - HTML5 player(in browser, HTML5)
Click here to listen with your own player(launches your MP3 player)

KBOS 010654Z 20004KT 10SM FEW100 BKN180 BKN250 20/15 A3009 RMK AO2 SLP188 T02000150

KBOS Airport Info (Airnav.com)

KBOS Flight Activity (Flightaware)

Listeners: 0 out of 1390 total

Air-to-Air: 122.750
Bridgeport Flight Service: 122.200
CTAF: 122.700
CTAF: 122.800
CTAF: 122.900
CTAF: 123.000
Emergency/Guard: 121.500

MA/NH/RI/CT Area CTAF (Archives)
Keene, New Hampshire, United States

Feed Status: UP
Listen in your browser - HTML5 player(in browser, HTML5)
Click here to listen with your own player(launches your MP3 player)

KBOS 010654Z 20004KT 10SM FEW100 BKN180 BKN250 20/15 A3009 RMK AO2 SLP188 T02000150

KBOS Airport Info (Airnav.com)

KBOS Flight Activity (Flightaware)

Listeners: 0 out of 1390 total

Air-to-Air: 122.750
Bridgeport Flight Service: 122.200
CTAF: 122.700
CTAF: 122.800
CTAF: 122.900
CTAF: 123.000
Emergency/Guard: 121.500

MA/NH/RI/CT Area CTAF (Archives)
Keene, New Hampshire, United States

Feed Status: UP
Listen in your browser - HTML5 player(in browser, HTML5)
Click here to listen with your own player(launches your MP3 player)

KBOS 010654Z 20004KT 10SM FEW100 BKN180 BKN250 20/15 A3009 RMK AO2 SLP188 T02000150

KBOS Airport Info (Airnav.com)

KBOS Flight Activity (Flightaware)

Listeners: 0 out of 1390 total

Air-to-Air: 122.750
Bridgeport Flight Service: 122.200
CTAF: 122.700
CTAF: 122.800
CTAF: 122.900
CTAF: 123.000
Emergency/Guard: 121.500

KEFD Tower (Archives)
Houston, Texas, United States

Feed Status: UP
Listen in your browser - HTML5 player(in browser, HTML5)
Click here to listen with your own player(launches your MP3 player)

KEFD 010654Z 09004KT 10SM BKN034 26/25 A2995

KEFD Airport Info (Airnav.com)

KEFD Flight Activity (Flightaware)

Listeners: 0 out of 1390 total

Ellington Tower: 126.050

KFTG/KEIK/KBDU/KLMO/Misc (Archives)
Erie, Colorado, United States

Feed Status: UP
Listen in your browser - HTML5 player(in browser, HTML5)
Click here to listen with your own player(launches your MP3 player)

KDEN 010653Z 25006KT 10SM SCT180 BKN220 15/10 A3026 RMK AO2 SLP178 T01500100 402780139

KDEN Airport Info (Airnav.com)

KDEN Flight Activity (Flightaware)

Listeners: 0 out of 1390 total

Air-to-Air Fixed Wing: 122.750
Air-to-Air Informal: 123.450
Boulder CTAF: 122.725
Erie CTAF: 123.000
Front Range Tower: 120.200
KBKF Tower: 121.000
Longmont CTAF: 122.975
MULTICOM: 122.900
UNICOM: 122.950

KELM App/Dep (Archives)
Elmira, New York, United States

Feed Status: UP
Listen in your browser - HTML5 player(in browser, HTML5)
Click here to listen with your own player(launches your MP3 player)

KELM 010653Z AUTO 05003KT 10SM CLR 16/13 A3006 RMK AO2 SLP174 T01560128

KELM Airport Info (Airnav.com)

KELM Flight Activity (Flightaware)

Listeners: 0 out of 1390 total

Elmira Approach/Departure: 128.425
Elmira Approach/Departure (Backup): 118.150
Elmira Approach/Departure (Ithica): 124.300

KELM ATIS (Archives)
Elmira, New York, United States

Feed Status: UP
Listen in your browser - HTML5 player(in browser, HTML5)
Click here to listen with your own player(launches your MP3 player)

KELM 010653Z AUTO 05003KT 10SM CLR 16/13 A3006 RMK AO2 SLP174 T01560128

KELM Airport Info (Airnav.com)

KELM Flight Activity (Flightaware)

Listeners: 0 out of 1390 total

Elmira ATIS: 125.475

KELM Del/Gnd/Twr/App (Archives)
Elmira, New York, United States

Feed Status: UP
Listen in your browser - HTML5 player(in browser, HTML5)
Click here to listen with your own player(launches your MP3 player)

KELM 010653Z AUTO 05003KT 10SM CLR 16/13 A3006 RMK AO2 SLP174 T01560128

KELM Airport Info (Airnav.com)

KELM Flight Activity (Flightaware)

Listeners: 0 out of 1390 total

Elmira Approach/Departure: 128.425
Elmira Approach/Departure (Backup): 118.150
Elmira Approach/Departure (Ithica): 124.300
Elmira Clearance Delivery/Ground: 121.900
Elmira Tower: 121.100

KELM Del/Ground (Archives)
Elmira, New York, United States

Feed Status: UP
Listen in your browser - HTML5 player(in browser, HTML5)
Click here to listen with your own player(launches your MP3 player)

KELM 010653Z AUTO 05003KT 10SM CLR 16/13 A3006 RMK AO2 SLP174 T01560128

KELM Airport Info (Airnav.com)

KELM Flight Activity (Flightaware)

Listeners: 0 out of 1390 total

Elmira Clearance Delivery/Ground: 121.900

KELM Emergency/Guard (Archives)
Elmira, New York, United States

Feed Status: UP
Listen in your browser - HTML5 player(in browser, HTML5)
Click here to listen with your own player(launches your MP3 player)

KELM 010653Z AUTO 05003KT 10SM CLR 16/13 A3006 RMK AO2 SLP174 T01560128

KELM Airport Info (Airnav.com)

KELM Flight Activity (Flightaware)

Listeners: 0 out of 1390 total

Emergency/Guard: 121.500

KELM Tower (Archives)
Elmira, New York, United States

Feed Status: UP
Listen in your browser - HTML5 player(in browser, HTML5)
Click here to listen with your own player(launches your MP3 player)

KELM 010653Z AUTO 05003KT 10SM CLR 16/13 A3006 RMK AO2 SLP174 T01560128

KELM Airport Info (Airnav.com)

KELM Flight Activity (Flightaware)

Listeners: 0 out of 1390 total

Elmira Tower: 121.100

KEMT Gnd/Twr (Archives)
El Monte, California, United States

Feed Status: UP
Listen in your browser - HTML5 player(in browser, HTML5)
Click here to listen with your own player(launches your MP3 player)



KEMT Airport Info (Airnav.com)

KEMT Flight Activity (Flightaware)

Listeners: 0 out of 1390 total

El Monte Ground: 125.900
El Monte Tower: 121.200
Santa Fe Dam Practice Area: 123.300

KENW Ground/Tower (Archives)
Kenosha, Wisconsin, United States

Feed Status: UP
Listen in your browser - HTML5 player(in browser, HTML5)
Click here to listen with your own player(launches your MP3 player)

KENW 010653Z AUTO 23008KT 10SM CLR 26/14 A2990 RMK AO2 SLP119 T02560139

KENW Airport Info (Airnav.com)

KENW Flight Activity (Flightaware)

Listeners: 0 out of 1390 total

Kenosha Ground: 121.875
Kenosha Tower: 118.600

KEST CTAF (Archives)
Estherville, Iowa, United States

Feed Status: UP
Listen in your browser - HTML5 player(in browser, HTML5)
Click here to listen with your own player(launches your MP3 player)

KEST 010652Z AUTO 33005KT 10SM CLR 18/14 A3000 RMK AO2 SLP152 T01780139

KEST Airport Info (Airnav.com)

KEST Flight Activity (Flightaware)

Listeners: 0 out of 1390 total

Estherville CTAF: 122.975

KMAN/KEUL CTAF
Nampa, Idaho, United States

Feed Status: DOWN
Offline since: 2022-04-28 00:26:04 UTC

KMAN 010655Z AUTO 00000KT 10SM 20/09 A2989 RMK A01

KMAN Airport Info (Airnav.com)

Nampa/Caldwell CTAF/UNICOM: 122.700

KEVB ATIS (Archives)
New Smyrna Beach, Florida, United States

Feed Status: UP
Listen in your browser - HTML5 player(in browser, HTML5)
Click here to listen with your own player(launches your MP3 player)



KEVB Airport Info (Airnav.com)

KEVB Flight Activity (Flightaware)

Listeners: 0 out of 1390 total

New Smyrna ATIS: 124.625

KEVB Gnd/Twr (Archives)
New Smyrna Beach, Florida, United States

Feed Status: UP
Listen in your browser - HTML5 player(in browser, HTML5)
Click here to listen with your own player(launches your MP3 player)



KEVB Airport Info (Airnav.com)

KEVB Flight Activity (Flightaware)

Listeners: 0 out of 1390 total

New Smyrna Ground: 121.325
New Smyrna Tower: 119.675

KEVB Ground (Archives)
New Smyrna Beach, Florida, United States

Feed Status: UP
Listen in your browser - HTML5 player(in browser, HTML5)
Click here to listen with your own player(launches your MP3 player)



KEVB Airport Info (Airnav.com)

KEVB Flight Activity (Flightaware)

Listeners: 0 out of 1390 total

New Smyrna Ground: 121.325

KEVB Tower (Archives)
New Smyrna Beach, Florida, United States

Feed Status: UP
Listen in your browser - HTML5 player(in browser, HTML5)
Click here to listen with your own player(launches your MP3 player)



KEVB Airport Info (Airnav.com)

KEVB Flight Activity (Flightaware)

Listeners: 0 out of 1390 total

New Smyrna Tower: 119.675

KFAR Tower (Archives)
Fargo, North Dakota, United States

Feed Status: UP
Listen in your browser - HTML5 player(in browser, HTML5)
Click here to listen with your own player(launches your MP3 player)

KFAR 010653Z 20005KT 10SM CLR 14/10 A2998 RMK AO2 SLP151 T01390100

KFAR Airport Info (Airnav.com)

KFAR Flight Activity (Flightaware)

Listeners: 0 out of 1390 total

Fargo Tower: 133.800

KFCM Tower (Archives)
Minneapolis, Minnesota, United States

Feed Status: UP
Listen in your browser - HTML5 player(in browser, HTML5)
Click here to listen with your own player(launches your MP3 player)

KFCM 010653Z AUTO 30004KT 10SM CLR 20/13 A2997 RMK AO2 SLP143 T02000128

KFCM Airport Info (Airnav.com)

KFCM Flight Activity (Flightaware)

Listeners: 0 out of 1390 total

Flying Cloud Tower: 119.150

KFDK ATIS (Archives)
Frederick, Maryland, United States

Feed Status: UP
Listen in your browser - HTML5 player(in browser, HTML5)
Click here to listen with your own player(launches your MP3 player)

KFDK 010630Z AUTO 00000KT 10SM CLR 20/18 A3011 RMK AO2

KFDK Airport Info (Airnav.com)

KFDK Flight Activity (Flightaware)

Listeners: 0 out of 1390 total

Frederick ATIS: 124.875

KFDK Del/Gnd/Twr/CTAF #1 (Archives)
Frederick, Maryland, United States

Feed Status: UP
Listen in your browser - HTML5 player(in browser, HTML5)
Click here to listen with your own player(launches your MP3 player)

KFDK 010630Z AUTO 00000KT 10SM CLR 20/18 A3011 RMK AO2

KFDK Airport Info (Airnav.com)

KFDK Flight Activity (Flightaware)

Listeners: 0 out of 1390 total

Clearance Delivery (Potomac Approach): 126.900
Frederick Ground: 121.975
Frederick Tower/CTAF: 132.400

KFFC CTAF (Archives)
Atlanta, Georgia, United States

Feed Status: UP
Listen in your browser - HTML5 player(in browser, HTML5)
Click here to listen with your own player(launches your MP3 player)

KCCO 010635Z AUTO 00000KT 10SM SCT045 23/22 A3014 RMK AO2 T02300215

KCCO Airport Info (Airnav.com)

KCCO Flight Activity (Flightaware)

Listeners: 0 out of 1390 total

Falcon CTAF: 123.050

KFFZ ATIS
Mesa, Arizona, United States

Feed Status: DOWN
Offline since: 2022-06-17 16:59:39 UTC

KFFZ Airport Info (Airnav.com)

Falcon ATIS: 118.250

KFFZ Ground
Mesa, Arizona, United States

Feed Status: DOWN
Offline since: 2022-06-27 19:41:39 UTC

KFFZ Airport Info (Airnav.com)

Falcon Ground: 121.300

KFFZ Twr #1
Mesa, Arizona, United States

Feed Status: DOWN
Offline since: 2022-06-27 19:41:39 UTC

KFFZ Airport Info (Airnav.com)

Falcon Tower (North, 4L/22R): 119.700
Falcon Tower (South)/CTAF: 124.600

KFFZ Twr #2 (Archives)
Mesa, Arizona, United States

Feed Status: UP
Listen in your browser - HTML5 player(in browser, HTML5)
Click here to listen with your own player(launches your MP3 player)

KFFZ Airport Info (Airnav.com)

KFFZ Flight Activity (Flightaware)

Listeners: 0 out of 1390 total

Falcon Tower (North, 4L/22R): 119.700
Falcon Tower (South)/CTAF: 124.600

KFFZ Twr (North)
Mesa, Arizona, United States

Feed Status: DOWN
Offline since: 2022-06-27 19:41:39 UTC

KFFZ Airport Info (Airnav.com)

Falcon Tower (North, 4L/22R): 119.700

KFFZ Twr (South)/CTAF
Mesa, Arizona, United States

Feed Status: DOWN
Offline since: 2022-06-27 19:41:39 UTC

KFFZ Airport Info (Airnav.com)

Falcon Tower (South)/CTAF: 124.600

KFHU Gnd/Twr/Radar (Archives)
Fort Huachuca/Sierra Vista, Arizona, United States

Feed Status: UP
Listen in your browser - HTML5 player(in browser, HTML5)
Click here to listen with your own player(launches your MP3 player)

KFHU 010616Z 25009KT 10SM VCTS BKN080CB 23/15 A3019 RMK LTG DSNT SE AND SW TS SW MOV S SLP146 SH NW

KFHU Airport Info (Airnav.com)

KFHU Flight Activity (Flightaware)

Listeners: 0 out of 1390 total

Libby AAF GCA Radar: 127.050
Libby AAF GCA Radar: 254.350
Libby Ground: 121.700
Libby Ground: 268.700
Libby Tower: 124.950
Libby Tower: 284.750

KCON/KDAW/KFIT CTAF (Archives)
Fitchburg, Massachusetts, United States

Feed Status: UP
Listen in your browser - HTML5 player(in browser, HTML5)
Click here to listen with your own player(launches your MP3 player)

KMHT 010653Z 35003KT 10SM FEW150 BKN250 18/12 A3007 RMK AO2 SLP191 T01830122 $

KMHT Airport Info (Airnav.com)

KMHT Flight Activity (Flightaware)

Listeners: 0 out of 1390 total

NH/MA Area CTAF: 122.700

KFIT CTAF (Archives)
Fitchburg, Massachusetts, United States

Feed Status: UP
Listen in your browser - HTML5 player(in browser, HTML5)
Click here to listen with your own player(launches your MP3 player)

KFIT 010652Z AUTO 00000KT 10SM CLR 16/12 A3009 RMK AO2 SLP188 T01560122

KFIT Airport Info (Airnav.com)

KFIT Flight Activity (Flightaware)

Listeners: 0 out of 1390 total

Fitchburg CTAF/UNICOM: 122.700

KFIT CTAF/FSS RCO (Archives)
Fitchburg, Massachusetts, United States

Feed Status: UP
Listen in your browser - HTML5 player(in browser, HTML5)
Click here to listen with your own player(launches your MP3 player)

KFIT 010652Z AUTO 00000KT 10SM CLR 16/12 A3009 RMK AO2 SLP188 T01560122

KFIT Airport Info (Airnav.com)

KFIT Flight Activity (Flightaware)

Listeners: 0 out of 1390 total

Bridgeport Radio (FSS via RCO): 119.025
Emergency/Guard: 121.500
Fitchburg CTAF/UNICOM: 122.700

MA/NH/RI/CT Area CTAF (Archives)
Fitchburg, Massachusetts, United States

Feed Status: UP
Listen in your browser - HTML5 player(in browser, HTML5)
Click here to listen with your own player(launches your MP3 player)

KBOS 010654Z 20004KT 10SM FEW100 BKN180 BKN250 20/15 A3009 RMK AO2 SLP188 T02000150

KBOS Airport Info (Airnav.com)

KBOS Flight Activity (Flightaware)

Listeners: 0 out of 1390 total

Air-to-Air: 122.750
Bridgeport Flight Service: 122.200
CTAF: 122.700
CTAF: 122.800
CTAF: 122.900
CTAF: 123.000
Emergency/Guard: 121.500

MA/NH/RI/CT Area CTAF (Archives)
Fitchburg, Massachusetts, United States

Feed Status: UP
Listen in your browser - HTML5 player(in browser, HTML5)
Click here to listen with your own player(launches your MP3 player)

KBOS 010654Z 20004KT 10SM FEW100 BKN180 BKN250 20/15 A3009 RMK AO2 SLP188 T02000150

KBOS Airport Info (Airnav.com)

KBOS Flight Activity (Flightaware)

Listeners: 0 out of 1390 total

Air-to-Air: 122.750
Bridgeport Flight Service: 122.200
CTAF: 122.700
CTAF: 122.800
CTAF: 122.900
CTAF: 123.000
Emergency/Guard: 121.500

MA/NH/RI/CT Area CTAF (Archives)
Fitchburg, Massachusetts, United States

Feed Status: UP
Listen in your browser - HTML5 player(in browser, HTML5)
Click here to listen with your own player(launches your MP3 player)

KBOS 010654Z 20004KT 10SM FEW100 BKN180 BKN250 20/15 A3009 RMK AO2 SLP188 T02000150

KBOS Airport Info (Airnav.com)

KBOS Flight Activity (Flightaware)

Listeners: 0 out of 1390 total

Air-to-Air: 122.750
Bridgeport Flight Service: 122.200
CTAF: 122.700
CTAF: 122.800
CTAF: 122.900
CTAF: 123.000
Emergency/Guard: 121.500

KFKA CTAF (Archives)
Preston, Minnesota, United States

Feed Status: UP
Listen in your browser - HTML5 player(in browser, HTML5)
Click here to listen with your own player(launches your MP3 player)

KFKA 010655Z AUTO 34007KT 10SM CLR 20/14 A2998 RMK AO2 T02030140

KFKA Airport Info (Airnav.com)

KFKA Flight Activity (Flightaware)

Listeners: 0 out of 1390 total

Preston CTAF: 122.900

KFLG Ground/Tower (Archives)
Flagstaff, Arizona, United States

Feed Status: UP
Listen in your browser - HTML5 player(in browser, HTML5)
Click here to listen with your own player(launches your MP3 player)

KFLG 010606Z AUTO VRB04KT 10SM -TSRA FEW050 OVC080 13/11 A3035 RMK AO2 LTG DSNT N AND S RAB0558 TSB00 P0000 T01330111

KFLG Airport Info (Airnav.com)

KFLG Flight Activity (Flightaware)

Listeners: 0 out of 1390 total

Flagstaff Ground: 121.900
Flagstaff Tower: 134.550

KFLO App/Dep (Archives)
Florence, South Carolina, United States

Feed Status: UP
Listen in your browser - HTML5 player(in browser, HTML5)
Click here to listen with your own player(launches your MP3 player)

KFLO 010653Z AUTO 00000KT 10SM CLR 24/23 A3015 RMK AO2 SLP206 T02440228 TSNO

KFLO Airport Info (Airnav.com)

KFLO Flight Activity (Flightaware)

Listeners: 0 out of 1390 total

Florence Approach: 135.250
Florence Approach: 118.600

KFLO ATIS (Archives)
Florence, South Carolina, United States

Feed Status: UP
Listen in your browser - HTML5 player(in browser, HTML5)
Click here to listen with your own player(launches your MP3 player)

KFLO 010653Z AUTO 00000KT 10SM CLR 24/23 A3015 RMK AO2 SLP206 T02440228 TSNO

KFLO Airport Info (Airnav.com)

KFLO Flight Activity (Flightaware)

Listeners: 0 out of 1390 total

Florence ATIS: 123.625

KFLO Emergency/Guard (Archives)
Florence, South Carolina, United States

Feed Status: UP
Listen in your browser - HTML5 player(in browser, HTML5)
Click here to listen with your own player(launches your MP3 player)

KFLO 010653Z AUTO 00000KT 10SM CLR 24/23 A3015 RMK AO2 SLP206 T02440228 TSNO

KFLO Airport Info (Airnav.com)

KFLO Flight Activity (Flightaware)

Listeners: 0 out of 1390 total

Emergency/Guard: 121.500

KFLO Gnd/Twr/App (Archives)
Florence, South Carolina, United States

Feed Status: UP
Listen in your browser - HTML5 player(in browser, HTML5)
Click here to listen with your own player(launches your MP3 player)

KFLO 010653Z AUTO 00000KT 10SM CLR 24/23 A3015 RMK AO2 SLP206 T02440228 TSNO

KFLO Airport Info (Airnav.com)

KFLO Flight Activity (Flightaware)

Listeners: 0 out of 1390 total

Florence Approach: 118.600
Florence Approach: 135.250
Florence Ground: 121.900
Florence Tower: 125.100

KFLO Ground (Archives)
Florence, South Carolina, United States

Feed Status: UP
Listen in your browser - HTML5 player(in browser, HTML5)
Click here to listen with your own player(launches your MP3 player)

KFLO 010653Z AUTO 00000KT 10SM CLR 24/23 A3015 RMK AO2 SLP206 T02440228 TSNO

KFLO Airport Info (Airnav.com)

KFLO Flight Activity (Flightaware)

Listeners: 0 out of 1390 total

Florence Ground: 121.900

KFLO Tower (Archives)
Florence, South Carolina, United States

Feed Status: UP
Listen in your browser - HTML5 player(in browser, HTML5)
Click here to listen with your own player(launches your MP3 player)

KFLO 010653Z AUTO 00000KT 10SM CLR 24/23 A3015 RMK AO2 SLP206 T02440228 TSNO

KFLO Airport Info (Airnav.com)

KFLO Flight Activity (Flightaware)

Listeners: 0 out of 1390 total

Florence Tower: 125.100

Boston Approach (Cape North) (Archives)
Falmouth, Massachusetts, United States

Feed Status: UP
Listen in your browser - HTML5 player(in browser, HTML5)
Click here to listen with your own player(launches your MP3 player)



KFMH Airport Info (Airnav.com)

KFMH Flight Activity (Flightaware)

Listeners: 0 out of 1390 total

Boston Approach (Cape North Arrival): 118.200

Boston Approach (OTIS Arrival) (Archives)
Falmouth, Massachusetts, United States

Feed Status: UP
Listen in your browser - HTML5 player(in browser, HTML5)
Click here to listen with your own player(launches your MP3 player)



KFMH Airport Info (Airnav.com)

KFMH Flight Activity (Flightaware)

Listeners: 0 out of 1390 total

Boston Approach (OTIS Arrival): 126.300

KFMH ATIS (Archives)
Falmouth, Massachusetts, United States

Feed Status: UP
Listen in your browser - HTML5 player(in browser, HTML5)
Click here to listen with your own player(launches your MP3 player)



KFMH Airport Info (Airnav.com)

KFMH Flight Activity (Flightaware)

Listeners: 0 out of 1390 total

Coast Guard ATIS: 120.475

KFMH Ground (Archives)
Falmouth, Massachusetts, United States

Feed Status: UP
Listen in your browser - HTML5 player(in browser, HTML5)
Click here to listen with your own player(launches your MP3 player)



KFMH Airport Info (Airnav.com)

KFMH Flight Activity (Flightaware)

Listeners: 0 out of 1390 total

Coast Guard Ground: 124.150

KFMH Tower (Archives)
Falmouth, Massachusetts, United States

Feed Status: UP
Listen in your browser - HTML5 player(in browser, HTML5)
Click here to listen with your own player(launches your MP3 player)



KFMH Airport Info (Airnav.com)

KFMH Flight Activity (Flightaware)

Listeners: 0 out of 1390 total

Coast Guard Tower: 128.425

KFMN Gnd/Twr/App (Archives)
Farmington, New Mexico, United States

Feed Status: UP
Listen in your browser - HTML5 player(in browser, HTML5)
Click here to listen with your own player(launches your MP3 player)

KFMN 010653Z AUTO 31003KT 10SM SCT120 22/11 A3018 RMK AO2 SLP146 T02170106 403220189

KFMN Airport Info (Airnav.com)

KFMN Flight Activity (Flightaware)

Listeners: 0 out of 1390 total

Denver Center (Sector 36 Farmington Low): 118.575
Emergency/Guard: 121.500
Farmington Ground: 121.700
Farmington Tower: 118.900

KFMY ATIS (Archives)
Fort Myers, Florida, United States

Feed Status: UP
Listen in your browser - HTML5 player(in browser, HTML5)
Click here to listen with your own player(launches your MP3 player)

KFMY 010653Z AUTO 08003KT 10SM CLR 25/22 A3007 RMK AO2 SLP186 T02500222

KFMY Airport Info (Airnav.com)

KFMY Flight Activity (Flightaware)

Listeners: 0 out of 1390 total

Page ATIS: 123.725

KFMY Del/Gnd/Twr (Archives)
Fort Myers, Florida, United States

Feed Status: UP
Listen in your browser - HTML5 player(in browser, HTML5)
Click here to listen with your own player(launches your MP3 player)

KFMY 010653Z AUTO 08003KT 10SM CLR 25/22 A3007 RMK AO2 SLP186 T02500222

KFMY Airport Info (Airnav.com)

KFMY Flight Activity (Flightaware)

Listeners: 0 out of 1390 total

Page Clearance/Ground: 121.700
Page Tower: 119.000

KFNL ASRI (FBO) (Archives)
Fort Collins/Loveland, Colorado, United States

Feed Status: UP
Listen in your browser - HTML5 player(in browser, HTML5)
Click here to listen with your own player(launches your MP3 player)

KFNL 010656Z 00000KT 10SM FEW120 16/11 A3027 RMK AO2 SLP199 T01560111 402830150

KFNL Airport Info (Airnav.com)

KFNL Flight Activity (Flightaware)

Listeners: 1 out of 1390 total

Fort Collins ASRI (FBO): 130.575

KFNL Ground (Archives)
Fort Collins/Loveland, Colorado, United States

Feed Status: UP
Listen in your browser - HTML5 player(in browser, HTML5)
Click here to listen with your own player(launches your MP3 player)

KFNL 010656Z 00000KT 10SM FEW120 16/11 A3027 RMK AO2 SLP199 T01560111 402830150

KFNL Airport Info (Airnav.com)

KFNL Flight Activity (Flightaware)

Listeners: 0 out of 1390 total

Fort Collins Ground: 121.650

KFNL Tower/CTAF (Archives)
Fort Collins/Loveland, Colorado, United States

Feed Status: UP
Listen in your browser - HTML5 player(in browser, HTML5)
Click here to listen with your own player(launches your MP3 player)

KFNL 010656Z 00000KT 10SM FEW120 16/11 A3027 RMK AO2 SLP199 T01560111 402830150

KFNL Airport Info (Airnav.com)

KFNL Flight Activity (Flightaware)

Listeners: 0 out of 1390 total

Fort Collins Tower/CTAF: 118.400

KFPR ATIS #1 (Archives)
Fort Pierce, Florida, United States

Feed Status: UP
Listen in your browser - HTML5 player(in browser, HTML5)
Click here to listen with your own player(launches your MP3 player)

KFPR 010653Z AUTO 00000KT 10SM CLR 23/22 A3009 RMK AO2 SLP187 T02330222

KFPR Airport Info (Airnav.com)

KFPR Flight Activity (Flightaware)

Listeners: 0 out of 1390 total

Fort Pierce ATIS: 134.825

KFPR Gnd/Twr #1 (Archives)
Fort Pierce, Florida, United States

Feed Status: UP
Listen in your browser - HTML5 player(in browser, HTML5)
Click here to listen with your own player(launches your MP3 player)

KFPR 010653Z AUTO 00000KT 10SM CLR 23/22 A3009 RMK AO2 SLP187 T02330222

KFPR Airport Info (Airnav.com)

KFPR Flight Activity (Flightaware)

Listeners: 0 out of 1390 total

Ft Pierce Ground: 119.550
Ft Pierce Tower: 128.200

KFPR Ground (Archives)
Fort Pierce, Florida, United States

Feed Status: UP
Listen in your browser - HTML5 player(in browser, HTML5)
Click here to listen with your own player(launches your MP3 player)

KFPR 010653Z AUTO 00000KT 10SM CLR 23/22 A3009 RMK AO2 SLP187 T02330222

KFPR Airport Info (Airnav.com)

KFPR Flight Activity (Flightaware)

Listeners: 0 out of 1390 total

Ft Pierce Ground: 119.550

KFPR Tower (Archives)
Fort Pierce, Florida, United States

Feed Status: UP
Listen in your browser - HTML5 player(in browser, HTML5)
Click here to listen with your own player(launches your MP3 player)

KFPR 010653Z AUTO 00000KT 10SM CLR 23/22 A3009 RMK AO2 SLP187 T02330222

KFPR Airport Info (Airnav.com)

KFPR Flight Activity (Flightaware)

Listeners: 0 out of 1390 total

Ft Pierce Tower: 128.200

Palm Beach App/Dep (Archives)
Fort Pierce, Florida, United States

Feed Status: UP
Listen in your browser - HTML5 player(in browser, HTML5)
Click here to listen with your own player(launches your MP3 player)

KFPR 010653Z AUTO 00000KT 10SM CLR 23/22 A3009 RMK AO2 SLP187 T02330222

KFPR Airport Info (Airnav.com)

KFPR Flight Activity (Flightaware)

Listeners: 0 out of 1390 total

Palm Beach Approach/Departure: 123.625

KFRG ATIS (Archives)
Farmingdale, New York, United States

Feed Status: UP
Listen in your browser - HTML5 player(in browser, HTML5)
Click here to listen with your own player(launches your MP3 player)

KFRG 010653Z AUTO 25003KT 10SM CLR 22/17 A3011 RMK AO2 SLP196 T02170172

KFRG Airport Info (Airnav.com)

KFRG Flight Activity (Flightaware)

Listeners: 1 out of 1390 total

Republic ATIS: 126.650

KFRG Delivery/Ground (Archives)
Farmingdale, New York, United States

Feed Status: UP
Listen in your browser - HTML5 player(in browser, HTML5)
Click here to listen with your own player(launches your MP3 player)

KFRG 010653Z AUTO 25003KT 10SM CLR 22/17 A3011 RMK AO2 SLP196 T02170172

KFRG Airport Info (Airnav.com)

KFRG Flight Activity (Flightaware)

Listeners: 0 out of 1390 total

Emergency/Guard: 121.500
Republic Clearance Delivery: 128.250
Republic Ground: 121.600

KFRG Tower (Archives)
Farmingdale, New York, United States

Feed Status: UP
Listen in your browser - HTML5 player(in browser, HTML5)
Click here to listen with your own player(launches your MP3 player)

KFRG 010653Z AUTO 25003KT 10SM CLR 22/17 A3011 RMK AO2 SLP196 T02170172

KFRG Airport Info (Airnav.com)

KFRG Flight Activity (Flightaware)

Listeners: 0 out of 1390 total

Republic Tower: 118.800

KFRM CTAF (Air Race Classic)
Fairmont, Minnesota, United States

Feed Status: DOWN
Offline since: 2019-06-25 18:58:03 UTC

Fairmont CTAF: 122.800

KFSD Twr/App/Dep/ZMP (Archives)
Sioux Falls, South Dakota, United States

Feed Status: UP
Listen in your browser - HTML5 player(in browser, HTML5)
Click here to listen with your own player(launches your MP3 player)

KFSD 010656Z AUTO 00000KT 10SM CLR 19/12 A3004 RMK AO2 SLP160 T01890122

KFSD Airport Info (Airnav.com)

KFSD Flight Activity (Flightaware)

Listeners: 1 out of 1390 total

Minneapolis Center (Sector 33 PIR Low): 132.050
Sioux Falls Approach/Departure: 125.800
Sioux Falls Tower: 118.300

KFTW Del/Gnd/Twr (Archives)
Fort Worth, Texas, United States

Feed Status: UP
Listen in your browser - HTML5 player(in browser, HTML5)
Click here to listen with your own player(launches your MP3 player)

KFTW 010653Z 16014KT 10SM CLR 27/19 A2996 RMK AO2 SLP135 T02720194

KFTW Airport Info (Airnav.com)

KFTW Flight Activity (Flightaware)

Listeners: 0 out of 1390 total

Meacham Clearance Delivery: 124.650
Meacham Ground: 121.900
Meacham Tower: 118.300

KFTW Del/Ground (Archives)
Fort Worth, Texas, United States

Feed Status: UP
Listen in your browser - HTML5 player(in browser, HTML5)
Click here to listen with your own player(launches your MP3 player)

KFTW 010653Z 16014KT 10SM CLR 27/19 A2996 RMK AO2 SLP135 T02720194

KFTW Airport Info (Airnav.com)

KFTW Flight Activity (Flightaware)

Listeners: 0 out of 1390 total

Meacham Clearance Delivery: 124.650
Meacham Ground: 121.900

KFTW Tower (Archives)
Fort Worth, Texas, United States

Feed Status: UP
Listen in your browser - HTML5 player(in browser, HTML5)
Click here to listen with your own player(launches your MP3 player)

KFTW 010653Z 16014KT 10SM CLR 27/19 A2996 RMK AO2 SLP135 T02720194

KFTW Airport Info (Airnav.com)

KFTW Flight Activity (Flightaware)

Listeners: 0 out of 1390 total

Meacham Tower: 118.300

Regional App (Meacham North) (Archives)
Fort Worth, Texas, United States

Feed Status: UP
Listen in your browser - HTML5 player(in browser, HTML5)
Click here to listen with your own player(launches your MP3 player)

KFTW 010653Z 16014KT 10SM CLR 27/19 A2996 RMK AO2 SLP135 T02720194

KFTW Airport Info (Airnav.com)

KFTW Flight Activity (Flightaware)

Listeners: 0 out of 1390 total

Regional Approach (Meacham North): 118.100

Regional App (Meacham South) (Archives)
Fort Worth, Texas, United States

Feed Status: UP
Listen in your browser - HTML5 player(in browser, HTML5)
Click here to listen with your own player(launches your MP3 player)

KDFW 010653Z 16009KT 10SM FEW250 28/19 A2996 RMK AO2 SLP134 T02780194

KDFW Airport Info (Airnav.com)

KDFW Flight Activity (Flightaware)

Listeners: 0 out of 1390 total

Regional Approach (Meacham South): 135.975

Regional Approach (Meacham North/South) (Archives)
Fort Worth, Texas, United States

Feed Status: UP
Listen in your browser - HTML5 player(in browser, HTML5)
Click here to listen with your own player(launches your MP3 player)

KFTW 010653Z 16014KT 10SM CLR 27/19 A2996 RMK AO2 SLP135 T02720194

KFTW Airport Info (Airnav.com)

KFTW Flight Activity (Flightaware)

Listeners: 0 out of 1390 total

Regional Approach (Meacham North): 118.100
Regional Approach (Meacham South): 135.975

Atlanta Approach (N. Sat) (Archives)
Atlanta, Georgia, United States

Feed Status: UP
Listen in your browser - HTML5 player(in browser, HTML5)
Click here to listen with your own player(launches your MP3 player)

KRYY 010650Z AUTO 00000KT 10SM BKN033 OVC050 24/21 A3015 RMK AO2 SLP198 T02390206 $

KRYY Airport Info (Airnav.com)

KRYY Flight Activity (Flightaware)

Listeners: 0 out of 1390 total

Atlanta Approach (North Satellite): 121.000

KFTY Ground/Tower (Archives)
Atlanta, Georgia, United States

Feed Status: UP
Listen in your browser - HTML5 player(in browser, HTML5)
Click here to listen with your own player(launches your MP3 player)

KFTY 010653Z 00000KT 10SM SCT034 SCT044 22/21 A3014 RMK AO2 SLP196 T02170206

KFTY Airport Info (Airnav.com)

KFTY Flight Activity (Flightaware)

Listeners: 0 out of 1390 total

County Ground: 121.700
County Tower: 118.450

KFUL Ground/Tower (Archives)
Fullerton, California, United States

Feed Status: UP
Listen in your browser - HTML5 player(in browser, HTML5)
Click here to listen with your own player(launches your MP3 player)

KFUL 010653Z AUTO 22003KT 10SM CLR 21/16 A2997 RMK AO2 SLP147 T02060156

KFUL Airport Info (Airnav.com)

KFUL Flight Activity (Flightaware)

Listeners: 0 out of 1390 total

Fullerton Ground: 121.800
Fullerton Tower: 119.100

KFWS Ground/Tower (Archives)
Fort Worth, Texas, United States

Feed Status: UP
Listen in your browser - HTML5 player(in browser, HTML5)
Click here to listen with your own player(launches your MP3 player)

KFWS 010655Z AUTO 14007KT 10SM CLR 26/19 A2999 RMK AO2 T02670191

KFWS Airport Info (Airnav.com)

KFWS Flight Activity (Flightaware)

Listeners: 2 out of 1390 total

Spinks Ground: 119.475
Spinks Tower/CTAF: 124.625

KFXE ATIS (Archives)
Fort Lauderdale, Florida, United States

Feed Status: UP
Listen in your browser - HTML5 player(in browser, HTML5)
Click here to listen with your own player(launches your MP3 player)

KFXE 010653Z 13007KT 10SM CLR 28/24 A3007 RMK AO2 SLP184 T02830244

KFXE Airport Info (Airnav.com)

KFXE Flight Activity (Flightaware)

Listeners: 0 out of 1390 total

Executive ATIS: 119.850

KFXE Ground (Archives)
Fort Lauderdale, Florida, United States

Feed Status: UP
Listen in your browser - HTML5 player(in browser, HTML5)
Click here to listen with your own player(launches your MP3 player)

KFXE 010653Z 13007KT 10SM CLR 28/24 A3007 RMK AO2 SLP184 T02830244

KFXE Airport Info (Airnav.com)

KFXE Flight Activity (Flightaware)

Listeners: 0 out of 1390 total

Executive Ground: 121.750

KFXE Practice Area (Archives)
Fort Lauderdale, Florida, United States

Feed Status: UP
Listen in your browser - HTML5 player(in browser, HTML5)
Click here to listen with your own player(launches your MP3 player)

KFXE 010653Z 13007KT 10SM CLR 28/24 A3007 RMK AO2 SLP184 T02830244

KFXE Airport Info (Airnav.com)

KFXE Flight Activity (Flightaware)

Listeners: 0 out of 1390 total

Coral Springs/Everglades Practice Area: 123.450

KFXE Tower #1 (Archives)
Fort Lauderdale, Florida, United States

Feed Status: UP
Listen in your browser - HTML5 player(in browser, HTML5)
Click here to listen with your own player(launches your MP3 player)

KFXE 010653Z 13007KT 10SM CLR 28/24 A3007 RMK AO2 SLP184 T02830244

KFXE Airport Info (Airnav.com)

KFXE Flight Activity (Flightaware)

Listeners: 0 out of 1390 total

Ft. Lauderdale Exec Tower: 120.900

KFYV Gnd/Twr/App/ZME (Archives)
Fayetteville, Arkansas, United States

Feed Status: UP
Listen in your browser - HTML5 player(in browser, HTML5)
Click here to listen with your own player(launches your MP3 player)

KFYV 010653Z AUTO 00000KT 8SM CLR 20/18 A3003 RMK AO2 SLP154 T02000183

KFYV Airport Info (Airnav.com)

KFYV Flight Activity (Flightaware)

Listeners: 1 out of 1390 total

Drake Ground: 121.800
Drake Tower: 128.000
Jonesboro Flight Service Station (FSS): 122.300
Memphis Center (High): 132.550
Memphis Center (High): 353.800
Razorback Approach: 121.000

KGAI CTAF/UNICOM (Archives)
Gaithersburg, Maryland, United States

Feed Status: UP
Listen in your browser - HTML5 player(in browser, HTML5)
Click here to listen with your own player(launches your MP3 player)

KGAI 010656Z AUTO 17005KT 10SM CLR 23/21 A3013 RMK AO2 SLP211 T02330211

KGAI Airport Info (Airnav.com)

KGAI Flight Activity (Flightaware)

Listeners: 0 out of 1390 total

Gaithersburg CTAF: 123.075

KGBG CTAF (Archives)
Galesburg, Illinois, United States

Feed Status: UP
Listen in your browser - HTML5 player(in browser, HTML5)
Click here to listen with your own player(launches your MP3 player)

KGBG 010635Z AUTO 19003KT 10SM CLR 19/16 A2997 RMK AO2 T01920164 TSNO

KGBG Airport Info (Airnav.com)

KGBG Flight Activity (Flightaware)

Listeners: 0 out of 1390 total

Emergency/Guard: 121.500
Galesburg CTAF: 123.000

KGBR/20N CTAF
Great Barrington, Massachusetts, United States

Feed Status: DOWN
Offline since: 2020-11-21 13:08:39 UTC

KGBR Airport Info (Airnav.com)

Great Barrington CTAF: 122.800

KGDM/KORE CTAF (Archives)
Gardner, Massachusetts, United States

Feed Status: UP
Listen in your browser - HTML5 player(in browser, HTML5)
Click here to listen with your own player(launches your MP3 player)

KGDM Airport Info (Airnav.com)

KGDM Flight Activity (Flightaware)

Listeners: 0 out of 1390 total

Gardner CTAF: 122.800

KGED ASOS (Archives)
Georgetown, Delaware, United States

Feed Status: UP
Listen in your browser - HTML5 player(in browser, HTML5)
Click here to listen with your own player(launches your MP3 player)

KGED 010654Z AUTO 20005KT 10SM FEW060 22/21 A3014 RMK AO2 SLP205 T02170211

KGED Airport Info (Airnav.com)

KGED Flight Activity (Flightaware)

Listeners: 0 out of 1390 total

Georgetown ASOS: 118.375

KGED Clearance Delivery (Archives)
Georgetown, Delaware, United States

Feed Status: UP
Listen in your browser - HTML5 player(in browser, HTML5)
Click here to listen with your own player(launches your MP3 player)

KGED 010654Z AUTO 20005KT 10SM FEW060 22/21 A3014 RMK AO2 SLP205 T02170211

KGED Airport Info (Airnav.com)

KGED Flight Activity (Flightaware)

Listeners: 0 out of 1390 total

Georgetown Clearance Delivery (Dover Approach): 125.550

KGED CTAF (Archives)
Georgetown, Delaware, United States

Feed Status: UP
Listen in your browser - HTML5 player(in browser, HTML5)
Click here to listen with your own player(launches your MP3 player)

KGED 010654Z AUTO 20005KT 10SM FEW060 22/21 A3014 RMK AO2 SLP205 T02170211

KGED Airport Info (Airnav.com)

KGED Flight Activity (Flightaware)

Listeners: 0 out of 1390 total

Georgetown CTAF: 123.000

KGED Emergency/Guard (Archives)
Georgetown, Delaware, United States

Feed Status: UP
Listen in your browser - HTML5 player(in browser, HTML5)
Click here to listen with your own player(launches your MP3 player)

KGED 010654Z AUTO 20005KT 10SM FEW060 22/21 A3014 RMK AO2 SLP205 T02170211

KGED Airport Info (Airnav.com)

KGED Flight Activity (Flightaware)

Listeners: 0 out of 1390 total

Emergency/Guard: 121.500

KGEU App/Dep (Archives)
Glendale, Arizona, United States

Feed Status: UP
Listen in your browser - HTML5 player(in browser, HTML5)
Click here to listen with your own player(launches your MP3 player)



KGEU Airport Info (Airnav.com)

KGEU Flight Activity (Flightaware)

Listeners: 0 out of 1390 total

Luke Approach/Departure: 118.150

KGEU ATIS (Archives)
Glendale, Arizona, United States

Feed Status: UP
Listen in your browser - HTML5 player(in browser, HTML5)
Click here to listen with your own player(launches your MP3 player)



KGEU Airport Info (Airnav.com)

KGEU Flight Activity (Flightaware)

Listeners: 0 out of 1390 total

Glendale ATIS: 119.425

KGEU Ground (Archives)
Glendale, Arizona, United States

Feed Status: UP
Listen in your browser - HTML5 player(in browser, HTML5)
Click here to listen with your own player(launches your MP3 player)



KGEU Airport Info (Airnav.com)

KGEU Flight Activity (Flightaware)

Listeners: 0 out of 1390 total

Glendale Ground: 118.000

KGEU Tower (Archives)
Glendale, Arizona, United States

Feed Status: UP
Listen in your browser - HTML5 player(in browser, HTML5)
Click here to listen with your own player(launches your MP3 player)



KGEU Airport Info (Airnav.com)

KGEU Flight Activity (Flightaware)

Listeners: 0 out of 1390 total

Glendale Tower: 121.000

KGFK Approach (Archives)
Grand Forks, North Dakota, United States

Feed Status: UP
Listen in your browser - HTML5 player(in browser, HTML5)
Click here to listen with your own player(launches your MP3 player)

KGFK 010653Z AUTO 25008KT 10SM CLR 14/11 A2995 RMK AO2 SLP141 T01440106

KGFK Airport Info (Airnav.com)

KGFK Flight Activity (Flightaware)

Listeners: 0 out of 1390 total

Grand Forks Approach: 118.100
Grand Forks Approach (VFR): 132.300

KGFK ATIS (Archives)
Grand Forks, North Dakota, United States

Feed Status: UP
Listen in your browser - HTML5 player(in browser, HTML5)
Click here to listen with your own player(launches your MP3 player)

KGFK 010653Z AUTO 25008KT 10SM CLR 14/11 A2995 RMK AO2 SLP141 T01440106

KGFK Airport Info (Airnav.com)

KGFK Flight Activity (Flightaware)

Listeners: 0 out of 1390 total

Grand Forks ATIS: 119.400

KGFK Ground (Archives)
Grand Forks, North Dakota, United States

Feed Status: UP
Listen in your browser - HTML5 player(in browser, HTML5)
Click here to listen with your own player(launches your MP3 player)

KGFK 010653Z AUTO 25008KT 10SM CLR 14/11 A2995 RMK AO2 SLP141 T01440106

KGFK Airport Info (Airnav.com)

KGFK Flight Activity (Flightaware)

Listeners: 0 out of 1390 total

Grand Forks Ground: 124.575

KGFK Tower 1 (118.4/IFR/VFR) (Archives)
Grand Forks, North Dakota, United States

Feed Status: UP
Listen in your browser - HTML5 player(in browser, HTML5)
Click here to listen with your own player(launches your MP3 player)

KGFK 010653Z AUTO 25008KT 10SM CLR 14/11 A2995 RMK AO2 SLP141 T01440106

KGFK Airport Info (Airnav.com)

KGFK Flight Activity (Flightaware)

Listeners: 0 out of 1390 total

Grand Forks Tower (IFR/VFR): 118.400

KGFK Tower 2 (120.55/VFR) (Archives)
Grand Forks, North Dakota, United States

Feed Status: UP
Listen in your browser - HTML5 player(in browser, HTML5)
Click here to listen with your own player(launches your MP3 player)

KGFK 010653Z AUTO 25008KT 10SM CLR 14/11 A2995 RMK AO2 SLP141 T01440106

KGFK Airport Info (Airnav.com)

KGFK Flight Activity (Flightaware)

Listeners: 0 out of 1390 total

Grand Forks Tower (VFR): 120.550

KGFL CTAF/App (Archives)
Glens Falls, New York, United States

Feed Status: UP
Listen in your browser - HTML5 player(in browser, HTML5)
Click here to listen with your own player(launches your MP3 player)

KGFL 010653Z AUTO 00000KT 10SM CLR 15/13 A3005 RMK AO2 SLP174 T01500133

KGFL Airport Info (Airnav.com)

KGFL Flight Activity (Flightaware)

Listeners: 0 out of 1390 total

Albany Approach: 118.050
Albany Approach: 132.825
Glens Falls Unicom: 123.000
Unicom (Granville, Schroon Lake, Argyle, Heber Air: 122.900
Unicom (Saratoga Co., Rutland, Ticonderoga, Round : 122.800

KGIF ASOS (Archives)
Winter Haven, Florida, United States

Feed Status: UP
Listen in your browser - HTML5 player(in browser, HTML5)
Click here to listen with your own player(launches your MP3 player)

KGIF 010653Z AUTO 15004KT 10SM CLR 26/22 A3010 RMK AO2 SLP189 T02560217

KGIF Airport Info (Airnav.com)

KGIF Flight Activity (Flightaware)

Listeners: 0 out of 1390 total

Winter Haven ASOS: 133.675

KGIF CTAF/GCO/Guard (Archives)
Winter Haven, Florida, United States

Feed Status: UP
Listen in your browser - HTML5 player(in browser, HTML5)
Click here to listen with your own player(launches your MP3 player)

KGIF 010653Z AUTO 15004KT 10SM CLR 26/22 A3010 RMK AO2 SLP189 T02560217

KGIF Airport Info (Airnav.com)

KGIF Flight Activity (Flightaware)

Listeners: 0 out of 1390 total

Emergency/Guard: 121.500
Winter Haven CTAF: 123.050
Winter Haven GCO (Clearance Delivery): 121.725

KGIF GCO/Guard (Archives)
Winter Haven, Florida, United States

Feed Status: UP
Listen in your browser - HTML5 player(in browser, HTML5)
Click here to listen with your own player(launches your MP3 player)

KGIF 010653Z AUTO 15004KT 10SM CLR 26/22 A3010 RMK AO2 SLP189 T02560217

KGIF Airport Info (Airnav.com)

KGIF Flight Activity (Flightaware)

Listeners: 0 out of 1390 total

Emergency/Guard: 121.500
Winter Haven GCO (Clearance Delivery): 121.725

KGIF/F57 CTAF (Archives)
Winter Haven, Florida, United States

Feed Status: UP
Listen in your browser - HTML5 player(in browser, HTML5)
Click here to listen with your own player(launches your MP3 player)

KGIF 010653Z AUTO 15004KT 10SM CLR 26/22 A3010 RMK AO2 SLP189 T02560217

KGIF Airport Info (Airnav.com)

KGIF Flight Activity (Flightaware)

Listeners: 0 out of 1390 total

Winter Haven CTAF: 123.050

KGJT Gnd/Twr/App/ZDV (Archives)
Grand Junction, Colorado, United States

Feed Status: UP
Listen in your browser - HTML5 player(in browser, HTML5)
Click here to listen with your own player(launches your MP3 player)

KGJT 010653Z AUTO 10SM CLR 19/09 A3015 RMK AO2 SLP146 T01940094 403060183

KGJT Airport Info (Airnav.com)

KGJT Flight Activity (Flightaware)

Listeners: 2 out of 1390 total

Denver Approach: 119.700
Denver Center (Sector 11 Grand Junction Low): 134.500
Grand Junction Ground: 121.700
Grand Junction Tower: 118.100

KGKT CTAF (Archives)
Sevierville, Tennessee, United States

Feed Status: UP
Listen in your browser - HTML5 player(in browser, HTML5)
Click here to listen with your own player(launches your MP3 player)

KGKT 010655Z AUTO 00000KT 10SM CLR 21/21 A3014 RMK A01

KGKT Airport Info (Airnav.com)

KGKT Flight Activity (Flightaware)

Listeners: 0 out of 1390 total

Gatlinburg CTAF: 123.000

KGKY Ground/Tower (Archives)
Arlington, Texas, United States

Feed Status: UP
Listen in your browser - HTML5 player(in browser, HTML5)
Click here to listen with your own player(launches your MP3 player)

KGKY 010653Z AUTO 14008KT 10SM CLR 27/20 A2998 RMK AO2 SLP141 T02720200

KGKY Airport Info (Airnav.com)

KGKY Flight Activity (Flightaware)

Listeners: 2 out of 1390 total

Arlington Ground: 121.875
Arlington Tower: 128.625

KGMU ATIS (Archives)
Greenville, South Carolina, United States

Feed Status: UP
Listen in your browser - HTML5 player(in browser, HTML5)
Click here to listen with your own player(launches your MP3 player)

KGMU 010653Z AUTO 00000KT 10SM CLR 24/20 A3018 RMK AO2 SLP209 T02440200

KGMU Airport Info (Airnav.com)

KGMU Flight Activity (Flightaware)

Listeners: 0 out of 1390 total

Greenville ATIS: 127.075

KGMU Ground (Archives)
Greenville, South Carolina, United States

Feed Status: UP
Listen in your browser - HTML5 player(in browser, HTML5)
Click here to listen with your own player(launches your MP3 player)

KGMU 010653Z AUTO 00000KT 10SM CLR 24/20 A3018 RMK AO2 SLP209 T02440200

KGMU Airport Info (Airnav.com)

KGMU Flight Activity (Flightaware)

Listeners: 0 out of 1390 total

Greenville Ground: 121.250

KGMU Ground/Tower (Archives)
Greenville, South Carolina, United States

Feed Status: UP
Listen in your browser - HTML5 player(in browser, HTML5)
Click here to listen with your own player(launches your MP3 player)

KGMU 010653Z AUTO 00000KT 10SM CLR 24/20 A3018 RMK AO2 SLP209 T02440200

KGMU Airport Info (Airnav.com)

KGMU Flight Activity (Flightaware)

Listeners: 0 out of 1390 total

Greenville Ground: 121.250
Greenville Tower: 119.900

KGMU Tower (Archives)
Greenville, South Carolina, United States

Feed Status: UP
Listen in your browser - HTML5 player(in browser, HTML5)
Click here to listen with your own player(launches your MP3 player)

KGMU 010653Z AUTO 00000KT 10SM CLR 24/20 A3018 RMK AO2 SLP209 T02440200

KGMU Airport Info (Airnav.com)

KGMU Flight Activity (Flightaware)

Listeners: 0 out of 1390 total

Greenville Tower: 119.900

KGNV Ground/Tower (Archives)
Gainesville, Florida, United States

Feed Status: UP
Listen in your browser - HTML5 player(in browser, HTML5)
Click here to listen with your own player(launches your MP3 player)

KGNV 010653Z 00000KT 10SM CLR 22/21 A3010 RMK AO2 SLP191 T02170206

KGNV Airport Info (Airnav.com)

KGNV Flight Activity (Flightaware)

Listeners: 0 out of 1390 total

Gainesville Ground: 121.700
Gainesville Tower: 119.550

KGPM Tower (Archives)
Grand Prairie, Texas, United States

Feed Status: UP
Listen in your browser - HTML5 player(in browser, HTML5)
Click here to listen with your own player(launches your MP3 player)

KGPM 010635Z AUTO 16006KT 10SM CLR 28/19 A3000 RMK AO2 T02770191

KGPM Airport Info (Airnav.com)

KGPM Flight Activity (Flightaware)

Listeners: 0 out of 1390 total

Grand Prairie Tower: 128.550

KGQQ CTAF/Del/App (Archives)
Galion, Ohio, United States

Feed Status: UP
Listen in your browser - HTML5 player(in browser, HTML5)
Click here to listen with your own player(launches your MP3 player)

KGQQ Airport Info (Airnav.com)

KGQQ Flight Activity (Flightaware)

Listeners: 0 out of 1390 total

Galion Clearance Delivery: 126.800
Galion CTAF/UNICOM: 122.800
Mansfield Approach: 124.200

KGRK Twr/App
Fort Hood (Killeen), Texas, United States

Feed Status: DOWN
Offline since: 2019-11-24 15:09:39 UTC

KGRK 010556Z AUTO 13009KT 10SM CLR 25/20 A2998 RMK AO2 SLP140 T02500200 10346 20250 403590223 51015

KGRK Airport Info (Airnav.com)

Gray Tower: 120.750

KGTU Gnd/Twr (Archives)
Georgetown, Texas, United States

Feed Status: UP
Listen in your browser - HTML5 player(in browser, HTML5)
Click here to listen with your own player(launches your MP3 player)

KGTU 010656Z 12004KT 10SM CLR 24/21 A3001 RMK AO2 SLP155 T02440206

KGTU Airport Info (Airnav.com)

KGTU Flight Activity (Flightaware)

Listeners: 0 out of 1390 total

Georgetown Ground: 119.125
Georgetown Tower: 120.225

KGVL AWOS (Archives)
Gainesville, Georgia, United States

Feed Status: UP
Listen in your browser - HTML5 player(in browser, HTML5)
Click here to listen with your own player(launches your MP3 player)

KGVL 010653Z AUTO 09003KT 10SM BKN047 BKN060 24/19 A3019 RMK AO2 SLP204 T02390194

KGVL Airport Info (Airnav.com)

KGVL Flight Activity (Flightaware)

Listeners: 0 out of 1390 total

Gainesville AWOS: 126.475

KGVL CTAF/Clearance (Archives)
Gainesville, Georgia, United States

Feed Status: UP
Listen in your browser - HTML5 player(in browser, HTML5)
Click here to listen with your own player(launches your MP3 player)

KGVL 010653Z AUTO 09003KT 10SM BKN047 BKN060 24/19 A3019 RMK AO2 SLP204 T02390194

KGVL Airport Info (Airnav.com)

KGVL Flight Activity (Flightaware)

Listeners: 2 out of 1390 total

Gainesville Clearance (Atlanta Center or TRACON): 134.800
Gainesville CTAF: 123.075

KGWB AWOS (Archives)
Auburn, Indiana, United States

Feed Status: UP
Listen in your browser - HTML5 player(in browser, HTML5)
Click here to listen with your own player(launches your MP3 player)

KGWB 010655Z AUTO 22003KT 10SM CLR 22/15 A3001 RMK AO2

KGWB Airport Info (Airnav.com)

KGWB Flight Activity (Flightaware)

Listeners: 0 out of 1390 total

De Kalb AWOS: 124.150

KGWB Clearance Delivery
Auburn, Indiana, United States

Feed Status: DOWN
Offline since: 2022-05-24 13:54:39 UTC

KGWB 010655Z AUTO 22003KT 10SM CLR 22/15 A3001 RMK AO2

KGWB Airport Info (Airnav.com)

De Kalb Clearance Delivery (Indy Approach): 126.600

KGWB CTAF (Archives)
Auburn, Indiana, United States

Feed Status: UP
Listen in your browser - HTML5 player(in browser, HTML5)
Click here to listen with your own player(launches your MP3 player)

KGWB 010655Z AUTO 22003KT 10SM CLR 22/15 A3001 RMK AO2

KGWB Airport Info (Airnav.com)

KGWB Flight Activity (Flightaware)

Listeners: 0 out of 1390 total

De Kalb CTAF: 123.000

KGWS CTAF/Guard (Archives)
Glenwood Springs, Colorado, United States

Feed Status: UP
Listen in your browser - HTML5 player(in browser, HTML5)
Click here to listen with your own player(launches your MP3 player)

KGWS Airport Info (Airnav.com)

KGWS Flight Activity (Flightaware)

Listeners: 0 out of 1390 total

Emergency/Guard: 121.500
Glenwood Springs CTAF: 123.000

KGYH Tower (Archives)
Greenville, South Carolina, United States

Feed Status: UP
Listen in your browser - HTML5 player(in browser, HTML5)
Click here to listen with your own player(launches your MP3 player)

KGMU 010653Z AUTO 00000KT 10SM CLR 24/20 A3018 RMK AO2 SLP209 T02440200

KGMU Airport Info (Airnav.com)

KGMU Flight Activity (Flightaware)

Listeners: 0 out of 1390 total

Donaldson Tower: 133.325

KGYI Ground/Tower (Archives)
Sherman/Denison, Texas, United States

Feed Status: UP
Listen in your browser - HTML5 player(in browser, HTML5)
Click here to listen with your own player(launches your MP3 player)

KGYI 010635Z AUTO 17011KT 10SM CLR 28/21 A2999 RMK AO2 T02800206 TSNO

KGYI Airport Info (Airnav.com)

KGYI Flight Activity (Flightaware)

Listeners: 0 out of 1390 total

North Texas Ground: 124.125
North Texas Tower: 120.575

KGYI Tower (Archives)
Sherman/Denison, Texas, United States

Feed Status: UP
Listen in your browser - HTML5 player(in browser, HTML5)
Click here to listen with your own player(launches your MP3 player)

KGYI 010635Z AUTO 17011KT 10SM CLR 28/21 A2999 RMK AO2 T02800206 TSNO

KGYI Airport Info (Airnav.com)

KGYI Flight Activity (Flightaware)

Listeners: 0 out of 1390 total

North Texas Tower: 120.575

KGYR Ground (Archives)
Goodyear, Arizona, United States

Feed Status: UP
Listen in your browser - HTML5 player(in browser, HTML5)
Click here to listen with your own player(launches your MP3 player)



KGYR Airport Info (Airnav.com)

KGYR Flight Activity (Flightaware)

Listeners: 0 out of 1390 total

Goodyear Ground: 121.700

KGYR Ground/Tower (Archives)
Goodyear, Arizona, United States

Feed Status: UP
Listen in your browser - HTML5 player(in browser, HTML5)
Click here to listen with your own player(launches your MP3 player)



KGYR Airport Info (Airnav.com)

KGYR Flight Activity (Flightaware)

Listeners: 0 out of 1390 total

Goodyear Ground: 121.700
Goodyear Tower: 120.100

KGYR Tower (Archives)
Goodyear, Arizona, United States

Feed Status: UP
Listen in your browser - HTML5 player(in browser, HTML5)
Click here to listen with your own player(launches your MP3 player)



KGYR Airport Info (Airnav.com)

KGYR Flight Activity (Flightaware)

Listeners: 0 out of 1390 total

Goodyear Tower: 120.100

KHAF CTAF (Archives)
Half Moon Bay, California, United States

Feed Status: UP
Listen in your browser - HTML5 player(in browser, HTML5)
Click here to listen with your own player(launches your MP3 player)

KHAF 010655Z AUTO 32007KT 3SM BR OVC007 12/12 A3006 RMK AO2

KHAF Airport Info (Airnav.com)

KHAF Flight Activity (Flightaware)

Listeners: 0 out of 1390 total

Half Moon Bay CTAF: 122.800

KHBG CTAF (Air Race Classic)
Hattiesburg, Mississippi, United States

Feed Status: DOWN
Offline since: 2019-07-19 17:38:22 UTC

Hattiesburg CTAF: 122.800

KHDC De/Gnd/Twr/App/ZHU (Archives)
Hammond, Louisiana, United States

Feed Status: UP
Listen in your browser - HTML5 player(in browser, HTML5)
Click here to listen with your own player(launches your MP3 player)

KHDC 010638Z AUTO 00000KT 10SM SCT003 SCT020 BKN029 24/24 A3004 RMK AO2

KHDC Airport Info (Airnav.com)

KHDC Flight Activity (Flightaware)

Listeners: 0 out of 1390 total

Hammond CTAF: 122.700
Hammond Ground: 119.850
Hammond Tower: 120.575
Houston Center (Low): 126.350
New Orleans Approach (West): 125.500
New Orleans Clearance/Approach: 119.300

KHEF Del/Gnd/Twr (Archives)
Manassas, Virginia, United States

Feed Status: UP
Listen in your browser - HTML5 player(in browser, HTML5)
Click here to listen with your own player(launches your MP3 player)

KHEF 010656Z AUTO 00000KT 10SM CLR 20/19 A3012 RMK AO2 SLP204 T02000194

KHEF Airport Info (Airnav.com)

KHEF Flight Activity (Flightaware)

Listeners: 1 out of 1390 total

Manassas Clearance Delivery (after Tower closes): 120.200
Manassas Ground: 121.800
Manassas Tower: 133.100

KHFD Ground/Tower (Archives)
Hartford, Connecticut, United States

Feed Status: UP
Listen in your browser - HTML5 player(in browser, HTML5)
Click here to listen with your own player(launches your MP3 player)

KHFD 010653Z AUTO 18004KT 10SM CLR 20/16 A3009 RMK AO2 SLP188 T02000156

KHFD Airport Info (Airnav.com)

KHFD Flight Activity (Flightaware)

Listeners: 0 out of 1390 total

Brainard Ground: 121.600
Brainard Tower: 119.600

KHGR Ground/Tower
Hagerstown, Maryland, United States

Feed Status: DOWN
Offline since: 2022-07-01 06:35:05 UTC

KHGR 010653Z AUTO 16004KT 10SM CLR 23/18 A3010 RMK AO2 SLP196 T02280178 $

KHGR Airport Info (Airnav.com)

Hagerstown Ground: 120.800
Hagerstown Tower: 120.300

KHGR Tower (Archives)
Hagerstown, Maryland, United States

Feed Status: UP
Listen in your browser - HTML5 player(in browser, HTML5)
Click here to listen with your own player(launches your MP3 player)

KMRB 010653Z AUTO 24003KT 10SM CLR 19/17 A3009 RMK AO2 SLP186 T01940167

KMRB Airport Info (Airnav.com)

KMRB Flight Activity (Flightaware)

Listeners: 0 out of 1390 total

Hagerstown Tower: 120.300

KHIO Ground (Archives)
Portland, Oregon, United States

Feed Status: UP
Listen in your browser - HTML5 player(in browser, HTML5)
Click here to listen with your own player(launches your MP3 player)

KHIO 010653Z AUTO 31007KT 10SM CLR 16/13 A3006 RMK AO2 SLP176 T01610128

KHIO Airport Info (Airnav.com)

KHIO Flight Activity (Flightaware)

Listeners: 0 out of 1390 total

Hillsboro Ground: 121.700

KHIO Tower (Both) (Archives)
Portland, Oregon, United States

Feed Status: UP
Listen in your browser - HTML5 player(in browser, HTML5)
Click here to listen with your own player(launches your MP3 player)

KHIO 010653Z AUTO 31007KT 10SM CLR 16/13 A3006 RMK AO2 SLP176 T01610128

KHIO Airport Info (Airnav.com)

KHIO Flight Activity (Flightaware)

Listeners: 0 out of 1390 total

Hillsboro Tower: 119.300
Hillsboro Tower: 132.800

KHIO Tower (Primary) (Archives)
Portland, Oregon, United States

Feed Status: UP
Listen in your browser - HTML5 player(in browser, HTML5)
Click here to listen with your own player(launches your MP3 player)

KHIO 010653Z AUTO 31007KT 10SM CLR 16/13 A3006 RMK AO2 SLP176 T01610128

KHIO Airport Info (Airnav.com)

KHIO Flight Activity (Flightaware)

Listeners: 0 out of 1390 total

Hillsboro Tower: 119.300

KHKY ASOS (Archives)
Hickory, North Carolina, United States

Feed Status: UP
Listen in your browser - HTML5 player(in browser, HTML5)
Click here to listen with your own player(launches your MP3 player)

KHKY 010653Z AUTO 21003KT 10SM CLR 23/21 A3019 RMK AO2 SLP197 T02280206

KHKY Airport Info (Airnav.com)

KHKY Flight Activity (Flightaware)

Listeners: 0 out of 1390 total

Hickory ASOS: 118.325

KHKY Clearance Delivery (ZTL) (Archives)
Hickory, North Carolina, United States

Feed Status: UP
Listen in your browser - HTML5 player(in browser, HTML5)
Click here to listen with your own player(launches your MP3 player)

KHKY 010653Z AUTO 21003KT 10SM CLR 23/21 A3019 RMK AO2 SLP197 T02280206

KHKY Airport Info (Airnav.com)

KHKY Flight Activity (Flightaware)

Listeners: 0 out of 1390 total

Hickory Clearance Delivery (Atlanta Center): 124.250

KHKY Emergency/Guard (Archives)
Hickory, North Carolina, United States

Feed Status: UP
Listen in your browser - HTML5 player(in browser, HTML5)
Click here to listen with your own player(launches your MP3 player)

KHKY 010653Z AUTO 21003KT 10SM CLR 23/21 A3019 RMK AO2 SLP197 T02280206

KHKY Airport Info (Airnav.com)

KHKY Flight Activity (Flightaware)

Listeners: 0 out of 1390 total

Emergency/Guard: 121.500

KHKY Ground (Archives)
Hickory, North Carolina, United States

Feed Status: UP
Listen in your browser - HTML5 player(in browser, HTML5)
Click here to listen with your own player(launches your MP3 player)

KHKY 010653Z AUTO 21003KT 10SM CLR 23/21 A3019 RMK AO2 SLP197 T02280206

KHKY Airport Info (Airnav.com)

KHKY Flight Activity (Flightaware)

Listeners: 0 out of 1390 total

Hickory Ground: 121.700

KHKY Tower (Archives)
Hickory, North Carolina, United States

Feed Status: UP
Listen in your browser - HTML5 player(in browser, HTML5)
Click here to listen with your own player(launches your MP3 player)

KHKY 010653Z AUTO 21003KT 10SM CLR 23/21 A3019 RMK AO2 SLP197 T02280206

KHKY Airport Info (Airnav.com)

KHKY Flight Activity (Flightaware)

Listeners: 0 out of 1390 total

Hickory Tower: 128.150

KHND ATIS (Archives)
Las Vegas, Nevada, United States

Feed Status: UP
Listen in your browser - HTML5 player(in browser, HTML5)
Click here to listen with your own player(launches your MP3 player)

KHND 010656Z AUTO 21009KT 10SM CLR 32/03 A2991 RMK AO2 SLP108 T03220033 404000283

KHND Airport Info (Airnav.com)

KHND Flight Activity (Flightaware)

Listeners: 0 out of 1390 total

Henderson ATIS: 120.775

KHND Ground/Tower (Archives)
Las Vegas, Nevada, United States

Feed Status: UP
Listen in your browser - HTML5 player(in browser, HTML5)
Click here to listen with your own player(launches your MP3 player)

KHND 010656Z AUTO 21009KT 10SM CLR 32/03 A2991 RMK AO2 SLP108 T03220033 404000283

KHND Airport Info (Airnav.com)

KHND Flight Activity (Flightaware)

Listeners: 0 out of 1390 total

Henderson Ground: 127.800
Henderson Tower: 125.100

KHPN ATIS (Archives)
White Plains, New York, United States

Feed Status: UP
Listen in your browser - HTML5 player(in browser, HTML5)
Click here to listen with your own player(launches your MP3 player)

KHPN 010556Z 32003KT 10SM CLR 20/18 A3012 RMK AO2 SLP193 T02000183 10250 20189 56006

KHPN Airport Info (Airnav.com)

KHPN Flight Activity (Flightaware)

Listeners: 0 out of 1390 total

Westchester County ATIS: 133.800

KHPN Del/Gnd/Tower #1 (Archives)
White Plains, New York, United States

Feed Status: UP
Listen in your browser - HTML5 player(in browser, HTML5)
Click here to listen with your own player(launches your MP3 player)

KHPN 010556Z 32003KT 10SM CLR 20/18 A3012 RMK AO2 SLP193 T02000183 10250 20189 56006

KHPN Airport Info (Airnav.com)

KHPN Flight Activity (Flightaware)

Listeners: 0 out of 1390 total

Westchester Clearance Delivery: 127.250
Westchester Ground: 121.825
Westchester Tower: 118.575

KHPN Delivery/Ground (Archives)
White Plains, New York, United States

Feed Status: UP
Listen in your browser - HTML5 player(in browser, HTML5)
Click here to listen with your own player(launches your MP3 player)

KHPN 010556Z 32003KT 10SM CLR 20/18 A3012 RMK AO2 SLP193 T02000183 10250 20189 56006

KHPN Airport Info (Airnav.com)

KHPN Flight Activity (Flightaware)

Listeners: 0 out of 1390 total

Westchester Clearance Delivery: 127.250
Westchester Ground: 121.825

KHPN Tower (Archives)
New York, New York, United States

Feed Status: UP
Listen in your browser - HTML5 player(in browser, HTML5)
Click here to listen with your own player(launches your MP3 player)

KHPN 010556Z 32003KT 10SM CLR 20/18 A3012 RMK AO2 SLP193 T02000183 10250 20189 56006

KHPN Airport Info (Airnav.com)

KHPN Flight Activity (Flightaware)

Listeners: 0 out of 1390 total

Westchester Tower: 118.575

KHPN Tower (Archives)
New York, New York, United States

Feed Status: UP
Listen in your browser - HTML5 player(in browser, HTML5)
Click here to listen with your own player(launches your MP3 player)

KHPN 010556Z 32003KT 10SM CLR 20/18 A3012 RMK AO2 SLP193 T02000183 10250 20189 56006

KHPN Airport Info (Airnav.com)

KHPN Flight Activity (Flightaware)

Listeners: 0 out of 1390 total

Westchester Tower: 118.575

NY Approach (NOBBI/NYACK/HAARP) (Archives)
New York, New York, United States

Feed Status: UP
Listen in your browser - HTML5 player(in browser, HTML5)
Click here to listen with your own player(launches your MP3 player)

KHPN 010556Z 32003KT 10SM CLR 20/18 A3012 RMK AO2 SLP193 T02000183 10250 20189 56006

KHPN Airport Info (Airnav.com)

KHPN Flight Activity (Flightaware)

Listeners: 0 out of 1390 total

New York Approach (HAARP Sector): 135.350
New York Approach (HAARP Sector): 120.800
New York Approach (NOBBI Sector): 126.400
New York Approach (NYACK Sector): 120.550

KHQZ Gnd/Twr (Archives)
Mesquite, Texas, United States

Feed Status: UP
Listen in your browser - HTML5 player(in browser, HTML5)
Click here to listen with your own player(launches your MP3 player)

KHQZ 010635Z AUTO 15008KT 10SM CLR 26/19 A2999 RMK AO1 T02570193

KHQZ Airport Info (Airnav.com)

KHQZ Flight Activity (Flightaware)

Listeners: 0 out of 1390 total

Mesquite Ground: 118.850
Mesquite Tower: 120.300

KHRL Gnd/Twr/App
Harlingen, Texas, United States

Feed Status: DOWN
Offline since: 2022-06-30 17:00:39 UTC

KHRL 010652Z AUTO 18011KT 10SM CLR 28/24 A2993 RMK AO2 SLP134 T02780244

KHRL Airport Info (Airnav.com)

Harlingen Clearance/Ground: 121.700
Harlingen Tower: 119.300
Valley Approach: 120.700

KHRO CTAF/ZME/Misc (Archives)
Harrison, Arkansas, United States

Feed Status: UP
Listen in your browser - HTML5 player(in browser, HTML5)
Click here to listen with your own player(launches your MP3 player)

KHRO 010653Z AUTO 00000KT 10SM CLR 23/19 A3005 RMK AO2 SLP157 T02330189

KHRO Airport Info (Airnav.com)

KHRO Flight Activity (Flightaware)

Listeners: 0 out of 1390 total

Boone County CTAF: 123.000
Jonesboro FSS: 122.450
Jonesboro FSS: 255.400
KBBG Tower (aircraft only): 128.150
Memphis Center (Low): 126.850
Memphis Center (Low): 281.550
Memphis Center (Ultra-High): 133.025
Memphis Center (Ultra-High): 284.750
Springfield Approach (aircraft only): 126.350

KHSD CTAF (Archives)
Oklahoma City, Oklahoma, United States

Feed Status: UP
Listen in your browser - HTML5 player(in browser, HTML5)
Click here to listen with your own player(launches your MP3 player)

KHSD Airport Info (Airnav.com)

KHSD Flight Activity (Flightaware)

Listeners: 0 out of 1390 total

Sundance CTAF: 122.700

KHUF App/Dep (Archives)
Terre Haute, Indiana, United States

Feed Status: UP
Listen in your browser - HTML5 player(in browser, HTML5)
Click here to listen with your own player(launches your MP3 player)

KHUF 010653Z 00000KT 10SM CLR 21/18 A3001 RMK AO2 SLP157 T02110178

KHUF Airport Info (Airnav.com)

KHUF Flight Activity (Flightaware)

Listeners: 0 out of 1390 total

Hulman Approach: 125.450

KHUF Emergency/Guard (Archives)
Terre Haute, Indiana, United States

Feed Status: UP
Listen in your browser - HTML5 player(in browser, HTML5)
Click here to listen with your own player(launches your MP3 player)

KHUF 010653Z 00000KT 10SM CLR 21/18 A3001 RMK AO2 SLP157 T02110178

KHUF Airport Info (Airnav.com)

KHUF Flight Activity (Flightaware)

Listeners: 0 out of 1390 total

Emergency/Guard: 121.500

KHUF Gnd/Twr (Archives)
Terre Haute, Indiana, United States

Feed Status: UP
Listen in your browser - HTML5 player(in browser, HTML5)
Click here to listen with your own player(launches your MP3 player)

KHUF 010653Z 00000KT 10SM CLR 21/18 A3001 RMK AO2 SLP157 T02110178

KHUF Airport Info (Airnav.com)

KHUF Flight Activity (Flightaware)

Listeners: 0 out of 1390 total

Hulman Ground/Clearance: 121.600
Hulman Tower: 134.725

KHUF Gnd/Twr/App (Archives)
Terre Haute, Indiana, United States

Feed Status: UP
Listen in your browser - HTML5 player(in browser, HTML5)
Click here to listen with your own player(launches your MP3 player)

KHUF 010653Z 00000KT 10SM CLR 21/18 A3001 RMK AO2 SLP157 T02110178

KHUF Airport Info (Airnav.com)

KHUF Flight Activity (Flightaware)

Listeners: 0 out of 1390 total

Hulman Approach: 125.450
Hulman Ground/Clearance: 121.600
Hulman Tower: 134.725
Indianapolis Center (Sector 35 Terre Haute Low): 132.200
Indianapolis Center (Sector 80 King High): 134.175

KHUF Ground (Archives)
Terre Haute, Indiana, United States

Feed Status: UP
Listen in your browser - HTML5 player(in browser, HTML5)
Click here to listen with your own player(launches your MP3 player)

KHUF 010653Z 00000KT 10SM CLR 21/18 A3001 RMK AO2 SLP157 T02110178

KHUF Airport Info (Airnav.com)

KHUF Flight Activity (Flightaware)

Listeners: 0 out of 1390 total

Hulman Ground/Clearance: 121.600

KHUF Tower (Archives)
Terre Haute, Indiana, United States

Feed Status: UP
Listen in your browser - HTML5 player(in browser, HTML5)
Click here to listen with your own player(launches your MP3 player)

KHUF 010653Z 00000KT 10SM CLR 21/18 A3001 RMK AO2 SLP157 T02110178

KHUF Airport Info (Airnav.com)

KHUF Flight Activity (Flightaware)

Listeners: 0 out of 1390 total

Hulman Tower: 134.725

KHUL ASOS (Archives)
Houlton, Maine, United States

Feed Status: UP
Listen in your browser - HTML5 player(in browser, HTML5)
Click here to listen with your own player(launches your MP3 player)

KHUL 010653Z AUTO 00000KT 10SM OVC100 11/09 A3003 RMK AO2 SLP169 T01060094

KHUL Airport Info (Airnav.com)

KHUL Flight Activity (Flightaware)

Listeners: 0 out of 1390 total

Houlton ASOS: 132.025

KHUL/KPQI/ZBW01/15 (Archives)
Houlton, Maine, United States

Feed Status: UP
Listen in your browser - HTML5 player(in browser, HTML5)
Click here to listen with your own player(launches your MP3 player)

KHUL 010653Z AUTO 00000KT 10SM OVC100 11/09 A3003 RMK AO2 SLP169 T01060094

KHUL Airport Info (Airnav.com)

KHUL Flight Activity (Flightaware)

Listeners: 0 out of 1390 total

Boston Center (Sector 01 Millinocket High Sector): 128.050
Boston Center (Sector 01 Millinocket High Sector): 319.100
Boston Center (Surry 15 Low Sector): 120.250
Boston Center (Surry 15 Low Sector): 346.400
Boston Center (Surry 15 Low Sector): 124.750
Emergency/Guard: 121.500
Houlton CTAF/UNICOM: 122.800
Presque Isle CTAF/UNICOM: 122.800

KHUT Ground/Twr (Archives)
Hutchinson, Kansas, United States

Feed Status: UP
Listen in your browser - HTML5 player(in browser, HTML5)
Click here to listen with your own player(launches your MP3 player)

KHUT 010652Z AUTO 16009KT 10SM CLR 25/16 A2996 RMK AO2 SLP119 T02500161

KHUT Airport Info (Airnav.com)

KHUT Flight Activity (Flightaware)

Listeners: 0 out of 1390 total

Emergency/Guard: 121.500
Hutchinson Ground: 121.900
Hutchinson Tower: 118.500

KHVN Ground/Tower (Archives)
New Haven, Connecticut, United States

Feed Status: UP
Listen in your browser - HTML5 player(in browser, HTML5)
Click here to listen with your own player(launches your MP3 player)

KHVN 010653Z AUTO 00000KT 8SM CLR 19/18 A3010 RMK AO2 SLP192 T01940178

KHVN Airport Info (Airnav.com)

KHVN Flight Activity (Flightaware)

Listeners: 0 out of 1390 total

New Haven Ground: 121.700
New Haven Tower: 124.800

KHWD Ground/Tower (Archives)
Hayward, California, United States

Feed Status: UP
Listen in your browser - HTML5 player(in browser, HTML5)
Click here to listen with your own player(launches your MP3 player)

KHWD 010654Z AUTO 27010KT 10SM OVC010 13/11 A3005 RMK AO2 SLP184 T01330106

KHWD Airport Info (Airnav.com)

KHWD Flight Activity (Flightaware)

Listeners: 0 out of 1390 total

Hayward Ground: 121.400
Hayward Tower: 118.900
Hayward Tower: 120.200

KHWO ATIS (Archives)
Hollywood, Florida, United States

Feed Status: UP
Listen in your browser - HTML5 player(in browser, HTML5)
Click here to listen with your own player(launches your MP3 player)

KHWO 010653Z 12005KT 10SM CLR 28/23 A3008 RMK AO2 SLP186 T02780233

KHWO Airport Info (Airnav.com)

KHWO Flight Activity (Flightaware)

Listeners: 0 out of 1390 total

North Perry ATIS: 135.475

KHWO Ground (Archives)
Hollywood, Florida, United States

Feed Status: UP
Listen in your browser - HTML5 player(in browser, HTML5)
Click here to listen with your own player(launches your MP3 player)

KHWO 010653Z 12005KT 10SM CLR 28/23 A3008 RMK AO2 SLP186 T02780233

KHWO Airport Info (Airnav.com)

KHWO Flight Activity (Flightaware)

Listeners: 0 out of 1390 total

North Perry Ground: 120.450

KHWO Tower (Both) (Archives)
Hollywood, Florida, United States

Feed Status: UP
Listen in your browser - HTML5 player(in browser, HTML5)
Click here to listen with your own player(launches your MP3 player)

KHWO 010653Z 12005KT 10SM CLR 28/23 A3008 RMK AO2 SLP186 T02780233

KHWO Airport Info (Airnav.com)

KHWO Flight Activity (Flightaware)

Listeners: 0 out of 1390 total

North Perry Tower (Primary): 132.100
North Perry Tower (Secondary): 134.300

KHWO Tower (Secondary) (Archives)
Hollywood, Florida, United States

Feed Status: UP
Listen in your browser - HTML5 player(in browser, HTML5)
Click here to listen with your own player(launches your MP3 player)

KHWO 010653Z 12005KT 10SM CLR 28/23 A3008 RMK AO2 SLP186 T02780233

KHWO Airport Info (Airnav.com)

KHWO Flight Activity (Flightaware)

Listeners: 0 out of 1390 total

North Perry Tower (Secondary): 134.300

KHWV CTAF (Archives)
Shirley, New York, United States

Feed Status: UP
Listen in your browser - HTML5 player(in browser, HTML5)
Click here to listen with your own player(launches your MP3 player)

KHWV 010656Z AUTO 16003KT 10SM CLR 21/18 A3011 RMK AO2 SLP195 T02110183

KHWV Airport Info (Airnav.com)

KHWV Flight Activity (Flightaware)

Listeners: 0 out of 1390 total

Brookhaven CTAF: 122.800
Emergency/Guard: 121.500

KHXD Ground/Tower (Archives)
Hilton Head Island, South Carolina, United States

Feed Status: UP
Listen in your browser - HTML5 player(in browser, HTML5)
Click here to listen with your own player(launches your MP3 player)

KHXD 010655Z AUTO 00000KT 6SM -RA SCT034 BKN046 OVC080 24/23 A3012 RMK AO2 LTG DSNT SE AND SW

KHXD Airport Info (Airnav.com)

KHXD Flight Activity (Flightaware)

Listeners: 0 out of 1390 total

Hilton Head Ground: 121.100
Hilton Head Tower: 118.975

ARINC Oceanic
Hyannis, Massachusetts, United States

Feed Status: DOWN
Offline since: 2021-11-19 19:34:05 UTC

KHYA 010656Z AUTO 22007KT 10SM CLR 21/17 A3010 RMK AO2 SLP194 T02060167

KHYA Airport Info (Airnav.com)

ARINC Oceanic: 129.900

Boston Approach (Cape North) (Archives)
Hyannis, Massachusetts, United States

Feed Status: UP
Listen in your browser - HTML5 player(in browser, HTML5)
Click here to listen with your own player(launches your MP3 player)



KFMH Airport Info (Airnav.com)

KFMH Flight Activity (Flightaware)

Listeners: 0 out of 1390 total

Boston Approach (Cape North Arrival): 118.200

KHYA ATIS
Hyannis, Massachusetts, United States

Feed Status: DOWN
Offline since: 2021-11-19 19:34:05 UTC

KHYA 010656Z AUTO 22007KT 10SM CLR 21/17 A3010 RMK AO2 SLP194 T02060167

KHYA Airport Info (Airnav.com)

Hyannis ATIS: 123.800

KHYA Del/Gnd
Hyannis, Massachusetts, United States

Feed Status: DOWN
Offline since: 2021-11-19 19:34:05 UTC

KHYA 010656Z AUTO 22007KT 10SM CLR 21/17 A3010 RMK AO2 SLP194 T02060167

KHYA Airport Info (Airnav.com)

Hyannis Clearance Delivery: 125.150
Hyannis Ground: 118.450

KHYA Del/Gnd/Twr
Hyannis, Massachusetts, United States

Feed Status: DOWN
Offline since: 2021-11-19 19:34:05 UTC

KHYA 010656Z AUTO 22007KT 10SM CLR 21/17 A3010 RMK AO2 SLP194 T02060167

KHYA Airport Info (Airnav.com)

Hyannis Clearance Delivery: 125.150
Hyannis Ground: 118.450
Hyannis Tower: 119.500

KHYA Emergency/Guard
Hyannis, Massachusetts, United States

Feed Status: DOWN
Offline since: 2021-11-19 19:34:05 UTC

KHYA 010656Z AUTO 22007KT 10SM CLR 21/17 A3010 RMK AO2 SLP194 T02060167

KHYA Airport Info (Airnav.com)

Emergency/Guard: 121.500

KHYA Tower
Hyannis, Massachusetts, United States

Feed Status: DOWN
Offline since: 2021-11-19 19:34:05 UTC

KHYA 010656Z AUTO 22007KT 10SM CLR 21/17 A3010 RMK AO2 SLP194 T02060167

KHYA Airport Info (Airnav.com)

Hyannis Tower: 119.500

KHYI Gnd/Twr/Misc
Austin, Texas, United States

Feed Status: DOWN
Offline since: 2022-06-16 03:15:05 UTC

KHYI 010656Z AUTO 10005KT 10SM BKN019 24/23 A3000 RMK AO2 SLP148 T02390228

KHYI Airport Info (Airnav.com)

Redbird FBO ASRI: 130.850
San Marcos Ground: 120.125
San Marcos Tower: 126.825

KHYS CTAF (Archives)
Hays, Kansas, United States

Feed Status: UP
Listen in your browser - HTML5 player(in browser, HTML5)
Click here to listen with your own player(launches your MP3 player)

KHYS 010656Z AUTO 01008KT 10SM OVC120 27/14 A3001 RMK AO2 LTG DSNT NE SLP136 T02670139 $

KHYS Airport Info (Airnav.com)

KHYS Flight Activity (Flightaware)

Listeners: 0 out of 1390 total

Hays CTAF: 122.800

KIAG Del/Gnd/Twr (Archives)
Niagara Falls, New York, United States

Feed Status: UP
Listen in your browser - HTML5 player(in browser, HTML5)
Click here to listen with your own player(launches your MP3 player)

KIAG 010653Z AUTO 20008KT 10SM CLR 22/15 A2996 RMK AO2 SLP140 T02170150

KIAG Airport Info (Airnav.com)

KIAG Flight Activity (Flightaware)

Listeners: 0 out of 1390 total

Niagara Clearance Delivery: 119.250
Niagara Emergency/Guard: 121.500
Niagara Ground: 121.700
Niagara Tower: 118.500
Niagara UNICOM: 122.950

KIFP Tower
Bullhead City, Arizona, United States

Feed Status: DOWN
Offline since: 2022-06-18 16:17:05 UTC

KIFP 010655Z AUTO 17013G20KT 10SM CLR 38/10 A2976 RMK AO2

KIFP Airport Info (Airnav.com)

Bullhead Tower: 123.900

KIKV Del/CTAF (Archives)
Ankeny, Iowa, United States

Feed Status: UP
Listen in your browser - HTML5 player(in browser, HTML5)
Click here to listen with your own player(launches your MP3 player)

KIKV 010655Z AUTO 02004KT 8SM SCT065 SCT075 24/20 A2994 RMK AO2

KIKV Airport Info (Airnav.com)

KIKV Flight Activity (Flightaware)

Listeners: 0 out of 1390 total

Ankeny Clearance Delivery (Des Moines via RCO): 126.650
Ankeny CTAF: 122.900

KILM Gnd/Twr/App (Archives)
Wilmington, North Carolina, United States

Feed Status: UP
Listen in your browser - HTML5 player(in browser, HTML5)
Click here to listen with your own player(launches your MP3 player)

KILM 010653Z AUTO 00000KT 10SM CLR 24/23 A3015 RMK AO2 SLP211 T02390228 $

KILM Airport Info (Airnav.com)

KILM Flight Activity (Flightaware)

Listeners: 0 out of 1390 total

Emergency/Guard: 121.500
Wilmington Approach: 118.250
Wilmington Approach: 135.750
Wilmington Approach: 317.425
Wilmington Approach: 284.650
Wilmington Ground: 121.900
Wilmington Ground: 348.600
Wilmington Tower: 119.900
Wilmington Tower: 239.300

KILM Gnd/Twr/App/ZDC (Archives)
Wilmington, North Carolina, United States

Feed Status: UP
Listen in your browser - HTML5 player(in browser, HTML5)
Click here to listen with your own player(launches your MP3 player)

KILM 010653Z AUTO 00000KT 10SM CLR 24/23 A3015 RMK AO2 SLP211 T02390228 $

KILM Airport Info (Airnav.com)

KILM Flight Activity (Flightaware)

Listeners: 0 out of 1390 total

Emergency/Guard: 121.500
Washington Center (Sector 35 Wilmington High): 269.150
Washington Center (Sector 35 Wilmington High): 124.025
Wilmington Approach: 317.425
Wilmington Approach: 284.650
Wilmington Approach: 135.750
Wilmington Approach: 118.250
Wilmington Ground: 121.900
Wilmington Ground: 348.600
Wilmington Tower: 239.300
Wilmington Tower: 119.900

KIMS AWOS (Archives)
Madison, Indiana, United States

Feed Status: UP
Listen in your browser - HTML5 player(in browser, HTML5)
Click here to listen with your own player(launches your MP3 player)

KIMS 010655Z AUTO 18003KT 10SM SCT080 23/22 A3008 RMK AO2

KIMS Airport Info (Airnav.com)

KIMS Flight Activity (Flightaware)

Listeners: 0 out of 1390 total

Madison AWOS Weather: 119.175

KIMS CTAF (Archives)
Madison, Indiana, United States

Feed Status: UP
Listen in your browser - HTML5 player(in browser, HTML5)
Click here to listen with your own player(launches your MP3 player)

KIMS 010655Z AUTO 18003KT 10SM SCT080 23/22 A3008 RMK AO2

KIMS Airport Info (Airnav.com)

KIMS Flight Activity (Flightaware)

Listeners: 0 out of 1390 total

Madison CTAF: 123.000

KINF CTAF (Archives)
Inverness, Florida, United States

Feed Status: UP
Listen in your browser - HTML5 player(in browser, HTML5)
Click here to listen with your own player(launches your MP3 player)

KINF 010655Z AUTO 00000KT 7SM CLR 23/23 A3009 RMK AO2

KINF Airport Info (Airnav.com)

KINF Flight Activity (Flightaware)

Listeners: 0 out of 1390 total

Inverness CTAF: 122.725

KCID Gnd/Twr/App/KIOW (Archives)
Iowa City, Iowa, United States

Feed Status: UP
Listen in your browser - HTML5 player(in browser, HTML5)
Click here to listen with your own player(launches your MP3 player)

KCID 010652Z AUTO 22007KT 10SM SCT085 24/17 A2992 RMK AO2 SLP122 T02390167

KCID Airport Info (Airnav.com)

KCID Flight Activity (Flightaware)

Listeners: 0 out of 1390 total

Cedar Rapids Approach (091-269): 119.700
Cedar Rapids Approach (270-090): 134.050
Cedar Rapids Clearance Delivery: 125.450
Cedar Rapids Ground (0500-2330): 121.600
Cedar Rapids Tower (0500-2330): 118.700
UNICOM C17 (Marion) and surrounding area: 122.700
UNICOM IA24 Green Castle: 122.900
UNICOM KIOW (Iowa City) and surrounding area: 122.800

KIPJ CTAF/Del (Archives)
Lincolnton, North Carolina, United States

Feed Status: UP
Listen in your browser - HTML5 player(in browser, HTML5)
Click here to listen with your own player(launches your MP3 player)

KIPJ 010655Z AUTO 00000KT 10SM CLR 20/20 A3018 RMK AO2 T02030197

KIPJ Airport Info (Airnav.com)

KIPJ Flight Activity (Flightaware)

Listeners: 0 out of 1390 total

Lincolnton Clearance Delivery: 124.900
Lincolnton CTAF: 123.050

KIPT ASOS (Archives)
Williamsport, Pennsylvania, United States

Feed Status: UP
Listen in your browser - HTML5 player(in browser, HTML5)
Click here to listen with your own player(launches your MP3 player)

KIPT 010654Z AUTO 02003KT 10SM CLR 17/13 A3008 RMK AO2 SLP181 T01720128

KIPT Airport Info (Airnav.com)

KIPT Flight Activity (Flightaware)

Listeners: 0 out of 1390 total

Williamsport ASOS: 125.225

KIPT Gnd/Twr/UNICOM (Archives)
Williamsport, Pennsylvania, United States

Feed Status: UP
Listen in your browser - HTML5 player(in browser, HTML5)
Click here to listen with your own player(launches your MP3 player)

KIPT 010654Z AUTO 02003KT 10SM CLR 17/13 A3008 RMK AO2 SLP181 T01720128

KIPT Airport Info (Airnav.com)

KIPT Flight Activity (Flightaware)

Listeners: 0 out of 1390 total

Williamsport Ground: 121.900
Williamsport Tower: 119.100
Williamsport UNICOM: 122.950

KIPT Gnd/Twr/ZNY (Archives)
Williamsport, Pennsylvania, United States

Feed Status: UP
Listen in your browser - HTML5 player(in browser, HTML5)
Click here to listen with your own player(launches your MP3 player)

KIPT 010654Z AUTO 02003KT 10SM CLR 17/13 A3008 RMK AO2 SLP181 T01720128

KIPT Airport Info (Airnav.com)

KIPT Flight Activity (Flightaware)

Listeners: 0 out of 1390 total

Emergency/Guard: 121.500
Flight Service: 122.200
Williamsport Ground: 121.900
Williamsport Tower: 119.100

KISM Del/Gnd (Archives)
Orlando, Florida, United States

Feed Status: UP
Listen in your browser - HTML5 player(in browser, HTML5)
Click here to listen with your own player(launches your MP3 player)

KJSM Airport Info (Airnav.com)

KJSM Flight Activity (Flightaware)

Listeners: 0 out of 1390 total

Kissimmee Ground/Clearance Delivery: 121.700

KISM Del/Gnd/Twr (Archives)
Orlando, Florida, United States

Feed Status: UP
Listen in your browser - HTML5 player(in browser, HTML5)
Click here to listen with your own player(launches your MP3 player)

KJSM Airport Info (Airnav.com)

KJSM Flight Activity (Flightaware)

Listeners: 0 out of 1390 total

Kissimmee Ground/Clearance Delivery: 121.700
Kissimmee Tower/CTAF: 124.450

KISM Tower (Archives)
Orlando, Florida, United States

Feed Status: UP
Listen in your browser - HTML5 player(in browser, HTML5)
Click here to listen with your own player(launches your MP3 player)

KJSM Airport Info (Airnav.com)

KJSM Flight Activity (Flightaware)

Listeners: 0 out of 1390 total

Kissimmee Tower/CTAF: 124.450

KIUA CTAF (Archives)
Canandaigua, New York, United States

Feed Status: UP
Listen in your browser - HTML5 player(in browser, HTML5)
Click here to listen with your own player(launches your MP3 player)

KIUA 010655Z AUTO 20003KT 10SM CLR 23/14 A3002 RMK AO2 T02270136

KIUA Airport Info (Airnav.com)

KIUA Flight Activity (Flightaware)

Listeners: 0 out of 1390 total

Canandaigua CTAF: 122.800

KIWA ATIS (Archives)
Phoenix, Arizona, United States

Feed Status: UP
Listen in your browser - HTML5 player(in browser, HTML5)
Click here to listen with your own player(launches your MP3 player)

KIWA 010650Z 22005KT 10SM CLR 33/15 A2989

KIWA Airport Info (Airnav.com)

KIWA Flight Activity (Flightaware)

Listeners: 0 out of 1390 total

Gateway ATIS: 133.500

KIWA Clearance Delivery (Archives)
Phoenix, Arizona, United States

Feed Status: UP
Listen in your browser - HTML5 player(in browser, HTML5)
Click here to listen with your own player(launches your MP3 player)

KIWA 010650Z 22005KT 10SM CLR 33/15 A2989

KIWA Airport Info (Airnav.com)

KIWA Flight Activity (Flightaware)

Listeners: 0 out of 1390 total

Gateway Clearance Delivery: 135.050

KIWA Ground (Archives)
Phoenix, Arizona, United States

Feed Status: UP
Listen in your browser - HTML5 player(in browser, HTML5)
Click here to listen with your own player(launches your MP3 player)

KIWA 010650Z 22005KT 10SM CLR 33/15 A2989

KIWA Airport Info (Airnav.com)

KIWA Flight Activity (Flightaware)

Listeners: 0 out of 1390 total

Gateway Ground: 128.250

KIWA Tower (Archives)
Phoenix, Arizona, United States

Feed Status: UP
Listen in your browser - HTML5 player(in browser, HTML5)
Click here to listen with your own player(launches your MP3 player)

KIWA 010650Z 22005KT 10SM CLR 33/15 A2989

KIWA Airport Info (Airnav.com)

KIWA Flight Activity (Flightaware)

Listeners: 3 out of 1390 total

Gateway Tower (East): 124.750
Gateway Tower (West): 120.600

KIXD ASOS/ATIS (Archives)
Olathe, Kansas, United States

Feed Status: UP
Listen in your browser - HTML5 player(in browser, HTML5)
Click here to listen with your own player(launches your MP3 player)

KIXD 010653Z AUTO 16003KT 10SM CLR 23/16 A2998 RMK AO2 SLP140 T02280156

KIXD Airport Info (Airnav.com)

KIXD Flight Activity (Flightaware)

Listeners: 0 out of 1390 total

New Century ATIS/ASOS: 135.325

KIXD Ground/Tower/K34 (Archives)
Olathe, Kansas, United States

Feed Status: UP
Listen in your browser - HTML5 player(in browser, HTML5)
Click here to listen with your own player(launches your MP3 player)

KIXD 010653Z AUTO 16003KT 10SM CLR 23/16 A2998 RMK AO2 SLP140 T02280156

KIXD Airport Info (Airnav.com)

KIXD Flight Activity (Flightaware)

Listeners: 0 out of 1390 total

K34 CTAF: 122.800
New Century Ground: 124.300
New Century Tower: 133.000

KJFX CTAF (Archives)
Jasper, Alabama, United States

Feed Status: UP
Listen in your browser - HTML5 player(in browser, HTML5)
Click here to listen with your own player(launches your MP3 player)

KJFX 010655Z AUTO 00000KT 7SM CLR 22/23 A3010 RMK AO2 PWINO

KJFX Airport Info (Airnav.com)

KJFX Flight Activity (Flightaware)

Listeners: 0 out of 1390 total

Walker County CTAF: 122.700

KJKA Twr/CTAF (Archives)
Gulf Shores, Alabama, United States

Feed Status: UP
Listen in your browser - HTML5 player(in browser, HTML5)
Click here to listen with your own player(launches your MP3 player)

KPNS 010653Z AUTO 06005KT 10SM FEW019 SCT026 BKN034 26/24 A3005 RMK AO2 SLP178 T02560244

KPNS Airport Info (Airnav.com)

KPNS Flight Activity (Flightaware)

Listeners: 0 out of 1390 total

Jack Edwards Tower/CTAF: 118.650

KJLN ATIS (Archives)
Joplin, Missouri, United States

Feed Status: UP
Listen in your browser - HTML5 player(in browser, HTML5)
Click here to listen with your own player(launches your MP3 player)

KJLN 010653Z AUTO 15006KT 10SM CLR 24/17 A2999 RMK AO2 SLP144 T02390172 $

KJLN Airport Info (Airnav.com)

KJLN Flight Activity (Flightaware)

Listeners: 0 out of 1390 total

Joplin ATIS: 120.850

KJLN Ground (Archives)
Joplin, Missouri, United States

Feed Status: UP
Listen in your browser - HTML5 player(in browser, HTML5)
Click here to listen with your own player(launches your MP3 player)

KJLN 010653Z AUTO 15006KT 10SM CLR 24/17 A2999 RMK AO2 SLP144 T02390172 $

KJLN Airport Info (Airnav.com)

KJLN Flight Activity (Flightaware)

Listeners: 0 out of 1390 total

Joplin Ground: 121.600

KJLN Ground/Tower (Archives)
Joplin, Missouri, United States

Feed Status: UP
Listen in your browser - HTML5 player(in browser, HTML5)
Click here to listen with your own player(launches your MP3 player)

KJLN 010653Z AUTO 15006KT 10SM CLR 24/17 A2999 RMK AO2 SLP144 T02390172 $

KJLN Airport Info (Airnav.com)

KJLN Flight Activity (Flightaware)

Listeners: 0 out of 1390 total

Joplin Ground: 121.600
Joplin Tower: 119.800

KJLN Tower (Archives)
Joplin, Missouri, United States

Feed Status: UP
Listen in your browser - HTML5 player(in browser, HTML5)
Click here to listen with your own player(launches your MP3 player)

KJLN 010653Z AUTO 15006KT 10SM CLR 24/17 A2999 RMK AO2 SLP144 T02390172 $

KJLN Airport Info (Airnav.com)

KJLN Flight Activity (Flightaware)

Listeners: 0 out of 1390 total

Joplin Tower: 119.800

KJNX AWOS (Archives)
Smithfield, North Carolina, United States

Feed Status: UP
Listen in your browser - HTML5 player(in browser, HTML5)
Click here to listen with your own player(launches your MP3 player)

KJNX 010655Z AUTO 00000KT 10SM SCT022 21/21 A3017 RMK AO2

KJNX Airport Info (Airnav.com)

KJNX Flight Activity (Flightaware)

Listeners: 0 out of 1390 total

Johnston AWOS: 120.225

KJNX CTAF (Archives)
Smithfield, North Carolina, United States

Feed Status: UP
Listen in your browser - HTML5 player(in browser, HTML5)
Click here to listen with your own player(launches your MP3 player)

KJNX 010655Z AUTO 00000KT 10SM SCT022 21/21 A3017 RMK AO2

KJNX Airport Info (Airnav.com)

KJNX Flight Activity (Flightaware)

Listeners: 0 out of 1390 total

Johnston CTAF: 122.725

KJQF Ground/Tower (Archives)
Concord, North Carolina, United States

Feed Status: UP
Listen in your browser - HTML5 player(in browser, HTML5)
Click here to listen with your own player(launches your MP3 player)

KJQF 010655Z AUTO 15003KT 10SM CLR 23/21 A3020 RMK AO2

KJQF Airport Info (Airnav.com)

KJQF Flight Activity (Flightaware)

Listeners: 0 out of 1390 total

Concord Ground: 121.850
Concord Tower: 134.650

KJRA/KJRB CTAF #3 (Archives)
New York, New York, United States

Feed Status: UP
Listen in your browser - HTML5 player(in browser, HTML5)
Click here to listen with your own player(launches your MP3 player)


Listeners: 0 out of 1390 total

Hudson River/New York Harbor/KJRA West 30th Street Heliport: 123.050

KJWY/2TS6 CTAF/Unicom (Archives)
Midlothian/Waxahachie, Texas, United States

Feed Status: UP
Listen in your browser - HTML5 player(in browser, HTML5)
Click here to listen with your own player(launches your MP3 player)

KJWY 010655Z AUTO 16004KT 10SM CLR 26/20 A3000 RMK AO2 T02580202

KJWY Airport Info (Airnav.com)

KJWY Flight Activity (Flightaware)

Listeners: 0 out of 1390 total

Mid-Way CTAF/UNICOM: 122.975

Regional Approach (South/RBD)
Midlothian/Waxahachie, Texas, United States

Feed Status: DOWN
Offline since: 2020-03-29 19:10:05 UTC

KRBD 010653Z AUTO 16007KT 10SM CLR 26/19 A2998 RMK AO2 SLP142 T02610194

KRBD Airport Info (Airnav.com)

Regional Approach (South): 125.200

KJYO AWOS (Archives)
Leesburg, Virginia, United States

Feed Status: UP
Listen in your browser - HTML5 player(in browser, HTML5)
Click here to listen with your own player(launches your MP3 player)

KJYO 010655Z AUTO 21003KT 10SM CLR 22/20 A3013 RMK AO2 PWINO

KJYO Airport Info (Airnav.com)

KJYO Flight Activity (Flightaware)

Listeners: 0 out of 1390 total

Leesburg AWOS: 125.225

KJYO CTAF/Tower (Archives)
Leesburg, Virginia, United States

Feed Status: UP
Listen in your browser - HTML5 player(in browser, HTML5)
Click here to listen with your own player(launches your MP3 player)

KJYO 010655Z AUTO 21003KT 10SM CLR 22/20 A3013 RMK AO2 PWINO

KJYO Airport Info (Airnav.com)

KJYO Flight Activity (Flightaware)

Listeners: 0 out of 1390 total

Leesburg Tower/CTAF: 127.500

KJYO Del/Gnd (Archives)
Leesburg, Virginia, United States

Feed Status: UP
Listen in your browser - HTML5 player(in browser, HTML5)
Click here to listen with your own player(launches your MP3 player)

KJYO 010655Z AUTO 21003KT 10SM CLR 22/20 A3013 RMK AO2 PWINO

KJYO Airport Info (Airnav.com)

KJYO Flight Activity (Flightaware)

Listeners: 0 out of 1390 total

Leesburg Clearance Delivery (Potomac TRACON): 118.550
Leesburg Ground: 120.500

KJYO Del/Gnd/Twr/CTAF (Archives)
Leesburg, Virginia, United States

Feed Status: UP
Listen in your browser - HTML5 player(in browser, HTML5)
Click here to listen with your own player(launches your MP3 player)

KJYO 010655Z AUTO 21003KT 10SM CLR 22/20 A3013 RMK AO2 PWINO

KJYO Airport Info (Airnav.com)

KJYO Flight Activity (Flightaware)

Listeners: 0 out of 1390 total

Leesburg Clearance Delivery (Potomac TRACON): 118.550
Leesburg Ground: 120.500
Leesburg Tower/CTAF: 127.500

ZDC Sectors 12/04 (Archives)
Leesburg, Virginia, United States

Feed Status: UP
Listen in your browser - HTML5 player(in browser, HTML5)
Click here to listen with your own player(launches your MP3 player)

KIAD 010652Z 17007KT 10SM CLR 23/20 A3011 RMK AO2 SLP193 T02330200

KIAD Airport Info (Airnav.com)

KIAD Flight Activity (Flightaware)

Listeners: 0 out of 1390 total

Washington Center (Sector 04 Pinion High): 133.975
Washington Center (Sector 12 Brooke High): 126.875
Washington Center (ZDC Guard Dog Low (Shared w/Potomac TRACON): 135.525

KLAF App/Dep (Archives)
Lafayette, Indiana, United States

Feed Status: UP
Listen in your browser - HTML5 player(in browser, HTML5)
Click here to listen with your own player(launches your MP3 player)

KLAF 010654Z AUTO 23003KT 10SM CLR 21/16 A2999 RMK AO2 SLP150 T02110161

KLAF Airport Info (Airnav.com)

KLAF Flight Activity (Flightaware)

Listeners: 0 out of 1390 total

Grissom Approach: 123.850

KLAF ATIS (Archives)
Lafayette, Indiana, United States

Feed Status: UP
Listen in your browser - HTML5 player(in browser, HTML5)
Click here to listen with your own player(launches your MP3 player)

KLAF 010654Z AUTO 23003KT 10SM CLR 21/16 A2999 RMK AO2 SLP150 T02110161

KLAF Airport Info (Airnav.com)

KLAF Flight Activity (Flightaware)

Listeners: 0 out of 1390 total

Lafayette ATIS: 127.750

KLAF Ground (Archives)
Lafayette, Indiana, United States

Feed Status: UP
Listen in your browser - HTML5 player(in browser, HTML5)
Click here to listen with your own player(launches your MP3 player)

KLAF 010654Z AUTO 23003KT 10SM CLR 21/16 A2999 RMK AO2 SLP150 T02110161

KLAF Airport Info (Airnav.com)

KLAF Flight Activity (Flightaware)

Listeners: 0 out of 1390 total

Lafayette Ground: 121.900

KLAF Tower (Archives)
Lafayette, Indiana, United States

Feed Status: UP
Listen in your browser - HTML5 player(in browser, HTML5)
Click here to listen with your own player(launches your MP3 player)

KLAF 010654Z AUTO 23003KT 10SM CLR 21/16 A2999 RMK AO2 SLP150 T02110161

KLAF Airport Info (Airnav.com)

KLAF Flight Activity (Flightaware)

Listeners: 0 out of 1390 total

Lafayette Tower: 119.600

KLAL Arrival ATIS (Archives)
Lakeland, Florida, United States

Feed Status: UP
Listen in your browser - HTML5 player(in browser, HTML5)
Click here to listen with your own player(launches your MP3 player)

KLAL 010655Z AUTO 14003KT 10SM CLR 24/23 A3009 RMK AO2 T02370226

KLAL Airport Info (Airnav.com)

KLAL Flight Activity (Flightaware)

Listeners: 0 out of 1390 total

Lakeland Arrival ATIS (Sun 'n Fun): 128.575

KLAL ATIS (Departure during Sun 'n Fun) (Archives)
Lakeland, Florida, United States

Feed Status: UP
Listen in your browser - HTML5 player(in browser, HTML5)
Click here to listen with your own player(launches your MP3 player)

KLAL 010655Z AUTO 14003KT 10SM CLR 24/23 A3009 RMK AO2 T02370226

KLAL Airport Info (Airnav.com)

KLAL Flight Activity (Flightaware)

Listeners: 0 out of 1390 total

Lakeland ATIS: 118.025

KLAL Departure Mon (Rwy 10L/28R) (Archives)
Lakeland, Florida, United States

Feed Status: UP
Listen in your browser - HTML5 player(in browser, HTML5)
Click here to listen with your own player(launches your MP3 player)

KLAL 010655Z AUTO 14003KT 10SM CLR 24/23 A3009 RMK AO2 T02370226

KLAL Airport Info (Airnav.com)

KLAL Flight Activity (Flightaware)

Listeners: 0 out of 1390 total

Lakeland Departure Monitor (Rwy 10L/28R): 133.125

KLAL Departure Mon (Rwy 10R/28L) (Archives)
Lakeland, Florida, United States

Feed Status: UP
Listen in your browser - HTML5 player(in browser, HTML5)
Click here to listen with your own player(launches your MP3 player)

KLAL 010655Z AUTO 14003KT 10SM CLR 24/23 A3009 RMK AO2 T02370226

KLAL Airport Info (Airnav.com)

KLAL Flight Activity (Flightaware)

Listeners: 0 out of 1390 total

Lakeland Departure Monitor (Rwy 10R/28L): 127.850

KLAL Ground/Advisory (Archives)
Lakeland, Florida, United States

Feed Status: UP
Listen in your browser - HTML5 player(in browser, HTML5)
Click here to listen with your own player(launches your MP3 player)

KLAL 010655Z AUTO 14003KT 10SM CLR 24/23 A3009 RMK AO2 T02370226

KLAL Airport Info (Airnav.com)

KLAL Flight Activity (Flightaware)

Listeners: 0 out of 1390 total

Lakeland Ground: 121.400
Lakeland Helicopter: 123.025
Lakeland IFR Ground Control: 127.100
Paradise City Advisory: 123.625
Sun 'n Fun Ground Advisory: 126.075
Warbird Parking Advisory: 125.025

KLAL Lake Parker VFR Arrival
Lakeland, Florida, United States

Feed Status: DOWN
Offline since: 2022-04-12 21:46:05 UTC

KLAL 010655Z AUTO 14003KT 10SM CLR 24/23 A3009 RMK AO2 T02370226

KLAL Airport Info (Airnav.com)

Lake Parker Arrival (Sun 'n Fun): 124.500

KLAL Tower (Archives)
Lakeland, Florida, United States

Feed Status: UP
Listen in your browser - HTML5 player(in browser, HTML5)
Click here to listen with your own player(launches your MP3 player)

KLAL 010655Z AUTO 14003KT 10SM CLR 24/23 A3009 RMK AO2 T02370226

KLAL Airport Info (Airnav.com)

KLAL Flight Activity (Flightaware)

Listeners: 2 out of 1390 total

Lakeland Tower: 124.500

KLAL Tower (North) (Archives)
Lakeland, Florida, United States

Feed Status: UP
Listen in your browser - HTML5 player(in browser, HTML5)
Click here to listen with your own player(launches your MP3 player)

KLAL 010655Z AUTO 14003KT 10SM CLR 24/23 A3009 RMK AO2 T02370226

KLAL Airport Info (Airnav.com)

KLAL Flight Activity (Flightaware)

Listeners: 0 out of 1390 total

Lakeland Tower (North): 135.225

KLAL Tower (South) (Archives)
Lakeland, Florida, United States

Feed Status: UP
Listen in your browser - HTML5 player(in browser, HTML5)
Click here to listen with your own player(launches your MP3 player)

KLAL 010655Z AUTO 14003KT 10SM CLR 24/23 A3009 RMK AO2 T02370226

KLAL Airport Info (Airnav.com)

KLAL Flight Activity (Flightaware)

Listeners: 0 out of 1390 total

Lakeland Tower (South): 120.350

Sun 'n Fun Air Show/Dep/Misc (Archives)
Lakeland, Florida, United States

Feed Status: UP
Listen in your browser - HTML5 player(in browser, HTML5)
Click here to listen with your own player(launches your MP3 player)

KLAL 010655Z AUTO 14003KT 10SM CLR 24/23 A3009 RMK AO2 T02370226

KLAL Airport Info (Airnav.com)

KLAL Flight Activity (Flightaware)

Listeners: 0 out of 1390 total

Air Boss: Priv

Tampa App/Dep (LAL Area) (Archives)
Lakeland, Florida, United States

Feed Status: UP
Listen in your browser - HTML5 player(in browser, HTML5)
Click here to listen with your own player(launches your MP3 player)

KLAL 010655Z AUTO 14003KT 10SM CLR 24/23 A3009 RMK AO2 T02370226

KLAL Airport Info (Airnav.com)

KLAL Flight Activity (Flightaware)

Listeners: 0 out of 1390 total

Tampa Approach (Lakeland Area): 120.650

KLBE Ground/Tower (Archives)
Latrobe, Pennsylvania, United States

Feed Status: UP
Listen in your browser - HTML5 player(in browser, HTML5)
Click here to listen with your own player(launches your MP3 player)

KLBE 010655Z AUTO 00000KT 10SM CLR 16/14 A3010 RMK AO2

KLBE Airport Info (Airnav.com)

KLBE Flight Activity (Flightaware)

Listeners: 0 out of 1390 total

Latrobe Ground: 121.800
Latrobe Tower: 125.000

KLBX CTAF (Archives)
Angleton/Lake Jackson, Texas, United States

Feed Status: UP
Listen in your browser - HTML5 player(in browser, HTML5)
Click here to listen with your own player(launches your MP3 player)

KLBX 010653Z AUTO 17007KT 10SM FEW015 BKN043 BKN055 26/24 A2995 RMK AO2 LTG DSNT S AND SW RAE13B16E36 SLP141 P0001 T02610239

KLBX Airport Info (Airnav.com)

KLBX Flight Activity (Flightaware)

Listeners: 0 out of 1390 total

KLBX CTAF: 123.000

KLCI AWOS (Archives)
Laconia, New Hampshire, United States

Feed Status: UP
Listen in your browser - HTML5 player(in browser, HTML5)
Click here to listen with your own player(launches your MP3 player)

KLCI 010656Z AUTO 00000KT 9SM CLR 14/13 A3010 RMK AO2 SLP191 T01390133

KLCI Airport Info (Airnav.com)

KLCI Flight Activity (Flightaware)

Listeners: 0 out of 1390 total

Laconia AWOS: 133.525

KLCI Clearance Delivery (Archives)
Laconia, New Hampshire, United States

Feed Status: UP
Listen in your browser - HTML5 player(in browser, HTML5)
Click here to listen with your own player(launches your MP3 player)

KLCI 010656Z AUTO 00000KT 9SM CLR 14/13 A3010 RMK AO2 SLP191 T01390133

KLCI Airport Info (Airnav.com)

KLCI Flight Activity (Flightaware)

Listeners: 0 out of 1390 total

Laconia Clearance Delivery (Boston Approach): 119.850

KLCI Del/CTAF (Archives)
Laconia, New Hampshire, United States

Feed Status: UP
Listen in your browser - HTML5 player(in browser, HTML5)
Click here to listen with your own player(launches your MP3 player)

KLCI 010656Z AUTO 00000KT 9SM CLR 14/13 A3010 RMK AO2 SLP191 T01390133

KLCI Airport Info (Airnav.com)

KLCI Flight Activity (Flightaware)

Listeners: 0 out of 1390 total

Laconia CTAF: 123.000

KLCK ATIS/AWOS (Archives)
Columbus, Ohio, United States

Feed Status: UP
Listen in your browser - HTML5 player(in browser, HTML5)
Click here to listen with your own player(launches your MP3 player)

KLCK 010555Z AUTO 18003KT 10SM CLR 24/19 A3005 RMK AO2 T02410186 10310 20235 403280145

KLCK Airport Info (Airnav.com)

KLCK Flight Activity (Flightaware)

Listeners: 0 out of 1390 total

Rick ATIS/AWOS: 132.750

KLCK Del/Gnd (Archives)
Columbus, Ohio, United States

Feed Status: UP
Listen in your browser - HTML5 player(in browser, HTML5)
Click here to listen with your own player(launches your MP3 player)

KLCK 010555Z AUTO 18003KT 10SM CLR 24/19 A3005 RMK AO2 T02410186 10310 20235 403280145

KLCK Airport Info (Airnav.com)

KLCK Flight Activity (Flightaware)

Listeners: 0 out of 1390 total

Rick Clearance Delivery/Ground: 125.275

KLCK Del/Gnd (UHF) (Archives)
Columbus, Ohio, United States

Feed Status: UP
Listen in your browser - HTML5 player(in browser, HTML5)
Click here to listen with your own player(launches your MP3 player)

KLCK 010555Z AUTO 18003KT 10SM CLR 24/19 A3005 RMK AO2 T02410186 10310 20235 403280145

KLCK Airport Info (Airnav.com)

KLCK Flight Activity (Flightaware)

Listeners: 0 out of 1390 total

Rick Clearance Delivery/Ground (UHF/Military): 275.800

KLCK Emergency/Guard (Archives)
Columbus, Ohio, United States

Feed Status: UP
Listen in your browser - HTML5 player(in browser, HTML5)
Click here to listen with your own player(launches your MP3 player)

KLCK 010555Z AUTO 18003KT 10SM CLR 24/19 A3005 RMK AO2 T02410186 10310 20235 403280145

KLCK Airport Info (Airnav.com)

KLCK Flight Activity (Flightaware)

Listeners: 0 out of 1390 total

Emergency/Guard: 121.500

KLCK Tower (Archives)
Columbus, Ohio, United States

Feed Status: UP
Listen in your browser - HTML5 player(in browser, HTML5)
Click here to listen with your own player(launches your MP3 player)

KLCK 010555Z AUTO 18003KT 10SM CLR 24/19 A3005 RMK AO2 T02410186 10310 20235 403280145

KLCK Airport Info (Airnav.com)

KLCK Flight Activity (Flightaware)

Listeners: 0 out of 1390 total

Rick Tower: 120.050

KLCK Tower (UHF) (Archives)
Columbus, Ohio, United States

Feed Status: UP
Listen in your browser - HTML5 player(in browser, HTML5)
Click here to listen with your own player(launches your MP3 player)

KLCK 010555Z AUTO 18003KT 10SM CLR 24/19 A3005 RMK AO2 T02410186 10310 20235 403280145

KLCK Airport Info (Airnav.com)

KLCK Flight Activity (Flightaware)

Listeners: 0 out of 1390 total

Rick Tower (UHF/Military): 348.400

KLCK UNICOM (Archives)
Columbus, Ohio, United States

Feed Status: UP
Listen in your browser - HTML5 player(in browser, HTML5)
Click here to listen with your own player(launches your MP3 player)

KLCK 010555Z AUTO 18003KT 10SM CLR 24/19 A3005 RMK AO2 T02410186 10310 20235 403280145

KLCK Airport Info (Airnav.com)

KLCK Flight Activity (Flightaware)

Listeners: 0 out of 1390 total

Rick UNICOM: 122.950

KLEE App/Dep (Archives)
Leesburg, Florida, United States

Feed Status: UP
Listen in your browser - HTML5 player(in browser, HTML5)
Click here to listen with your own player(launches your MP3 player)

KLEE 010653Z AUTO 18004KT 10SM 25/22 A3009 RMK AO2 SLP187 T02500222

KLEE Airport Info (Airnav.com)

KLEE Flight Activity (Flightaware)

Listeners: 0 out of 1390 total

Orlando Approach: 135.300
Orlando Approach: 120.225

KLEE ASOS (Archives)
Leesburg, Florida, United States

Feed Status: UP
Listen in your browser - HTML5 player(in browser, HTML5)
Click here to listen with your own player(launches your MP3 player)

KLEE 010653Z AUTO 18004KT 10SM 25/22 A3009 RMK AO2 SLP187 T02500222

KLEE Airport Info (Airnav.com)

KLEE Flight Activity (Flightaware)

Listeners: 0 out of 1390 total

Leesburg ASOS: 134.325

KLEE Ground (Archives)
Leesburg, Florida, United States

Feed Status: UP
Listen in your browser - HTML5 player(in browser, HTML5)
Click here to listen with your own player(launches your MP3 player)

KLEE 010653Z AUTO 18004KT 10SM 25/22 A3009 RMK AO2 SLP187 T02500222

KLEE Airport Info (Airnav.com)

KLEE Flight Activity (Flightaware)

Listeners: 0 out of 1390 total

Leesburg Ground: 121.725

KLEE Tower (Archives)
Leesburg, Florida, United States

Feed Status: UP
Listen in your browser - HTML5 player(in browser, HTML5)
Click here to listen with your own player(launches your MP3 player)

KLEE 010653Z AUTO 18004KT 10SM 25/22 A3009 RMK AO2 SLP187 T02500222

KLEE Airport Info (Airnav.com)

KLEE Flight Activity (Flightaware)

Listeners: 0 out of 1390 total

Leesburg Tower: 119.350

KLFI Del/Gnd/Twr (Archives)
Hampton, Virginia, United States

Feed Status: UP
Listen in your browser - HTML5 player(in browser, HTML5)
Click here to listen with your own player(launches your MP3 player)

KLFI 010556Z AUTO 19009KT 10SM CLR 24/24 A3016 RMK AO2 SLP219 T02420240 10283 20242 57005 $

KLFI Airport Info (Airnav.com)

KLFI Flight Activity (Flightaware)

Listeners: 0 out of 1390 total

Langley Clearance Delivery: 257.625
Langley Ground: 275.800
Langley Tower: 253.500
Langley Tower: 236.600

KLFK Emergency/Guard (Archives)
Lufkin, Texas, United States

Feed Status: UP
Listen in your browser - HTML5 player(in browser, HTML5)
Click here to listen with your own player(launches your MP3 player)

KLFK 010653Z AUTO 11004KT 10SM CLR 23/21 A3001 RMK AO2 SLP156 T02330211

KLFK Airport Info (Airnav.com)

KLFK Flight Activity (Flightaware)

Listeners: 0 out of 1390 total

Emergency/Guard: 121.500

KLFK/KOCH CTAF (Archives)
Lufkin, Texas, United States

Feed Status: UP
Listen in your browser - HTML5 player(in browser, HTML5)
Click here to listen with your own player(launches your MP3 player)

KLFK 010653Z AUTO 11004KT 10SM CLR 23/21 A3001 RMK AO2 SLP156 T02330211

KLFK Airport Info (Airnav.com)

KLFK Flight Activity (Flightaware)

Listeners: 0 out of 1390 total

Lufkin CTAF: 123.000

KLGB Clearance Delivery (Archives)
Long Beach, California, United States

Feed Status: UP
Listen in your browser - HTML5 player(in browser, HTML5)
Click here to listen with your own player(launches your MP3 player)

KLGB 010653Z AUTO 34004KT 10SM CLR 19/15 A2998 RMK AO2 SLP151 T01940150

KLGB Airport Info (Airnav.com)

KLGB Flight Activity (Flightaware)

Listeners: 0 out of 1390 total

Long Beach Clearance Delivery: 118.150

KLGB Ground (Archives)
Long Beach, California, United States

Feed Status: UP
Listen in your browser - HTML5 player(in browser, HTML5)
Click here to listen with your own player(launches your MP3 player)

KLGB 010653Z AUTO 34004KT 10SM CLR 19/15 A2998 RMK AO2 SLP151 T01940150

KLGB Airport Info (Airnav.com)

KLGB Flight Activity (Flightaware)

Listeners: 0 out of 1390 total

Long Beach Ground: 133.000

KLGB Tower (Archives)
Long Beach, California, United States

Feed Status: UP
Listen in your browser - HTML5 player(in browser, HTML5)
Click here to listen with your own player(launches your MP3 player)

KLGB 010653Z AUTO 34004KT 10SM CLR 19/15 A2998 RMK AO2 SLP151 T01940150

KLGB Airport Info (Airnav.com)

KLGB Flight Activity (Flightaware)

Listeners: 1 out of 1390 total

Long Beach Tower: 119.400

KCTJ/KLGC CTAF (Archives)
LaGrange, Georgia, United States

Feed Status: UP
Listen in your browser - HTML5 player(in browser, HTML5)
Click here to listen with your own player(launches your MP3 player)

KCCO 010635Z AUTO 00000KT 10SM SCT045 23/22 A3014 RMK AO2 T02300215

KCCO Airport Info (Airnav.com)

KCCO Flight Activity (Flightaware)

Listeners: 0 out of 1390 total

KCTJ/KLGC CTAF: 122.975

KLGC CTAF (Air Race Classic)
LaGrange, Georgia, United States

Feed Status: DOWN
Offline since: 2020-04-29 17:54:05 UTC

LaGrange CTAF: 122.975

KLHZ CTAF (Archives)
Louisburg, North Carolina, United States

Feed Status: UP
Listen in your browser - HTML5 player(in browser, HTML5)
Click here to listen with your own player(launches your MP3 player)

KLHZ 010655Z AUTO 19003KT 10SM CLR 22/20 A3020 RMK AO2

KLHZ Airport Info (Airnav.com)

KLHZ Flight Activity (Flightaware)

Listeners: 0 out of 1390 total

Louisburg CTAF/UNICOM: 123.000
Louisburg GCO: 135.075
Raleigh Approach (East): 125.300

KFTG/KEIK/KBDU/KLMO/Misc (Archives)
Longmont, Colorado, United States

Feed Status: UP
Listen in your browser - HTML5 player(in browser, HTML5)
Click here to listen with your own player(launches your MP3 player)

KDEN 010653Z 25006KT 10SM SCT180 BKN220 15/10 A3026 RMK AO2 SLP178 T01500100 402780139

KDEN Airport Info (Airnav.com)

KDEN Flight Activity (Flightaware)

Listeners: 0 out of 1390 total

Air-to-Air Fixed Wing: 122.750
Air-to-Air Informal: 123.450
Boulder CTAF: 122.725
Erie CTAF: 123.000
Front Range Tower: 120.200
KBKF Tower: 121.000
Longmont CTAF: 122.975
MULTICOM: 122.900
UNICOM: 122.950

KLMO CTAF (Archives)
Longmont, Colorado, United States

Feed Status: UP
Listen in your browser - HTML5 player(in browser, HTML5)
Click here to listen with your own player(launches your MP3 player)

KLMO 010635Z AUTO 10010KT 10SM CLR 18/10 A3025 RMK AO2 T01760096

KLMO Airport Info (Airnav.com)

KLMO Flight Activity (Flightaware)

Listeners: 0 out of 1390 total

Fort Collins CTAF: 122.700
Longmont CTAF: 122.975

KLNA CTAF
West Palm Beach, Florida, United States

Feed Status: DOWN
Offline since: 2022-06-04 09:00:22 UTC

KPBI 010653Z 12008KT 10SM TS SCT020 SCT037CB 28/24 A3008 RMK AO2 TSB18E43B48 SLP186 OCNL LTGICCG S-SW TS S-SW MOV NW CB DSNT S T02780239 $

KPBI Airport Info (Airnav.com)

Lantana CTAF: 122.700

KLNS Ground/Tower (Archives)
Lancaster, Pennsylvania, United States

Feed Status: UP
Listen in your browser - HTML5 player(in browser, HTML5)
Click here to listen with your own player(launches your MP3 player)

KLNS 010653Z AUTO 10003KT 10SM FEW085 20/14 A3011 RMK AO2 SLP192 T02000144

KLNS Airport Info (Airnav.com)

KLNS Flight Activity (Flightaware)

Listeners: 0 out of 1390 total

Lancaster Ground: 121.800
Lancaster Tower: 120.900

KLNS Tower (Archives)
Lancaster, Pennsylvania, United States

Feed Status: UP
Listen in your browser - HTML5 player(in browser, HTML5)
Click here to listen with your own player(launches your MP3 player)

KLNS 010653Z AUTO 10003KT 10SM FEW085 20/14 A3011 RMK AO2 SLP192 T02000144

KLNS Airport Info (Airnav.com)

KLNS Flight Activity (Flightaware)

Listeners: 0 out of 1390 total

Lancaster Tower: 120.900

KLOU ATIS (Archives)
Louisville, Kentucky, United States

Feed Status: UP
Listen in your browser - HTML5 player(in browser, HTML5)
Click here to listen with your own player(launches your MP3 player)

KLOU 010653Z AUTO 16004KT 10SM SCT060 BKN100 26/21 A3005 RMK AO2 SLP169 T02610211

KLOU Airport Info (Airnav.com)

KLOU Flight Activity (Flightaware)

Listeners: 0 out of 1390 total

Bowman ATIS: 124.150

KLOU Del/Gnd (Archives)
Louisville, Kentucky, United States

Feed Status: UP
Listen in your browser - HTML5 player(in browser, HTML5)
Click here to listen with your own player(launches your MP3 player)

KLOU 010653Z AUTO 16004KT 10SM SCT060 BKN100 26/21 A3005 RMK AO2 SLP169 T02610211

KLOU Airport Info (Airnav.com)

KLOU Flight Activity (Flightaware)

Listeners: 0 out of 1390 total

Bowman Clearance Delivery: 118.900
Bowman Ground: 121.800

KLOU Del/Gnd/Twr (Archives)
Louisville, Kentucky, United States

Feed Status: UP
Listen in your browser - HTML5 player(in browser, HTML5)
Click here to listen with your own player(launches your MP3 player)

KLOU 010653Z AUTO 16004KT 10SM SCT060 BKN100 26/21 A3005 RMK AO2 SLP169 T02610211

KLOU Airport Info (Airnav.com)

KLOU Flight Activity (Flightaware)

Listeners: 0 out of 1390 total

Bowman Clearance Delivery: 118.900
Bowman Ground: 121.800
Bowman Tower: 119.500

KLOU Tower (Archives)
Louisville, Kentucky, United States

Feed Status: UP
Listen in your browser - HTML5 player(in browser, HTML5)
Click here to listen with your own player(launches your MP3 player)

KLOU 010653Z AUTO 16004KT 10SM SCT060 BKN100 26/21 A3005 RMK AO2 SLP169 T02610211

KLOU Airport Info (Airnav.com)

KLOU Flight Activity (Flightaware)

Listeners: 0 out of 1390 total

Bowman Tower: 119.500

KLRD Ground/Tower (Archives)
Laredo, Texas, United States

Feed Status: UP
Listen in your browser - HTML5 player(in browser, HTML5)
Click here to listen with your own player(launches your MP3 player)

KLRD 010656Z AUTO 12007KT 10SM CLR 29/22 A2994 RMK AO2 SLP133 T02890222

KLRD Airport Info (Airnav.com)

KLRD Flight Activity (Flightaware)

Listeners: 0 out of 1390 total

Laredo Ground: 121.800
Laredo Tower: 120.100
Laredo UNICOM: 122.950

KLUF App/Dep (Archives)
Glendale, Arizona, United States

Feed Status: UP
Listen in your browser - HTML5 player(in browser, HTML5)
Click here to listen with your own player(launches your MP3 player)

KPHX 010651Z 26009KT 10SM FEW200 36/14 A2984 RMK AO2 SLP081 T03610139 404060306

KPHX Airport Info (Airnav.com)

KPHX Flight Activity (Flightaware)

Listeners: 0 out of 1390 total

Luke Approach/Departure: 118.150
Luke Approach/Departure: 125.450
Luke Approach/Departure: 263.125
Luke Approach/Departure: 363.125
Luke Arrival: 120.500

KLUF Del/Gnd/Twr/Misc (Archives)
Glendale, Arizona, United States

Feed Status: UP
Listen in your browser - HTML5 player(in browser, HTML5)
Click here to listen with your own player(launches your MP3 player)

KPHX 010651Z 26009KT 10SM FEW200 36/14 A2984 RMK AO2 SLP081 T03610139 404060306

KPHX Airport Info (Airnav.com)

KPHX Flight Activity (Flightaware)

Listeners: 0 out of 1390 total

Command Post (Raymond-18) : 349.400
Emergency/Guard: 243.000
In-Flight Emergencies: 291.100
Luke Clearance Delivery: 126.250
Luke Clearance Delivery: 273.475
Luke Ground: 335.800
Luke Ground: 133.175
Luke Tower: 119.100
Luke Tower: 379.900
PMSV - Metro/Weather: 267.400
PTD: 372.200
SOF: 369.000
SOF: 149.400

KLUK Twr/App/Dep (Archives)
Cincinnati, Ohio, United States

Feed Status: UP
Listen in your browser - HTML5 player(in browser, HTML5)
Click here to listen with your own player(launches your MP3 player)

KLUK 010653Z AUTO 00000KT 10SM SCT095 22/20 A3004 RMK AO2 SLP168 T02170200

KLUK Airport Info (Airnav.com)

KLUK Flight Activity (Flightaware)

Listeners: 0 out of 1390 total

Cincinnati Approach: 121.000
Cincinnati Departure: 128.700
Lunken Tower: 118.700

KLVJ CTAF (Archives)
Houston, Texas, United States

Feed Status: UP
Listen in your browser - HTML5 player(in browser, HTML5)
Click here to listen with your own player(launches your MP3 player)

KLVJ 010653Z AUTO 09006KT 10SM SCT021 SCT033 OVC060 26/24 A2996 RMK AO2 SLP145 T02610244

KLVJ Airport Info (Airnav.com)

KLVJ Flight Activity (Flightaware)

Listeners: 0 out of 1390 total

Pearland CTAF: 122.725

KLWM Ground/Tower (Archives)
Lawrence, Massachusetts, United States

Feed Status: UP
Listen in your browser - HTML5 player(in browser, HTML5)
Click here to listen with your own player(launches your MP3 player)

KLWM 010654Z AUTO 20004KT 10SM CLR 18/13 A3010 RMK AO2 SLP191 T01780133

KLWM Airport Info (Airnav.com)

KLWM Flight Activity (Flightaware)

Listeners: 0 out of 1390 total

Eagle East Jet Service: 122.850
Emergency/Guard: 121.500
Four Star Aviation Jet Center: 123.300
Lawrence Clearance (after hours, Boston Approach): 126.150
Lawrence Ground: 124.300
Lawrence Tower: 119.250
Northeast Executive Jet: 130.600

KLWS Ground/Tower (Archives)
Lewiston, Idaho, United States

Feed Status: UP
Listen in your browser - HTML5 player(in browser, HTML5)
Click here to listen with your own player(launches your MP3 player)

KLWS 010656Z AUTO 00000KT 10SM CLR 22/08 A2994 RMK AO2 SLP128 T02170078

KLWS Airport Info (Airnav.com)

KLWS Flight Activity (Flightaware)

Listeners: 0 out of 1390 total

Lewiston Ground: 121.900
Lewiston Tower: 119.400

KLXT CTAF (Air Race Classic)
Lee's Summit, Missouri, United States

Feed Status: DOWN
Offline since: 2019-06-27 20:24:02 UTC

Lee's Summit CTAF: 122.800

KLYH Ground (Archives)
Lynchburg, Virginia, United States

Feed Status: UP
Listen in your browser - HTML5 player(in browser, HTML5)
Click here to listen with your own player(launches your MP3 player)

KLYH 010654Z AUTO 00000KT 10SM CLR 22/19 A3017 RMK AO2 SLP205 T02170189

KLYH Airport Info (Airnav.com)

KLYH Flight Activity (Flightaware)

Listeners: 0 out of 1390 total

Lynchburg Ground: 121.900

KLYH Roanoke Approach (Archives)
Lynchburg, Virginia, United States

Feed Status: UP
Listen in your browser - HTML5 player(in browser, HTML5)
Click here to listen with your own player(launches your MP3 player)

KLYH 010654Z AUTO 00000KT 10SM CLR 22/19 A3017 RMK AO2 SLP205 T02170189

KLYH Airport Info (Airnav.com)

KLYH Flight Activity (Flightaware)

Listeners: 0 out of 1390 total

Roanoke Approach: 135.000

KLYH Tower (Archives)
Lynchburg, Virginia, United States

Feed Status: UP
Listen in your browser - HTML5 player(in browser, HTML5)
Click here to listen with your own player(launches your MP3 player)

KLYH 010654Z AUTO 00000KT 10SM CLR 22/19 A3017 RMK AO2 SLP205 T02170189

KLYH Airport Info (Airnav.com)

KLYH Flight Activity (Flightaware)

Listeners: 0 out of 1277 total

Lynchburg Tower: 127.650

Atlanta App/Dep (SAT-P) (Archives)
Lawrenceville, Georgia, United States

Feed Status: UP
Listen in your browser - HTML5 player(in browser, HTML5)
Click here to listen with your own player(launches your MP3 player)

KLZU 010656Z AUTO 11003KT 10SM FEW050 23/21 A3016 RMK AO2 SLP211 T02330206

KLZU Airport Info (Airnav.com)

KLZU Flight Activity (Flightaware)

Listeners: 0 out of 1277 total

Atlanta Approach/Departure (SAT-P): 126.975

KLZU Tower (Archives)
Lawrenceville, Georgia, United States

Feed Status: UP
Listen in your browser - HTML5 player(in browser, HTML5)
Click here to listen with your own player(launches your MP3 player)

KLZU 010656Z AUTO 11003KT 10SM FEW050 23/21 A3016 RMK AO2 SLP211 T02330206

KLZU Airport Info (Airnav.com)

KLZU Flight Activity (Flightaware)

Listeners: 0 out of 1277 total

Gwinnett Tower: 124.100

KMAN/KEUL CTAF
Nampa, Idaho, United States

Feed Status: DOWN
Offline since: 2022-04-28 00:26:04 UTC

KMAN 010655Z AUTO 00000KT 10SM 20/09 A2989 RMK A01

KMAN Airport Info (Airnav.com)

Nampa/Caldwell CTAF/UNICOM: 122.700

KMCC CTAF/Del/Gnd/Twr (Archives)
Sacramento, California, United States

Feed Status: UP
Listen in your browser - HTML5 player(in browser, HTML5)
Click here to listen with your own player(launches your MP3 player)

KMCC 010655Z AUTO 17011KT 10SM CLR 17/11 A2993 RMK AO2

KMCC Airport Info (Airnav.com)

KMCC Flight Activity (Flightaware)

Listeners: 0 out of 1277 total

McClellan Clearance Delivery: 119.825
McClellan CTAF: 122.975
McClellan Ground (temp): 118.650
McClellan Tower (temp): 135.900

KMCO App/Dep (North Satellite) (Archives)
Orlando, Florida, United States

Feed Status: UP
Listen in your browser - HTML5 player(in browser, HTML5)
Click here to listen with your own player(launches your MP3 player)

KORL 010653Z AUTO 00000KT 10SM CLR 26/22 A3009 RMK AO2 SLP191 T02560222

KORL Airport Info (Airnav.com)

KORL Flight Activity (Flightaware)

Listeners: 0 out of 1277 total

Orlando Approach (North Satellite): 135.300

KMDD ASOS
Midland, Texas, United States

Feed Status: DOWN
Offline since: 2022-06-10 20:58:05 UTC

KMAF 010653Z 16009KT 10SM CLR 27/14 A3001 RMK AO2 SLP109 T02720144

KMAF Airport Info (Airnav.com)

Midland Airpark ASOS: 118.125

KMDD Clearance Delivery
Midland, Texas, United States

Feed Status: DOWN
Offline since: 2022-06-10 20:58:05 UTC

KMAF 010653Z 16009KT 10SM CLR 27/14 A3001 RMK AO2 SLP109 T02720144

KMAF Airport Info (Airnav.com)

Midland Airpark Clearance Delivery: 121.800

KMDD CTAF
Midland, Texas, United States

Feed Status: DOWN
Offline since: 2022-06-10 20:58:05 UTC

KMAF 010653Z 16009KT 10SM CLR 27/14 A3001 RMK AO2 SLP109 T02720144

KMAF Airport Info (Airnav.com)

Midland Airpark CTAF: 122.700

KMDH Ground/Tower
Carbondale/Murphysboro, Illinois, United States

Feed Status: DOWN
Offline since: 2021-12-06 03:55:39 UTC

KMDH 010652Z AUTO 00000KT 10SM CLR 23/21 A3002 RMK AO2 SLP159 T02280211

KMDH Airport Info (Airnav.com)

Carbondale Ground: 121.800
Carbondale Tower: 126.250
Carbondale Tower: 125.350

KMDQ CTAF
Huntsville, Alabama, United States

Feed Status: DOWN
Offline since: 2022-01-19 20:04:22 UTC

Huntsville Executive CTAF: 123.000

KMDT App/Dep (East) (Archives)
Harrisburg, Pennsylvania, United States

Feed Status: UP
Listen in your browser - HTML5 player(in browser, HTML5)
Click here to listen with your own player(launches your MP3 player)

KMDT 010656Z 16006KT 10SM FEW085 23/17 A3009 RMK AO2 SLP186 T02280172

KMDT Airport Info (Airnav.com)

KMDT Flight Activity (Flightaware)

Listeners: 0 out of 1277 total

Harrisburg App/Dep (East): 126.450

KMDT App/Dep (East/West) (Archives)
Harrisburg, Pennsylvania, United States

Feed Status: UP
Listen in your browser - HTML5 player(in browser, HTML5)
Click here to listen with your own player(launches your MP3 player)

KMDT 010656Z 16006KT 10SM FEW085 23/17 A3009 RMK AO2 SLP186 T02280172

KMDT Airport Info (Airnav.com)

KMDT Flight Activity (Flightaware)

Listeners: 0 out of 1277 total

Harrisburg App/Dep (East): 126.450
Harrisburg App/Dep (North): 118.250
Harrisburg App/Dep (West): 124.100

KMDT App/Dep (North) (Archives)
Harrisburg, Pennsylvania, United States

Feed Status: UP
Listen in your browser - HTML5 player(in browser, HTML5)
Click here to listen with your own player(launches your MP3 player)

KMDT 010656Z 16006KT 10SM FEW085 23/17 A3009 RMK AO2 SLP186 T02280172

KMDT Airport Info (Airnav.com)

KMDT Flight Activity (Flightaware)

Listeners: 0 out of 1277 total

Harrisburg App/Dep (North): 118.250

KMDT App/Dep (West) (Archives)
Harrisburg, Pennsylvania, United States

Feed Status: UP
Listen in your browser - HTML5 player(in browser, HTML5)
Click here to listen with your own player(launches your MP3 player)

KMDT 010656Z 16006KT 10SM FEW085 23/17 A3009 RMK AO2 SLP186 T02280172

KMDT Airport Info (Airnav.com)

KMDT Flight Activity (Flightaware)

Listeners: 0 out of 1277 total

Harrisburg App/Dep (West): 124.100

KMDT ATIS (Archives)
Harrisburg, Pennsylvania, United States

Feed Status: UP
Listen in your browser - HTML5 player(in browser, HTML5)
Click here to listen with your own player(launches your MP3 player)

KMDT 010656Z 16006KT 10SM FEW085 23/17 A3009 RMK AO2 SLP186 T02280172

KMDT Airport Info (Airnav.com)

KMDT Flight Activity (Flightaware)

Listeners: 0 out of 1277 total

Harrisburg ATIS: 118.800

KMDT Emergency/Ground (Archives)
Harrisburg, Pennsylvania, United States

Feed Status: UP
Listen in your browser - HTML5 player(in browser, HTML5)
Click here to listen with your own player(launches your MP3 player)

KMDT 010656Z 16006KT 10SM FEW085 23/17 A3009 RMK AO2 SLP186 T02280172

KMDT Airport Info (Airnav.com)

KMDT Flight Activity (Flightaware)

Listeners: 0 out of 1277 total

Emergency/Guard: 121.500

KMDT Ground (Archives)
Harrisburg, Pennsylvania, United States

Feed Status: UP
Listen in your browser - HTML5 player(in browser, HTML5)
Click here to listen with your own player(launches your MP3 player)

KMDT 010656Z 16006KT 10SM FEW085 23/17 A3009 RMK AO2 SLP186 T02280172

KMDT Airport Info (Airnav.com)

KMDT Flight Activity (Flightaware)

Listeners: 0 out of 1277 total

Harrisburg Ground: 121.700

KMDT Tower (Archives)
Harrisburg, Pennsylvania, United States

Feed Status: UP
Listen in your browser - HTML5 player(in browser, HTML5)
Click here to listen with your own player(launches your MP3 player)

KMDT 010656Z 16006KT 10SM FEW085 23/17 A3009 RMK AO2 SLP186 T02280172

KMDT Airport Info (Airnav.com)

KMDT Flight Activity (Flightaware)

Listeners: 0 out of 1277 total

Harrisburg Tower: 124.800

KMEV CTAF/Unicom (Archives)
Minden, Nevada, United States

Feed Status: UP
Listen in your browser - HTML5 player(in browser, HTML5)
Click here to listen with your own player(launches your MP3 player)

KMEV 010655Z AUTO 08008KT 10SM CLR 11/03 A3011 RMK AO2

KMEV Airport Info (Airnav.com)

KMEV Flight Activity (Flightaware)

Listeners: 0 out of 1277 total

Minden CTAF/UNICOM: 123.050

KMFD ATIS (Archives)
Mansfield, Ohio, United States

Feed Status: UP
Listen in your browser - HTML5 player(in browser, HTML5)
Click here to listen with your own player(launches your MP3 player)

KMFD 010652Z AUTO 19008KT 10SM CLR 21/17 A3006 RMK AO2 SLP167 T02110167

KMFD Airport Info (Airnav.com)

KMFD Flight Activity (Flightaware)

Listeners: 0 out of 1277 total

Mansfield ATIS: 125.300

KMFE App/Dep (Archives)
Mc Allen, Texas, United States

Feed Status: UP
Listen in your browser - HTML5 player(in browser, HTML5)
Click here to listen with your own player(launches your MP3 player)

KMFE 010653Z AUTO 16005KT 10SM CLR 28/23 A2993 RMK AO2 SLP134 T02780233

KMFE Airport Info (Airnav.com)

KMFE Flight Activity (Flightaware)

Listeners: 0 out of 1277 total

Valley Approach: 121.000
Valley Departure: 120.700

KMFE Gnd/Twr (Archives)
Mc Allen, Texas, United States

Feed Status: UP
Listen in your browser - HTML5 player(in browser, HTML5)
Click here to listen with your own player(launches your MP3 player)

KMFE 010653Z AUTO 16005KT 10SM CLR 28/23 A2993 RMK AO2 SLP134 T02780233

KMFE Airport Info (Airnav.com)

KMFE Flight Activity (Flightaware)

Listeners: 1 out of 1277 total

Mc Allen Ground: 121.800
Mc Allen Tower: 118.500
San Angelo Radio: 122.200

KMFR App/Dep (Archives)
Medford, Oregon, United States

Feed Status: UP
Listen in your browser - HTML5 player(in browser, HTML5)
Click here to listen with your own player(launches your MP3 player)

KMFR 010653Z AUTO 00000KT 10SM CLR 19/05 A3002 RMK AO2 SLP156 T01940050

KMFR Airport Info (Airnav.com)

KMFR Flight Activity (Flightaware)

Listeners: 0 out of 1277 total

Cascade Approach/Departure: 124.300

KMFR Emergency/Guard (Archives)
Medford, Oregon, United States

Feed Status: UP
Listen in your browser - HTML5 player(in browser, HTML5)
Click here to listen with your own player(launches your MP3 player)

KMFR 010653Z AUTO 00000KT 10SM CLR 19/05 A3002 RMK AO2 SLP156 T01940050

KMFR Airport Info (Airnav.com)

KMFR Flight Activity (Flightaware)

Listeners: 0 out of 1277 total

Emergency/Guard: 121.500

KMFR Ground (Archives)
Medford, Oregon, United States

Feed Status: UP
Listen in your browser - HTML5 player(in browser, HTML5)
Click here to listen with your own player(launches your MP3 player)

KMFR 010653Z AUTO 00000KT 10SM CLR 19/05 A3002 RMK AO2 SLP156 T01940050

KMFR Airport Info (Airnav.com)

KMFR Flight Activity (Flightaware)

Listeners: 0 out of 1277 total

Medford Ground: 121.800

KMFR Ground/Tower (Archives)
Medford, Oregon, United States

Feed Status: UP
Listen in your browser - HTML5 player(in browser, HTML5)
Click here to listen with your own player(launches your MP3 player)

KMFR 010653Z AUTO 00000KT 10SM CLR 19/05 A3002 RMK AO2 SLP156 T01940050

KMFR Airport Info (Airnav.com)

KMFR Flight Activity (Flightaware)

Listeners: 0 out of 1277 total

Medford Ground: 121.800
Medford Tower: 119.400

Atlanta Approach (N. Sat) (Archives)
Marietta, Georgia, United States

Feed Status: UP
Listen in your browser - HTML5 player(in browser, HTML5)
Click here to listen with your own player(launches your MP3 player)

KRYY 010650Z AUTO 00000KT 10SM BKN033 OVC050 24/21 A3015 RMK AO2 SLP198 T02390206 $

KRYY Airport Info (Airnav.com)

KRYY Flight Activity (Flightaware)

Listeners: 0 out of 1277 total

Atlanta Approach (North Satellite): 121.000

KMGE Ground (Archives)
Marietta, Georgia, United States

Feed Status: UP
Listen in your browser - HTML5 player(in browser, HTML5)
Click here to listen with your own player(launches your MP3 player)

KRYY 010650Z AUTO 00000KT 10SM BKN033 OVC050 24/21 A3015 RMK AO2 SLP198 T02390206 $

KRYY Airport Info (Airnav.com)

KRYY Flight Activity (Flightaware)

Listeners: 0 out of 1277 total

Dobbins Ground: 125.300

KMGE Tower (Archives)
Marietta, Georgia, United States

Feed Status: UP
Listen in your browser - HTML5 player(in browser, HTML5)
Click here to listen with your own player(launches your MP3 player)

KRYY 010650Z AUTO 00000KT 10SM BKN033 OVC050 24/21 A3015 RMK AO2 SLP198 T02390206 $

KRYY Airport Info (Airnav.com)

KRYY Flight Activity (Flightaware)

Listeners: 0 out of 1277 total

Dobbins Tower: 120.750

KMGW ASOS (Archives)
Morgantown, West Virginia, United States

Feed Status: UP
Listen in your browser - HTML5 player(in browser, HTML5)
Click here to listen with your own player(launches your MP3 player)

KMGW 010653Z AUTO 22003KT 10SM CLR 19/13 A3012 RMK AO2 SLP188 T01890133

KMGW Airport Info (Airnav.com)

KMGW Flight Activity (Flightaware)

Listeners: 0 out of 1277 total

Morgantown ASOS Weather: 120.675

KMGW Ground (Archives)
Morgantown, West Virginia, United States

Feed Status: UP
Listen in your browser - HTML5 player(in browser, HTML5)
Click here to listen with your own player(launches your MP3 player)

KMGW 010653Z AUTO 22003KT 10SM CLR 19/13 A3012 RMK AO2 SLP188 T01890133

KMGW Airport Info (Airnav.com)

KMGW Flight Activity (Flightaware)

Listeners: 0 out of 1277 total

Morgantown Ground: 121.700

KMGW Tower (Archives)
Morgantown, West Virginia, United States

Feed Status: UP
Listen in your browser - HTML5 player(in browser, HTML5)
Click here to listen with your own player(launches your MP3 player)

KMGW 010653Z AUTO 22003KT 10SM CLR 19/13 A3012 RMK AO2 SLP188 T01890133

KMGW Airport Info (Airnav.com)

KMGW Flight Activity (Flightaware)

Listeners: 0 out of 1277 total

Morgantown Tower: 125.100

KMGY Air to Air (Archives)
Dayton, Ohio, United States

Feed Status: UP
Listen in your browser - HTML5 player(in browser, HTML5)
Click here to listen with your own player(launches your MP3 player)

KMGY 010653Z AUTO 19005KT 10SM CLR 23/16 A3004 RMK AO2 SLP164 T02330156

KMGY Airport Info (Airnav.com)

KMGY Flight Activity (Flightaware)

Listeners: 0 out of 1277 total

Air to Air: 123.450

KMGY App/Dep (Archives)
Dayton, Ohio, United States

Feed Status: UP
Listen in your browser - HTML5 player(in browser, HTML5)
Click here to listen with your own player(launches your MP3 player)

KMGY 010653Z AUTO 19005KT 10SM CLR 23/16 A3004 RMK AO2 SLP164 T02330156

KMGY Airport Info (Airnav.com)

KMGY Flight Activity (Flightaware)

Listeners: 0 out of 1277 total

Dayton Approach/Departure: 118.850

KMGY AWOS (Archives)
Dayton, Ohio, United States

Feed Status: UP
Listen in your browser - HTML5 player(in browser, HTML5)
Click here to listen with your own player(launches your MP3 player)

KMGY 010653Z AUTO 19005KT 10SM CLR 23/16 A3004 RMK AO2 SLP164 T02330156

KMGY Airport Info (Airnav.com)

KMGY Flight Activity (Flightaware)

Listeners: 0 out of 1277 total

Dayton-Wright Brothers AWOS: 118.375

KMGY Clearance Delivery (Archives)
Dayton, Ohio, United States

Feed Status: UP
Listen in your browser - HTML5 player(in browser, HTML5)
Click here to listen with your own player(launches your MP3 player)

KMGY 010653Z AUTO 19005KT 10SM CLR 23/16 A3004 RMK AO2 SLP164 T02330156

KMGY Airport Info (Airnav.com)

KMGY Flight Activity (Flightaware)

Listeners: 0 out of 1277 total

Dayton Clearance Delivery (KMGY): 119.400

KMGY CTAF (Archives)
Dayton, Ohio, United States

Feed Status: UP
Listen in your browser - HTML5 player(in browser, HTML5)
Click here to listen with your own player(launches your MP3 player)

KMGY 010653Z AUTO 19005KT 10SM CLR 23/16 A3004 RMK AO2 SLP164 T02330156

KMGY Airport Info (Airnav.com)

KMGY Flight Activity (Flightaware)

Listeners: 0 out of 1277 total

Dayton-Wright Brothers CTAF: 122.800

KMGY Emergency/Guard (Archives)
Dayton, Ohio, United States

Feed Status: UP
Listen in your browser - HTML5 player(in browser, HTML5)
Click here to listen with your own player(launches your MP3 player)

KMGY 010653Z AUTO 19005KT 10SM CLR 23/16 A3004 RMK AO2 SLP164 T02330156

KMGY Airport Info (Airnav.com)

KMGY Flight Activity (Flightaware)

Listeners: 0 out of 1277 total

Emergency/Guard: 121.500

KMHR Ground/Tower (Archives)
Sacramento, California, United States

Feed Status: UP
Listen in your browser - HTML5 player(in browser, HTML5)
Click here to listen with your own player(launches your MP3 player)

KMHR 010655Z AUTO 17007KT 10SM CLR 15/11 A2994 RMK A01

KMHR Airport Info (Airnav.com)

KMHR Flight Activity (Flightaware)

Listeners: 0 out of 1277 total

Mather Ground: 121.850
Mather Tower: 120.650

NORCAL App (EXPO/127.4) (Archives)
Sacramento, California, United States

Feed Status: UP
Listen in your browser - HTML5 player(in browser, HTML5)
Click here to listen with your own player(launches your MP3 player)

KMHR 010655Z AUTO 17007KT 10SM CLR 15/11 A2994 RMK A01

KMHR Airport Info (Airnav.com)

KMHR Flight Activity (Flightaware)

Listeners: 0 out of 1277 total

NORCAL Approach (EXPO Sector): 127.400

KMHV App/Dep (133.65) (Archives)
Mojave, California, United States

Feed Status: UP
Listen in your browser - HTML5 player(in browser, HTML5)
Click here to listen with your own player(launches your MP3 player)

KMHV 010640Z AUTO 27012G18KT 10SM CLR 26/M07 A3002 RMK A01

KMHV Airport Info (Airnav.com)

KMHV Flight Activity (Flightaware)

Listeners: 0 out of 1277 total

Joshua Approach/Departure (MHV/VHF): 133.650

KMHV App/Dep (All) (Archives)
Mojave, California, United States

Feed Status: UP
Listen in your browser - HTML5 player(in browser, HTML5)
Click here to listen with your own player(launches your MP3 player)

KMHV 010640Z AUTO 27012G18KT 10SM CLR 26/M07 A3002 RMK A01

KMHV Airport Info (Airnav.com)

KMHV Flight Activity (Flightaware)

Listeners: 0 out of 1277 total

Joshua Approach (Antelope/UHF): 363.000
Joshua Approach (Antelope/VHF): 124.550
Joshua Approach (MHV area/UHF): 348.700
Joshua Approach (MHV area/VHF): 133.650
Joshua Approach (Palmdale/UHF): 290.300
Joshua Approach (Palmdale/VHF): 126.100

KMHV AWOS (Archives)
Mojave, California, United States

Feed Status: UP
Listen in your browser - HTML5 player(in browser, HTML5)
Click here to listen with your own player(launches your MP3 player)

KMHV 010640Z AUTO 27012G18KT 10SM CLR 26/M07 A3002 RMK A01

KMHV Airport Info (Airnav.com)

KMHV Flight Activity (Flightaware)

Listeners: 0 out of 1277 total

Mojave AWOS: 132.225

KMHV Ground/Tower (Archives)
Mojave, California, United States

Feed Status: UP
Listen in your browser - HTML5 player(in browser, HTML5)
Click here to listen with your own player(launches your MP3 player)

KMHV 010640Z AUTO 27012G18KT 10SM CLR 26/M07 A3002 RMK A01

KMHV Airport Info (Airnav.com)

KMHV Flight Activity (Flightaware)

Listeners: 0 out of 1277 total

Mojave Ground: 123.900
Mojave Tower/CTAF: 127.600
Mojave Tower/CTAF: 288.350

KMIC ATIS (Archives)
Minneapolis, Minnesota, United States

Feed Status: UP
Listen in your browser - HTML5 player(in browser, HTML5)
Click here to listen with your own player(launches your MP3 player)

KMIC 010653Z AUTO 32006KT 10SM CLR 20/12 A2996 RMK AO2 SLP139 T02000122

KMIC Airport Info (Airnav.com)

KMIC Flight Activity (Flightaware)

Listeners: 0 out of 1277 total

Crystal ATIS: 124.475

KMIC Emergency/Guard (Archives)
Minneapolis, Minnesota, United States

Feed Status: UP
Listen in your browser - HTML5 player(in browser, HTML5)
Click here to listen with your own player(launches your MP3 player)

KMIC 010653Z AUTO 32006KT 10SM CLR 20/12 A2996 RMK AO2 SLP139 T02000122

KMIC Airport Info (Airnav.com)

KMIC Flight Activity (Flightaware)

Listeners: 0 out of 1277 total

Emergency/Guard: 121.500

KMIC Ground (Archives)
Minneapolis, Minnesota, United States

Feed Status: UP
Listen in your browser - HTML5 player(in browser, HTML5)
Click here to listen with your own player(launches your MP3 player)

KMIC 010653Z AUTO 32006KT 10SM CLR 20/12 A2996 RMK AO2 SLP139 T02000122

KMIC Airport Info (Airnav.com)

KMIC Flight Activity (Flightaware)

Listeners: 0 out of 1277 total

Crystal Ground: 121.600

KMIC Ground/Tower (Archives)
Minneapolis, Minnesota, United States

Feed Status: UP
Listen in your browser - HTML5 player(in browser, HTML5)
Click here to listen with your own player(launches your MP3 player)

KMIC 010653Z AUTO 32006KT 10SM CLR 20/12 A2996 RMK AO2 SLP139 T02000122

KMIC Airport Info (Airnav.com)

KMIC Flight Activity (Flightaware)

Listeners: 0 out of 1277 total

Crystal Ground: 121.600
Crystal Tower/CTAF: 120.700

KMIC Tower/CTAF (Archives)
Minneapolis, Minnesota, United States

Feed Status: UP
Listen in your browser - HTML5 player(in browser, HTML5)
Click here to listen with your own player(launches your MP3 player)

KMIC 010653Z AUTO 32006KT 10SM CLR 20/12 A2996 RMK AO2 SLP139 T02000122

KMIC Airport Info (Airnav.com)

KMIC Flight Activity (Flightaware)

Listeners: 0 out of 1277 total

Crystal Tower/CTAF: 120.700

KBLM/N12/3N6/KMJX (Archives)
Toms River, New Jersey, United States

Feed Status: UP
Listen in your browser - HTML5 player(in browser, HTML5)
Click here to listen with your own player(launches your MP3 player)

KBLM 010656Z AUTO 22004KT 10SM CLR 21/21 A3013 RMK AO2 SLP203 T02060206

KBLM Airport Info (Airnav.com)

KBLM Flight Activity (Flightaware)

Listeners: 0 out of 1277 total

3N6 Old Bridge CTAF: 123.075
Emergency/Guard: 121.500
Monmouth Clearance: 120.950
Monmouth Clearance: 126.150
Monmouth CTAF: 123.000
N12 Lakewood CTAF: 122.800
Ocean County KMJX CTAF: 122.700

KMJX CTAF (Archives)
Toms River, New Jersey, United States

Feed Status: UP
Listen in your browser - HTML5 player(in browser, HTML5)
Click here to listen with your own player(launches your MP3 player)



KMJX Airport Info (Airnav.com)

KMJX Flight Activity (Flightaware)

Listeners: 0 out of 1277 total

Toms River CTAF: 122.700

KMKC ATIS (Archives)
Kansas City, Missouri, United States

Feed Status: UP
Listen in your browser - HTML5 player(in browser, HTML5)
Click here to listen with your own player(launches your MP3 player)

KMKC 010654Z 21004KT 10SM CLR 26/16 A2996 RMK AO2 SLP134 T02610161

KMKC Airport Info (Airnav.com)

KMKC Flight Activity (Flightaware)

Listeners: 0 out of 1277 total

Downtown ATIS: 120.750

KMKC Ground (Archives)
Kansas City, Missouri, United States

Feed Status: UP
Listen in your browser - HTML5 player(in browser, HTML5)
Click here to listen with your own player(launches your MP3 player)

KMKC 010654Z 21004KT 10SM CLR 26/16 A2996 RMK AO2 SLP134 T02610161

KMKC Airport Info (Airnav.com)

KMKC Flight Activity (Flightaware)

Listeners: 0 out of 1277 total

Downtown Ground: 121.900

KMKC Tower (Archives)
Kansas City, Missouri, United States

Feed Status: UP
Listen in your browser - HTML5 player(in browser, HTML5)
Click here to listen with your own player(launches your MP3 player)

KMKC 010654Z 21004KT 10SM CLR 26/16 A2996 RMK AO2 SLP134 T02610161

KMKC Airport Info (Airnav.com)

KMKC Flight Activity (Flightaware)

Listeners: 0 out of 1277 total

Downtown Tower: 133.300

KMKG App/Dep (North) (Archives)
Muskegon, Michigan, United States

Feed Status: UP
Listen in your browser - HTML5 player(in browser, HTML5)
Click here to listen with your own player(launches your MP3 player)

KMKG 010655Z AUTO 22014G22KT 10SM BKN100 26/16 A2989 RMK AO2 SLP117 T02560156

KMKG Airport Info (Airnav.com)

KMKG Flight Activity (Flightaware)

Listeners: 0 out of 1277 total

Muskegon Approach/Departure (North): 119.800

KMKG App/Dep (North/South) (Archives)
Muskegon, Michigan, United States

Feed Status: UP
Listen in your browser - HTML5 player(in browser, HTML5)
Click here to listen with your own player(launches your MP3 player)

KMKG 010655Z AUTO 22014G22KT 10SM BKN100 26/16 A2989 RMK AO2 SLP117 T02560156

KMKG Airport Info (Airnav.com)

KMKG Flight Activity (Flightaware)

Listeners: 0 out of 1277 total

Muskegon Approach/Departure (North): 119.800
Muskegon Approach/Departure (South): 133.825

KMKG App/Dep (North/South) (Archives)
Muskegon, Michigan, United States

Feed Status: UP
Listen in your browser - HTML5 player(in browser, HTML5)
Click here to listen with your own player(launches your MP3 player)

KMKG 010655Z AUTO 22014G22KT 10SM BKN100 26/16 A2989 RMK AO2 SLP117 T02560156

KMKG Airport Info (Airnav.com)

KMKG Flight Activity (Flightaware)

Listeners: 0 out of 1277 total

Muskegon Approach/Departure (North): 119.800
Muskegon Approach/Departure (South): 133.825

KMKG App/Dep (South) (Archives)
Muskegon, Michigan, United States

Feed Status: UP
Listen in your browser - HTML5 player(in browser, HTML5)
Click here to listen with your own player(launches your MP3 player)

KMKG 010655Z AUTO 22014G22KT 10SM BKN100 26/16 A2989 RMK AO2 SLP117 T02560156

KMKG Airport Info (Airnav.com)

KMKG Flight Activity (Flightaware)

Listeners: 0 out of 1277 total

Muskegon Approach/Departure (South): 133.825

KMKG ATIS (Archives)
Muskegon, Michigan, United States

Feed Status: UP
Listen in your browser - HTML5 player(in browser, HTML5)
Click here to listen with your own player(launches your MP3 player)

KMKG 010655Z AUTO 22014G22KT 10SM BKN100 26/16 A2989 RMK AO2 SLP117 T02560156

KMKG Airport Info (Airnav.com)

KMKG Flight Activity (Flightaware)

Listeners: 0 out of 1277 total

Muskegon ATIS: 124.300

KMKG Emergency/Guard (Archives)
Muskegon, Michigan, United States

Feed Status: UP
Listen in your browser - HTML5 player(in browser, HTML5)
Click here to listen with your own player(launches your MP3 player)

KMKG 010655Z AUTO 22014G22KT 10SM BKN100 26/16 A2989 RMK AO2 SLP117 T02560156

KMKG Airport Info (Airnav.com)

KMKG Flight Activity (Flightaware)

Listeners: 0 out of 1277 total

Emergency/Guard: 121.500

KMKG Gnd/Twr/App/Dep (Archives)
Muskegon, Michigan, United States

Feed Status: UP
Listen in your browser - HTML5 player(in browser, HTML5)
Click here to listen with your own player(launches your MP3 player)

KMKG 010655Z AUTO 22014G22KT 10SM BKN100 26/16 A2989 RMK AO2 SLP117 T02560156

KMKG Airport Info (Airnav.com)

KMKG Flight Activity (Flightaware)

Listeners: 0 out of 1277 total

Muskegon Approach/Departure (North): 119.800
Muskegon Approach/Departure (South): 133.825
Muskegon Ground: 121.600
Muskegon Tower: 126.250

KMKG Ground (Archives)
Muskegon, Michigan, United States

Feed Status: UP
Listen in your browser - HTML5 player(in browser, HTML5)
Click here to listen with your own player(launches your MP3 player)

KMKG 010655Z AUTO 22014G22KT 10SM BKN100 26/16 A2989 RMK AO2 SLP117 T02560156

KMKG Airport Info (Airnav.com)

KMKG Flight Activity (Flightaware)

Listeners: 0 out of 1277 total

Muskegon Ground: 121.600

KMKG Ground/Tower (Archives)
Muskegon, Michigan, United States

Feed Status: UP
Listen in your browser - HTML5 player(in browser, HTML5)
Click here to listen with your own player(launches your MP3 player)

KMKG 010655Z AUTO 22014G22KT 10SM BKN100 26/16 A2989 RMK AO2 SLP117 T02560156

KMKG Airport Info (Airnav.com)

KMKG Flight Activity (Flightaware)

Listeners: 0 out of 1277 total

Muskegon Ground: 121.600
Muskegon Tower: 126.250

KMKG Tower (Archives)
Muskegon, Michigan, United States

Feed Status: UP
Listen in your browser - HTML5 player(in browser, HTML5)
Click here to listen with your own player(launches your MP3 player)

KMKG 010655Z AUTO 22014G22KT 10SM BKN100 26/16 A2989 RMK AO2 SLP117 T02560156

KMKG Airport Info (Airnav.com)

KMKG Flight Activity (Flightaware)

Listeners: 0 out of 1277 total

Muskegon Tower: 126.250

KMKG UNICOM (Archives)
Muskegon, Michigan, United States

Feed Status: UP
Listen in your browser - HTML5 player(in browser, HTML5)
Click here to listen with your own player(launches your MP3 player)

KMKG 010655Z AUTO 22014G22KT 10SM BKN100 26/16 A2989 RMK AO2 SLP117 T02560156

KMKG Airport Info (Airnav.com)

KMKG Flight Activity (Flightaware)

Listeners: 0 out of 1277 total

Muskegon UNICOM: 122.950

KMKL Tower (Air Race Classic Start)
Jackson, Tennessee, United States

Feed Status: DOWN
Offline since: 2019-06-20 14:39:02 UTC

Jackson Tower: 127.150

KMLB Twr/App (Archives)
Melbourne, Florida, United States

Feed Status: UP
Listen in your browser - HTML5 player(in browser, HTML5)
Click here to listen with your own player(launches your MP3 player)

KMLB 010653Z AUTO 22003KT 10SM CLR 24/22 A3009 RMK AO2 SLP187 T02440222

KMLB Airport Info (Airnav.com)

KMLB Flight Activity (Flightaware)

Listeners: 0 out of 1277 total

Melbourne Tower: 118.200
Orlando Approach: 132.650

KMMU ATIS (Archives)
Morristown, New Jersey, United States

Feed Status: UP
Listen in your browser - HTML5 player(in browser, HTML5)
Click here to listen with your own player(launches your MP3 player)

KMMU 010655Z AUTO 00000KT 10SM CLR 16/15 A3011 RMK AO2

KMMU Airport Info (Airnav.com)

KMMU Flight Activity (Flightaware)

Listeners: 0 out of 1277 total

Morristown ATIS: 124.250

KMMU Clearance Delivery (Archives)
Morristown, New Jersey, United States

Feed Status: UP
Listen in your browser - HTML5 player(in browser, HTML5)
Click here to listen with your own player(launches your MP3 player)

KMMU 010655Z AUTO 00000KT 10SM CLR 16/15 A3011 RMK AO2

KMMU Airport Info (Airnav.com)

KMMU Flight Activity (Flightaware)

Listeners: 0 out of 1277 total

Morristown Clearance Delivery: 128.600

KMMU Ground (Archives)
Morristown, New Jersey, United States

Feed Status: UP
Listen in your browser - HTML5 player(in browser, HTML5)
Click here to listen with your own player(launches your MP3 player)

KMMU 010655Z AUTO 00000KT 10SM CLR 16/15 A3011 RMK AO2

KMMU Airport Info (Airnav.com)

KMMU Flight Activity (Flightaware)

Listeners: 0 out of 1277 total

Morristown Ground: 134.200

KMMU Tower #1 (Archives)
Morristown, New Jersey, United States

Feed Status: UP
Listen in your browser - HTML5 player(in browser, HTML5)
Click here to listen with your own player(launches your MP3 player)

KMMU 010655Z AUTO 00000KT 10SM CLR 16/15 A3011 RMK AO2

KMMU Airport Info (Airnav.com)

KMMU Flight Activity (Flightaware)

Listeners: 0 out of 1277 total

Morristown Tower: 118.100

KMMU Tower #2 (Archives)
Morristown, New Jersey, United States

Feed Status: UP
Listen in your browser - HTML5 player(in browser, HTML5)
Click here to listen with your own player(launches your MP3 player)

KMMU 010655Z AUTO 00000KT 10SM CLR 16/15 A3011 RMK AO2

KMMU Airport Info (Airnav.com)

KMMU Flight Activity (Flightaware)

Listeners: 0 out of 1277 total

Morristown Tower: 118.100

KMMV CTAF (Archives)
Mc Minnville, Oregon, United States

Feed Status: UP
Listen in your browser - HTML5 player(in browser, HTML5)
Click here to listen with your own player(launches your MP3 player)

KMMV 010653Z AUTO 24009KT 10SM CLR 14/12 A3006 RMK AO2 SLP177 T01390117

KMMV Airport Info (Airnav.com)

KMMV Flight Activity (Flightaware)

Listeners: 0 out of 1277 total

Mc Minnville CTAF: 123.000

KMOR AWOS
Morristown, Tennessee, United States

Feed Status: DOWN
Offline since: 2021-02-22 17:33:22 UTC

KMOR 010650Z AUTO 00000KT 10SM CLR 22/20 A3015 RMK A01

KMOR Airport Info (Airnav.com)

Morristown AWOS: 126.725

KMOR Clearance Delivery
Morristown, Tennessee, United States

Feed Status: DOWN
Offline since: 2021-02-22 17:33:22 UTC

KMOR 010650Z AUTO 00000KT 10SM CLR 22/20 A3015 RMK A01

KMOR Airport Info (Airnav.com)

Morristown Clearance Delivery (RCO): 132.800

KMOR CTAF
Morristown, Tennessee, United States

Feed Status: DOWN
Offline since: 2021-02-22 17:33:22 UTC

KMOR 010650Z AUTO 00000KT 10SM CLR 22/20 A3015 RMK A01

KMOR Airport Info (Airnav.com)

Morristown CTAF: 122.800

KMQS/KPTW CTAF (Archives)
Coatesville, Pennsylvania, United States

Feed Status: UP
Listen in your browser - HTML5 player(in browser, HTML5)
Click here to listen with your own player(launches your MP3 player)

KOQN 010655Z AUTO 00000KT 10SM CLR 22/19 A3013 RMK AO2

KOQN Airport Info (Airnav.com)

KOQN Flight Activity (Flightaware)

Listeners: 0 out of 1277 total

Chester County/Pottstown CTAF: 122.700

KMQY Clearance Delivery (Archives)
Smyrna, Tennessee, United States

Feed Status: UP
Listen in your browser - HTML5 player(in browser, HTML5)
Click here to listen with your own player(launches your MP3 player)

KMQY 010656Z AUTO 14003KT 10SM CLR 23/21 A3011 RMK AO2 SLP196 T02330206

KMQY Airport Info (Airnav.com)

KMQY Flight Activity (Flightaware)

Listeners: 0 out of 1277 total

Smyrna Clearance Delivery (after Tower closes): 121.700

KMQY Emergency/Guard (Archives)
Smyrna, Tennessee, United States

Feed Status: UP
Listen in your browser - HTML5 player(in browser, HTML5)
Click here to listen with your own player(launches your MP3 player)

KMQY 010656Z AUTO 14003KT 10SM CLR 23/21 A3011 RMK AO2 SLP196 T02330206

KMQY Airport Info (Airnav.com)

KMQY Flight Activity (Flightaware)

Listeners: 0 out of 1277 total

Emergency/Guard: 121.500

KMQY Ground (Archives)
Smyrna, Tennessee, United States

Feed Status: UP